<?xml version="1.0" encoding="UTF-8" standalone="no" ?>
<gpx xmlns="http://www.topografix.com/GPX/1/1" xmlns:xsi="http://www.w3.org/2001/XMLSchema-instance" xsi:schemaLocation="http://www.topografix.com/GPX/1/1 http://www.topografix.com/GPX/1/1/gpx.xsd" version="1.1" creator="VisuGPX - https://www.visugpx.com">
  <metadata>
    <name>RANDO CHAPTEUIL TESTAVOYRE 26 KM</name>
    <desc><![CDATA[RANDO CHAPTEUIL TESTAVOYRE 26KM. DEPART ARRIVEE CHALET SKI DE FOND RAFFY.MONEDEYRES.MOULIN GUERIN. ST JULIEN.SUC DE CHAPTEUIL.LE TESTAVOYRE.CHAMPCLAUSE.]]></desc>
  </metadata>
  <trk>
    <name><![CDATA[14-AVR-22 17:29:41]]></name>
    <extensions>
      <line xmlns="http://www.topografix.com/GPX/gpx_style/0/2">
        <color>0000FF</color>
        <width>4</width>
      </line>
    </extensions>
    <trkseg>
      <trkpt lat="45.07004" lon="4.12761">
        <ele>1295.03</ele>
        <time>2022-04-14T07:41:18Z</time>
      </trkpt>
      <trkpt lat="45.07002" lon="4.12761">
        <ele>1295.51</ele>
        <time>2022-04-14T07:41:20Z</time>
      </trkpt>
      <trkpt lat="45.06981" lon="4.12755">
        <ele>1298.4</ele>
        <time>2022-04-14T07:41:36Z</time>
      </trkpt>
      <trkpt lat="45.06963" lon="4.1275">
        <ele>1299.84</ele>
        <time>2022-04-14T07:41:48Z</time>
      </trkpt>
      <trkpt lat="45.06943" lon="4.12749">
        <ele>1300.32</ele>
        <time>2022-04-14T07:42:02Z</time>
      </trkpt>
      <trkpt lat="45.06928" lon="4.12748">
        <ele>1300.8</ele>
        <time>2022-04-14T07:42:12Z</time>
      </trkpt>
      <trkpt lat="45.06917" lon="4.12742">
        <ele>1302.24</ele>
        <time>2022-04-14T07:42:22Z</time>
      </trkpt>
      <trkpt lat="45.06913" lon="4.1274">
        <ele>1303.69</ele>
        <time>2022-04-14T07:42:26Z</time>
      </trkpt>
      <trkpt lat="45.06901" lon="4.12741">
        <ele>1305.13</ele>
        <time>2022-04-14T07:42:35Z</time>
      </trkpt>
      <trkpt lat="45.06895" lon="4.12741">
        <ele>1304.65</ele>
        <time>2022-04-14T07:42:39Z</time>
      </trkpt>
      <trkpt lat="45.06881" lon="4.12763">
        <ele>1322.91</ele>
        <time>2022-04-14T07:42:55Z</time>
      </trkpt>
      <trkpt lat="45.06863" lon="4.12787">
        <ele>1345.5</ele>
        <time>2022-04-14T07:43:12Z</time>
      </trkpt>
      <trkpt lat="45.0685" lon="4.12847">
        <ele>1299.84</ele>
        <time>2022-04-14T07:43:30Z</time>
      </trkpt>
      <trkpt lat="45.06833" lon="4.12847">
        <ele>1298.88</ele>
        <time>2022-04-14T07:43:46Z</time>
      </trkpt>
      <trkpt lat="45.0682" lon="4.12839">
        <ele>1298.4</ele>
        <time>2022-04-14T07:44:00Z</time>
      </trkpt>
      <trkpt lat="45.06802" lon="4.1283">
        <ele>1297.92</ele>
        <time>2022-04-14T07:44:14Z</time>
      </trkpt>
      <trkpt lat="45.06801" lon="4.12829">
        <ele>1297.92</ele>
        <time>2022-04-14T07:44:15Z</time>
      </trkpt>
      <trkpt lat="45.06796" lon="4.12827">
        <ele>1297.92</ele>
        <time>2022-04-14T07:44:19Z</time>
      </trkpt>
      <trkpt lat="45.06777" lon="4.12817">
        <ele>1297.44</ele>
        <time>2022-04-14T07:44:34Z</time>
      </trkpt>
      <trkpt lat="45.06769" lon="4.12808">
        <ele>1296.96</ele>
        <time>2022-04-14T07:44:42Z</time>
      </trkpt>
      <trkpt lat="45.0676" lon="4.12808">
        <ele>1287.34</ele>
        <time>2022-04-14T07:44:50Z</time>
      </trkpt>
      <trkpt lat="45.06751" lon="4.12803">
        <ele>1282.06</ele>
        <time>2022-04-14T07:44:55Z</time>
      </trkpt>
      <trkpt lat="45.06735" lon="4.128">
        <ele>1279.17</ele>
        <time>2022-04-14T07:45:05Z</time>
      </trkpt>
      <trkpt lat="45.06713" lon="4.12795">
        <ele>1278.69</ele>
        <time>2022-04-14T07:45:20Z</time>
      </trkpt>
      <trkpt lat="45.06697" lon="4.12787">
        <ele>1280.13</ele>
        <time>2022-04-14T07:45:33Z</time>
      </trkpt>
      <trkpt lat="45.06688" lon="4.12773">
        <ele>1278.69</ele>
        <time>2022-04-14T07:45:42Z</time>
      </trkpt>
      <trkpt lat="45.06684" lon="4.12768">
        <ele>1278.21</ele>
        <time>2022-04-14T07:45:46Z</time>
      </trkpt>
      <trkpt lat="45.06673" lon="4.12748">
        <ele>1276.29</ele>
        <time>2022-04-14T07:45:59Z</time>
      </trkpt>
      <trkpt lat="45.06672" lon="4.12744">
        <ele>1276.29</ele>
        <time>2022-04-14T07:46:01Z</time>
      </trkpt>
      <trkpt lat="45.06672" lon="4.12739">
        <ele>1276.29</ele>
        <time>2022-04-14T07:46:04Z</time>
      </trkpt>
      <trkpt lat="45.06669" lon="4.12731">
        <ele>1276.77</ele>
        <time>2022-04-14T07:46:09Z</time>
      </trkpt>
      <trkpt lat="45.06665" lon="4.12724">
        <ele>1276.29</ele>
        <time>2022-04-14T07:46:13Z</time>
      </trkpt>
      <trkpt lat="45.06661" lon="4.12714">
        <ele>1275.33</ele>
        <time>2022-04-14T07:46:20Z</time>
      </trkpt>
      <trkpt lat="45.06659" lon="4.1271">
        <ele>1275.81</ele>
        <time>2022-04-14T07:46:24Z</time>
      </trkpt>
      <trkpt lat="45.06656" lon="4.12708">
        <ele>1275.81</ele>
        <time>2022-04-14T07:46:34Z</time>
      </trkpt>
      <trkpt lat="45.06646" lon="4.127">
        <ele>1276.29</ele>
        <time>2022-04-14T07:46:45Z</time>
      </trkpt>
      <trkpt lat="45.06638" lon="4.12693">
        <ele>1276.29</ele>
        <time>2022-04-14T07:46:54Z</time>
      </trkpt>
      <trkpt lat="45.06634" lon="4.12687">
        <ele>1276.29</ele>
        <time>2022-04-14T07:46:57Z</time>
      </trkpt>
      <trkpt lat="45.06631" lon="4.12681">
        <ele>1276.29</ele>
        <time>2022-04-14T07:47:00Z</time>
      </trkpt>
      <trkpt lat="45.06627" lon="4.12672">
        <ele>1275.81</ele>
        <time>2022-04-14T07:47:04Z</time>
      </trkpt>
      <trkpt lat="45.06627" lon="4.12667">
        <ele>1275.81</ele>
        <time>2022-04-14T07:47:06Z</time>
      </trkpt>
      <trkpt lat="45.06627" lon="4.12656">
        <ele>1275.81</ele>
        <time>2022-04-14T07:47:10Z</time>
      </trkpt>
      <trkpt lat="45.06627" lon="4.12651">
        <ele>1275.81</ele>
        <time>2022-04-14T07:47:12Z</time>
      </trkpt>
      <trkpt lat="45.0663" lon="4.12644">
        <ele>1275.33</ele>
        <time>2022-04-14T07:47:15Z</time>
      </trkpt>
      <trkpt lat="45.06627" lon="4.12633">
        <ele>1274.85</ele>
        <time>2022-04-14T07:47:28Z</time>
      </trkpt>
      <trkpt lat="45.06621" lon="4.12624">
        <ele>1274.85</ele>
        <time>2022-04-14T07:47:34Z</time>
      </trkpt>
      <trkpt lat="45.06616" lon="4.12613">
        <ele>1274.36</ele>
        <time>2022-04-14T07:47:40Z</time>
      </trkpt>
      <trkpt lat="45.06614" lon="4.12606">
        <ele>1273.88</ele>
        <time>2022-04-14T07:47:44Z</time>
      </trkpt>
      <trkpt lat="45.0661" lon="4.12603">
        <ele>1273.4</ele>
        <time>2022-04-14T07:47:47Z</time>
      </trkpt>
      <trkpt lat="45.06606" lon="4.12594">
        <ele>1272.92</ele>
        <time>2022-04-14T07:47:53Z</time>
      </trkpt>
      <trkpt lat="45.06604" lon="4.12585">
        <ele>1272.44</ele>
        <time>2022-04-14T07:47:58Z</time>
      </trkpt>
      <trkpt lat="45.06601" lon="4.12577">
        <ele>1272.44</ele>
        <time>2022-04-14T07:48:03Z</time>
      </trkpt>
      <trkpt lat="45.06596" lon="4.12549">
        <ele>1271.48</ele>
        <time>2022-04-14T07:48:17Z</time>
      </trkpt>
      <trkpt lat="45.06594" lon="4.12541">
        <ele>1271.48</ele>
        <time>2022-04-14T07:48:22Z</time>
      </trkpt>
      <trkpt lat="45.06591" lon="4.12536">
        <ele>1271.48</ele>
        <time>2022-04-14T07:48:25Z</time>
      </trkpt>
      <trkpt lat="45.06591" lon="4.12532">
        <ele>1271.48</ele>
        <time>2022-04-14T07:48:28Z</time>
      </trkpt>
      <trkpt lat="45.06585" lon="4.12503">
        <ele>1269.56</ele>
        <time>2022-04-14T07:48:42Z</time>
      </trkpt>
      <trkpt lat="45.06584" lon="4.12501">
        <ele>1269.08</ele>
        <time>2022-04-14T07:48:46Z</time>
      </trkpt>
      <trkpt lat="45.0658" lon="4.12489">
        <ele>1269.08</ele>
        <time>2022-04-14T07:48:57Z</time>
      </trkpt>
      <trkpt lat="45.06564" lon="4.12479">
        <ele>1269.08</ele>
        <time>2022-04-14T07:49:12Z</time>
      </trkpt>
      <trkpt lat="45.06562" lon="4.1248">
        <ele>1268.6</ele>
        <time>2022-04-14T07:49:13Z</time>
      </trkpt>
      <trkpt lat="45.06541" lon="4.12473">
        <ele>1268.12</ele>
        <time>2022-04-14T07:49:27Z</time>
      </trkpt>
      <trkpt lat="45.06538" lon="4.12472">
        <ele>1268.12</ele>
        <time>2022-04-14T07:49:29Z</time>
      </trkpt>
      <trkpt lat="45.06525" lon="4.12465">
        <ele>1267.64</ele>
        <time>2022-04-14T07:49:40Z</time>
      </trkpt>
      <trkpt lat="45.06526" lon="4.12448">
        <ele>1268.12</ele>
        <time>2022-04-14T07:49:48Z</time>
      </trkpt>
      <trkpt lat="45.06519" lon="4.1245">
        <ele>1267.64</ele>
        <time>2022-04-14T07:49:53Z</time>
      </trkpt>
      <trkpt lat="45.0651" lon="4.12435">
        <ele>1268.12</ele>
        <time>2022-04-14T07:50:03Z</time>
      </trkpt>
      <trkpt lat="45.06506" lon="4.1243">
        <ele>1268.12</ele>
        <time>2022-04-14T07:50:06Z</time>
      </trkpt>
      <trkpt lat="45.06497" lon="4.12424">
        <ele>1268.12</ele>
        <time>2022-04-14T07:50:12Z</time>
      </trkpt>
      <trkpt lat="45.06495" lon="4.12422">
        <ele>1268.12</ele>
        <time>2022-04-14T07:50:14Z</time>
      </trkpt>
      <trkpt lat="45.06491" lon="4.12416">
        <ele>1268.12</ele>
        <time>2022-04-14T07:50:20Z</time>
      </trkpt>
      <trkpt lat="45.06475" lon="4.1241">
        <ele>1268.12</ele>
        <time>2022-04-14T07:50:34Z</time>
      </trkpt>
      <trkpt lat="45.06471" lon="4.12403">
        <ele>1267.64</ele>
        <time>2022-04-14T07:50:39Z</time>
      </trkpt>
      <trkpt lat="45.06466" lon="4.12401">
        <ele>1267.64</ele>
        <time>2022-04-14T07:50:42Z</time>
      </trkpt>
      <trkpt lat="45.06464" lon="4.12389">
        <ele>1267.64</ele>
        <time>2022-04-14T07:50:48Z</time>
      </trkpt>
      <trkpt lat="45.06466" lon="4.12375">
        <ele>1267.64</ele>
        <time>2022-04-14T07:50:53Z</time>
      </trkpt>
      <trkpt lat="45.06462" lon="4.1237">
        <ele>1266.67</ele>
        <time>2022-04-14T07:51:03Z</time>
      </trkpt>
      <trkpt lat="45.0646" lon="4.12354">
        <ele>1266.67</ele>
        <time>2022-04-14T07:51:16Z</time>
      </trkpt>
      <trkpt lat="45.06457" lon="4.12342">
        <ele>1265.71</ele>
        <time>2022-04-14T07:51:27Z</time>
      </trkpt>
      <trkpt lat="45.0646" lon="4.12333">
        <ele>1265.71</ele>
        <time>2022-04-14T07:51:32Z</time>
      </trkpt>
      <trkpt lat="45.06458" lon="4.1232">
        <ele>1265.71</ele>
        <time>2022-04-14T07:51:42Z</time>
      </trkpt>
      <trkpt lat="45.06459" lon="4.12313">
        <ele>1265.23</ele>
        <time>2022-04-14T07:51:52Z</time>
      </trkpt>
      <trkpt lat="45.06449" lon="4.12305">
        <ele>1262.35</ele>
        <time>2022-04-14T07:52:04Z</time>
      </trkpt>
      <trkpt lat="45.06437" lon="4.1229">
        <ele>1263.31</ele>
        <time>2022-04-14T07:52:18Z</time>
      </trkpt>
      <trkpt lat="45.06428" lon="4.12275">
        <ele>1262.83</ele>
        <time>2022-04-14T07:52:29Z</time>
      </trkpt>
      <trkpt lat="45.06422" lon="4.12264">
        <ele>1261.87</ele>
        <time>2022-04-14T07:52:36Z</time>
      </trkpt>
      <trkpt lat="45.06414" lon="4.12248">
        <ele>1260.91</ele>
        <time>2022-04-14T07:52:49Z</time>
      </trkpt>
      <trkpt lat="45.06414" lon="4.12244">
        <ele>1260.43</ele>
        <time>2022-04-14T07:52:55Z</time>
      </trkpt>
      <trkpt lat="45.06407" lon="4.12229">
        <ele>1258.5</ele>
        <time>2022-04-14T07:53:06Z</time>
      </trkpt>
      <trkpt lat="45.06409" lon="4.12226">
        <ele>1258.02</ele>
        <time>2022-04-14T07:53:11Z</time>
      </trkpt>
      <trkpt lat="45.06407" lon="4.12215">
        <ele>1254.66</ele>
        <time>2022-04-14T07:53:22Z</time>
      </trkpt>
      <trkpt lat="45.06406" lon="4.12207">
        <ele>1252.74</ele>
        <time>2022-04-14T07:53:33Z</time>
      </trkpt>
      <trkpt lat="45.06406" lon="4.12197">
        <ele>1252.74</ele>
        <time>2022-04-14T07:53:39Z</time>
      </trkpt>
      <trkpt lat="45.06396" lon="4.12185">
        <ele>1248.89</ele>
        <time>2022-04-14T07:53:52Z</time>
      </trkpt>
      <trkpt lat="45.06391" lon="4.12178">
        <ele>1247.93</ele>
        <time>2022-04-14T07:54:01Z</time>
      </trkpt>
      <trkpt lat="45.06391" lon="4.12177">
        <ele>1247.93</ele>
        <time>2022-04-14T07:54:03Z</time>
      </trkpt>
      <trkpt lat="45.06392" lon="4.12164">
        <ele>1247.93</ele>
        <time>2022-04-14T07:54:13Z</time>
      </trkpt>
      <trkpt lat="45.06392" lon="4.12163">
        <ele>1247.93</ele>
        <time>2022-04-14T07:54:14Z</time>
      </trkpt>
      <trkpt lat="45.06391" lon="4.12157">
        <ele>1247.45</ele>
        <time>2022-04-14T07:54:19Z</time>
      </trkpt>
      <trkpt lat="45.06383" lon="4.12147">
        <ele>1244.56</ele>
        <time>2022-04-14T07:54:29Z</time>
      </trkpt>
      <trkpt lat="45.06382" lon="4.12144">
        <ele>1244.56</ele>
        <time>2022-04-14T07:54:31Z</time>
      </trkpt>
      <trkpt lat="45.06382" lon="4.12139">
        <ele>1244.08</ele>
        <time>2022-04-14T07:54:34Z</time>
      </trkpt>
      <trkpt lat="45.06382" lon="4.12126">
        <ele>1243.6</ele>
        <time>2022-04-14T07:54:44Z</time>
      </trkpt>
      <trkpt lat="45.06372" lon="4.12116">
        <ele>1241.68</ele>
        <time>2022-04-14T07:54:56Z</time>
      </trkpt>
      <trkpt lat="45.0637" lon="4.12102">
        <ele>1241.2</ele>
        <time>2022-04-14T07:55:07Z</time>
      </trkpt>
      <trkpt lat="45.06371" lon="4.121">
        <ele>1241.2</ele>
        <time>2022-04-14T07:55:08Z</time>
      </trkpt>
      <trkpt lat="45.06372" lon="4.12094">
        <ele>1240.72</ele>
        <time>2022-04-14T07:55:12Z</time>
      </trkpt>
      <trkpt lat="45.06368" lon="4.12087">
        <ele>1239.28</ele>
        <time>2022-04-14T07:55:17Z</time>
      </trkpt>
      <trkpt lat="45.06363" lon="4.12078">
        <ele>1236.39</ele>
        <time>2022-04-14T07:55:25Z</time>
      </trkpt>
      <trkpt lat="45.06365" lon="4.12068">
        <ele>1236.39</ele>
        <time>2022-04-14T07:55:32Z</time>
      </trkpt>
      <trkpt lat="45.06366" lon="4.12059">
        <ele>1235.91</ele>
        <time>2022-04-14T07:55:39Z</time>
      </trkpt>
      <trkpt lat="45.06362" lon="4.12049">
        <ele>1235.43</ele>
        <time>2022-04-14T07:55:49Z</time>
      </trkpt>
      <trkpt lat="45.0636" lon="4.12032">
        <ele>1234.95</ele>
        <time>2022-04-14T07:56:01Z</time>
      </trkpt>
      <trkpt lat="45.06359" lon="4.1203">
        <ele>1234.95</ele>
        <time>2022-04-14T07:56:03Z</time>
      </trkpt>
      <trkpt lat="45.06356" lon="4.12023">
        <ele>1235.43</ele>
        <time>2022-04-14T07:56:09Z</time>
      </trkpt>
      <trkpt lat="45.06356" lon="4.12014">
        <ele>1235.43</ele>
        <time>2022-04-14T07:56:14Z</time>
      </trkpt>
      <trkpt lat="45.06356" lon="4.11998">
        <ele>1234.95</ele>
        <time>2022-04-14T07:56:26Z</time>
      </trkpt>
      <trkpt lat="45.06356" lon="4.11995">
        <ele>1234.95</ele>
        <time>2022-04-14T07:56:30Z</time>
      </trkpt>
      <trkpt lat="45.0636" lon="4.11984">
        <ele>1233.51</ele>
        <time>2022-04-14T07:56:40Z</time>
      </trkpt>
      <trkpt lat="45.0636" lon="4.11969">
        <ele>1233.51</ele>
        <time>2022-04-14T07:56:51Z</time>
      </trkpt>
      <trkpt lat="45.0636" lon="4.11964">
        <ele>1233.51</ele>
        <time>2022-04-14T07:56:55Z</time>
      </trkpt>
      <trkpt lat="45.06367" lon="4.11953">
        <ele>1233.51</ele>
        <time>2022-04-14T07:57:04Z</time>
      </trkpt>
      <trkpt lat="45.06363" lon="4.11947">
        <ele>1233.51</ele>
        <time>2022-04-14T07:57:18Z</time>
      </trkpt>
      <trkpt lat="45.06362" lon="4.11945">
        <ele>1233.51</ele>
        <time>2022-04-14T07:57:21Z</time>
      </trkpt>
      <trkpt lat="45.06364" lon="4.11923">
        <ele>1233.99</ele>
        <time>2022-04-14T07:57:35Z</time>
      </trkpt>
      <trkpt lat="45.06359" lon="4.11921">
        <ele>1233.51</ele>
        <time>2022-04-14T07:57:37Z</time>
      </trkpt>
      <trkpt lat="45.06355" lon="4.11913">
        <ele>1233.03</ele>
        <time>2022-04-14T07:57:43Z</time>
      </trkpt>
      <trkpt lat="45.0635" lon="4.11903">
        <ele>1232.55</ele>
        <time>2022-04-14T07:57:50Z</time>
      </trkpt>
      <trkpt lat="45.06347" lon="4.11893">
        <ele>1232.07</ele>
        <time>2022-04-14T07:57:56Z</time>
      </trkpt>
      <trkpt lat="45.06343" lon="4.11886">
        <ele>1231.11</ele>
        <time>2022-04-14T07:58:02Z</time>
      </trkpt>
      <trkpt lat="45.06339" lon="4.11872">
        <ele>1231.11</ele>
        <time>2022-04-14T07:58:13Z</time>
      </trkpt>
      <trkpt lat="45.06334" lon="4.1186">
        <ele>1231.11</ele>
        <time>2022-04-14T07:58:26Z</time>
      </trkpt>
      <trkpt lat="45.06325" lon="4.11856">
        <ele>1230.62</ele>
        <time>2022-04-14T07:58:33Z</time>
      </trkpt>
      <trkpt lat="45.06317" lon="4.11854">
        <ele>1230.62</ele>
        <time>2022-04-14T07:58:37Z</time>
      </trkpt>
      <trkpt lat="45.06308" lon="4.11856">
        <ele>1231.11</ele>
        <time>2022-04-14T07:58:43Z</time>
      </trkpt>
      <trkpt lat="45.06297" lon="4.11855">
        <ele>1230.62</ele>
        <time>2022-04-14T07:58:53Z</time>
      </trkpt>
      <trkpt lat="45.06295" lon="4.11853">
        <ele>1230.62</ele>
        <time>2022-04-14T07:58:55Z</time>
      </trkpt>
      <trkpt lat="45.06287" lon="4.11838">
        <ele>1231.11</ele>
        <time>2022-04-14T07:59:05Z</time>
      </trkpt>
      <trkpt lat="45.06274" lon="4.1183">
        <ele>1231.59</ele>
        <time>2022-04-14T07:59:17Z</time>
      </trkpt>
      <trkpt lat="45.06266" lon="4.1182">
        <ele>1231.59</ele>
        <time>2022-04-14T07:59:26Z</time>
      </trkpt>
      <trkpt lat="45.06255" lon="4.11809">
        <ele>1232.55</ele>
        <time>2022-04-14T07:59:37Z</time>
      </trkpt>
      <trkpt lat="45.0625" lon="4.11803">
        <ele>1232.55</ele>
        <time>2022-04-14T07:59:42Z</time>
      </trkpt>
      <trkpt lat="45.06246" lon="4.11795">
        <ele>1233.03</ele>
        <time>2022-04-14T07:59:48Z</time>
      </trkpt>
      <trkpt lat="45.06244" lon="4.11785">
        <ele>1233.51</ele>
        <time>2022-04-14T07:59:56Z</time>
      </trkpt>
      <trkpt lat="45.06239" lon="4.11778">
        <ele>1233.51</ele>
        <time>2022-04-14T08:00:01Z</time>
      </trkpt>
      <trkpt lat="45.06234" lon="4.1177">
        <ele>1233.51</ele>
        <time>2022-04-14T08:00:06Z</time>
      </trkpt>
      <trkpt lat="45.06231" lon="4.11764">
        <ele>1233.51</ele>
        <time>2022-04-14T08:00:10Z</time>
      </trkpt>
      <trkpt lat="45.06231" lon="4.11759">
        <ele>1233.51</ele>
        <time>2022-04-14T08:00:13Z</time>
      </trkpt>
      <trkpt lat="45.06229" lon="4.1175">
        <ele>1233.51</ele>
        <time>2022-04-14T08:00:18Z</time>
      </trkpt>
      <trkpt lat="45.0623" lon="4.11743">
        <ele>1233.51</ele>
        <time>2022-04-14T08:00:22Z</time>
      </trkpt>
      <trkpt lat="45.06228" lon="4.11725">
        <ele>1233.99</ele>
        <time>2022-04-14T08:00:32Z</time>
      </trkpt>
      <trkpt lat="45.06225" lon="4.11706">
        <ele>1233.99</ele>
        <time>2022-04-14T08:00:42Z</time>
      </trkpt>
      <trkpt lat="45.06224" lon="4.11701">
        <ele>1233.99</ele>
        <time>2022-04-14T08:00:45Z</time>
      </trkpt>
      <trkpt lat="45.06223" lon="4.11692">
        <ele>1233.51</ele>
        <time>2022-04-14T08:00:50Z</time>
      </trkpt>
      <trkpt lat="45.06223" lon="4.11688">
        <ele>1233.99</ele>
        <time>2022-04-14T08:00:52Z</time>
      </trkpt>
      <trkpt lat="45.06226" lon="4.11667">
        <ele>1233.99</ele>
        <time>2022-04-14T08:01:03Z</time>
      </trkpt>
      <trkpt lat="45.06228" lon="4.11651">
        <ele>1233.99</ele>
        <time>2022-04-14T08:01:12Z</time>
      </trkpt>
      <trkpt lat="45.06229" lon="4.11631">
        <ele>1233.51</ele>
        <time>2022-04-14T08:01:23Z</time>
      </trkpt>
      <trkpt lat="45.06229" lon="4.11629">
        <ele>1233.51</ele>
        <time>2022-04-14T08:01:24Z</time>
      </trkpt>
      <trkpt lat="45.06226" lon="4.11613">
        <ele>1233.51</ele>
        <time>2022-04-14T08:01:32Z</time>
      </trkpt>
      <trkpt lat="45.06216" lon="4.11587">
        <ele>1233.03</ele>
        <time>2022-04-14T08:01:47Z</time>
      </trkpt>
      <trkpt lat="45.06206" lon="4.11562">
        <ele>1233.03</ele>
        <time>2022-04-14T08:02:02Z</time>
      </trkpt>
      <trkpt lat="45.06204" lon="4.11557">
        <ele>1233.03</ele>
        <time>2022-04-14T08:02:05Z</time>
      </trkpt>
      <trkpt lat="45.06174" lon="4.11551">
        <ele>1201.79</ele>
        <time>2022-04-14T08:02:10Z</time>
      </trkpt>
      <trkpt lat="45.06142" lon="4.11537">
        <ele>1168.14</ele>
        <time>2022-04-14T08:02:20Z</time>
      </trkpt>
      <trkpt lat="45.06142" lon="4.11531">
        <ele>1169.1</ele>
        <time>2022-04-14T08:02:23Z</time>
      </trkpt>
      <trkpt lat="45.06141" lon="4.11516">
        <ele>1171.02</ele>
        <time>2022-04-14T08:02:30Z</time>
      </trkpt>
      <trkpt lat="45.06136" lon="4.11493">
        <ele>1170.06</ele>
        <time>2022-04-14T08:02:42Z</time>
      </trkpt>
      <trkpt lat="45.0613" lon="4.11476">
        <ele>1171.5</ele>
        <time>2022-04-14T08:02:52Z</time>
      </trkpt>
      <trkpt lat="45.06128" lon="4.11467">
        <ele>1171.98</ele>
        <time>2022-04-14T08:02:57Z</time>
      </trkpt>
      <trkpt lat="45.06124" lon="4.11458">
        <ele>1170.54</ele>
        <time>2022-04-14T08:03:02Z</time>
      </trkpt>
      <trkpt lat="45.06121" lon="4.11442">
        <ele>1170.54</ele>
        <time>2022-04-14T08:03:11Z</time>
      </trkpt>
      <trkpt lat="45.06121" lon="4.11426">
        <ele>1169.58</ele>
        <time>2022-04-14T08:03:20Z</time>
      </trkpt>
      <trkpt lat="45.06122" lon="4.11415">
        <ele>1169.1</ele>
        <time>2022-04-14T08:03:26Z</time>
      </trkpt>
      <trkpt lat="45.06123" lon="4.11411">
        <ele>1169.1</ele>
        <time>2022-04-14T08:03:28Z</time>
      </trkpt>
      <trkpt lat="45.06124" lon="4.11384">
        <ele>1168.14</ele>
        <time>2022-04-14T08:03:42Z</time>
      </trkpt>
      <trkpt lat="45.06117" lon="4.11353">
        <ele>1158.53</ele>
        <time>2022-04-14T08:03:58Z</time>
      </trkpt>
      <trkpt lat="45.06115" lon="4.11333">
        <ele>1153.72</ele>
        <time>2022-04-14T08:04:08Z</time>
      </trkpt>
      <trkpt lat="45.06114" lon="4.11326">
        <ele>1153.24</ele>
        <time>2022-04-14T08:04:12Z</time>
      </trkpt>
      <trkpt lat="45.06114" lon="4.11321">
        <ele>1153.24</ele>
        <time>2022-04-14T08:04:15Z</time>
      </trkpt>
      <trkpt lat="45.06115" lon="4.11301">
        <ele>1155.64</ele>
        <time>2022-04-14T08:04:26Z</time>
      </trkpt>
      <trkpt lat="45.06115" lon="4.11298">
        <ele>1155.64</ele>
        <time>2022-04-14T08:04:28Z</time>
      </trkpt>
      <trkpt lat="45.06114" lon="4.11291">
        <ele>1155.64</ele>
        <time>2022-04-14T08:04:32Z</time>
      </trkpt>
      <trkpt lat="45.06115" lon="4.11269">
        <ele>1155.64</ele>
        <time>2022-04-14T08:04:44Z</time>
      </trkpt>
      <trkpt lat="45.06115" lon="4.11262">
        <ele>1155.64</ele>
        <time>2022-04-14T08:04:48Z</time>
      </trkpt>
      <trkpt lat="45.06116" lon="4.11244">
        <ele>1156.12</ele>
        <time>2022-04-14T08:04:56Z</time>
      </trkpt>
      <trkpt lat="45.06115" lon="4.11235">
        <ele>1156.6</ele>
        <time>2022-04-14T08:05:00Z</time>
      </trkpt>
      <trkpt lat="45.06109" lon="4.1121">
        <ele>1158.53</ele>
        <time>2022-04-14T08:05:13Z</time>
      </trkpt>
      <trkpt lat="45.06108" lon="4.11196">
        <ele>1159.97</ele>
        <time>2022-04-14T08:05:20Z</time>
      </trkpt>
      <trkpt lat="45.06106" lon="4.11178">
        <ele>1163.81</ele>
        <time>2022-04-14T08:05:29Z</time>
      </trkpt>
      <trkpt lat="45.06101" lon="4.11166">
        <ele>1166.7</ele>
        <time>2022-04-14T08:05:35Z</time>
      </trkpt>
      <trkpt lat="45.06091" lon="4.11139">
        <ele>1172.47</ele>
        <time>2022-04-14T08:05:50Z</time>
      </trkpt>
      <trkpt lat="45.06087" lon="4.11124">
        <ele>1177.75</ele>
        <time>2022-04-14T08:05:59Z</time>
      </trkpt>
      <trkpt lat="45.06083" lon="4.11118">
        <ele>1179.67</ele>
        <time>2022-04-14T08:06:03Z</time>
      </trkpt>
      <trkpt lat="45.0608" lon="4.11113">
        <ele>1179.67</ele>
        <time>2022-04-14T08:06:06Z</time>
      </trkpt>
      <trkpt lat="45.06077" lon="4.11105">
        <ele>1179.67</ele>
        <time>2022-04-14T08:06:11Z</time>
      </trkpt>
      <trkpt lat="45.06075" lon="4.11102">
        <ele>1179.67</ele>
        <time>2022-04-14T08:06:13Z</time>
      </trkpt>
      <trkpt lat="45.06065" lon="4.11088">
        <ele>1179.67</ele>
        <time>2022-04-14T08:06:23Z</time>
      </trkpt>
      <trkpt lat="45.06053" lon="4.1107">
        <ele>1176.31</ele>
        <time>2022-04-14T08:06:36Z</time>
      </trkpt>
      <trkpt lat="45.06049" lon="4.11064">
        <ele>1174.39</ele>
        <time>2022-04-14T08:06:41Z</time>
      </trkpt>
      <trkpt lat="45.06045" lon="4.1106">
        <ele>1173.91</ele>
        <time>2022-04-14T08:06:45Z</time>
      </trkpt>
      <trkpt lat="45.06041" lon="4.11054">
        <ele>1172.95</ele>
        <time>2022-04-14T08:06:49Z</time>
      </trkpt>
      <trkpt lat="45.06013" lon="4.11028">
        <ele>1167.18</ele>
        <time>2022-04-14T08:07:10Z</time>
      </trkpt>
      <trkpt lat="45.05991" lon="4.11016">
        <ele>1162.37</ele>
        <time>2022-04-14T08:07:20Z</time>
      </trkpt>
      <trkpt lat="45.05973" lon="4.10991">
        <ele>1157.08</ele>
        <time>2022-04-14T08:07:36Z</time>
      </trkpt>
      <trkpt lat="45.05958" lon="4.10973">
        <ele>1155.64</ele>
        <time>2022-04-14T08:07:50Z</time>
      </trkpt>
      <trkpt lat="45.05945" lon="4.10961">
        <ele>1154.2</ele>
        <time>2022-04-14T08:08:01Z</time>
      </trkpt>
      <trkpt lat="45.05931" lon="4.10947">
        <ele>1151.32</ele>
        <time>2022-04-14T08:08:15Z</time>
      </trkpt>
      <trkpt lat="45.05914" lon="4.10935">
        <ele>1150.35</ele>
        <time>2022-04-14T08:08:31Z</time>
      </trkpt>
      <trkpt lat="45.05875" lon="4.10927">
        <ele>1145.55</ele>
        <time>2022-04-14T08:08:49Z</time>
      </trkpt>
      <trkpt lat="45.05861" lon="4.10924">
        <ele>1144.59</ele>
        <time>2022-04-14T08:08:59Z</time>
      </trkpt>
      <trkpt lat="45.05857" lon="4.10924">
        <ele>1144.11</ele>
        <time>2022-04-14T08:09:02Z</time>
      </trkpt>
      <trkpt lat="45.0584" lon="4.1092">
        <ele>1142.18</ele>
        <time>2022-04-14T08:09:19Z</time>
      </trkpt>
      <trkpt lat="45.05821" lon="4.10923">
        <ele>1140.26</ele>
        <time>2022-04-14T08:09:33Z</time>
      </trkpt>
      <trkpt lat="45.05814" lon="4.10924">
        <ele>1139.78</ele>
        <time>2022-04-14T08:09:40Z</time>
      </trkpt>
      <trkpt lat="45.05811" lon="4.10923">
        <ele>1139.78</ele>
        <time>2022-04-14T08:09:42Z</time>
      </trkpt>
      <trkpt lat="45.05801" lon="4.10927">
        <ele>1138.82</ele>
        <time>2022-04-14T08:09:51Z</time>
      </trkpt>
      <trkpt lat="45.05789" lon="4.1093">
        <ele>1138.34</ele>
        <time>2022-04-14T08:10:00Z</time>
      </trkpt>
      <trkpt lat="45.0578" lon="4.10927">
        <ele>1137.86</ele>
        <time>2022-04-14T08:10:11Z</time>
      </trkpt>
      <trkpt lat="45.05773" lon="4.10921">
        <ele>1136.9</ele>
        <time>2022-04-14T08:10:16Z</time>
      </trkpt>
      <trkpt lat="45.05771" lon="4.10916">
        <ele>1135.94</ele>
        <time>2022-04-14T08:10:20Z</time>
      </trkpt>
      <trkpt lat="45.05769" lon="4.10911">
        <ele>1134.49</ele>
        <time>2022-04-14T08:10:25Z</time>
      </trkpt>
      <trkpt lat="45.05773" lon="4.10895">
        <ele>1133.53</ele>
        <time>2022-04-14T08:10:38Z</time>
      </trkpt>
      <trkpt lat="45.0578" lon="4.10887">
        <ele>1133.05</ele>
        <time>2022-04-14T08:10:45Z</time>
      </trkpt>
      <trkpt lat="45.05783" lon="4.10878">
        <ele>1131.61</ele>
        <time>2022-04-14T08:10:52Z</time>
      </trkpt>
      <trkpt lat="45.05786" lon="4.10875">
        <ele>1131.13</ele>
        <time>2022-04-14T08:10:55Z</time>
      </trkpt>
      <trkpt lat="45.05802" lon="4.10863">
        <ele>1115.75</ele>
        <time>2022-04-14T08:11:14Z</time>
      </trkpt>
      <trkpt lat="45.05819" lon="4.10845">
        <ele>1109.98</ele>
        <time>2022-04-14T08:11:25Z</time>
      </trkpt>
      <trkpt lat="45.05832" lon="4.10844">
        <ele>1102.77</ele>
        <time>2022-04-14T08:11:31Z</time>
      </trkpt>
      <trkpt lat="45.05859" lon="4.10834">
        <ele>1093.16</ele>
        <time>2022-04-14T08:11:48Z</time>
      </trkpt>
      <trkpt lat="45.05884" lon="4.10825">
        <ele>1088.83</ele>
        <time>2022-04-14T08:12:03Z</time>
      </trkpt>
      <trkpt lat="45.05902" lon="4.1081">
        <ele>1088.35</ele>
        <time>2022-04-14T08:12:18Z</time>
      </trkpt>
      <trkpt lat="45.05917" lon="4.10784">
        <ele>1081.14</ele>
        <time>2022-04-14T08:12:35Z</time>
      </trkpt>
      <trkpt lat="45.0592" lon="4.10768">
        <ele>1075.37</ele>
        <time>2022-04-14T08:12:48Z</time>
      </trkpt>
      <trkpt lat="45.0592" lon="4.10768">
        <ele>1075.37</ele>
        <time>2022-04-14T08:12:49Z</time>
      </trkpt>
      <trkpt lat="45.05917" lon="4.10738">
        <ele>1072.01</ele>
        <time>2022-04-14T08:13:06Z</time>
      </trkpt>
      <trkpt lat="45.05914" lon="4.10717">
        <ele>1070.08</ele>
        <time>2022-04-14T08:13:18Z</time>
      </trkpt>
      <trkpt lat="45.05914" lon="4.10704">
        <ele>1070.08</ele>
        <time>2022-04-14T08:13:25Z</time>
      </trkpt>
      <trkpt lat="45.05913" lon="4.10692">
        <ele>1071.05</ele>
        <time>2022-04-14T08:13:32Z</time>
      </trkpt>
      <trkpt lat="45.05909" lon="4.10682">
        <ele>1072.01</ele>
        <time>2022-04-14T08:13:37Z</time>
      </trkpt>
      <trkpt lat="45.05907" lon="4.1068">
        <ele>1072.01</ele>
        <time>2022-04-14T08:13:39Z</time>
      </trkpt>
      <trkpt lat="45.05902" lon="4.10678">
        <ele>1072.01</ele>
        <time>2022-04-14T08:13:43Z</time>
      </trkpt>
      <trkpt lat="45.05896" lon="4.10675">
        <ele>1070.57</ele>
        <time>2022-04-14T08:13:47Z</time>
      </trkpt>
      <trkpt lat="45.05887" lon="4.1067">
        <ele>1066.72</ele>
        <time>2022-04-14T08:14:00Z</time>
      </trkpt>
      <trkpt lat="45.05886" lon="4.10668">
        <ele>1065.76</ele>
        <time>2022-04-14T08:14:07Z</time>
      </trkpt>
      <trkpt lat="45.05884" lon="4.10662">
        <ele>1065.28</ele>
        <time>2022-04-14T08:14:11Z</time>
      </trkpt>
      <trkpt lat="45.05879" lon="4.10646">
        <ele>1065.28</ele>
        <time>2022-04-14T08:14:25Z</time>
      </trkpt>
      <trkpt lat="45.05875" lon="4.10637">
        <ele>1065.28</ele>
        <time>2022-04-14T08:14:33Z</time>
      </trkpt>
      <trkpt lat="45.05875" lon="4.10631">
        <ele>1067.68</ele>
        <time>2022-04-14T08:14:37Z</time>
      </trkpt>
      <trkpt lat="45.05865" lon="4.10622">
        <ele>1069.12</ele>
        <time>2022-04-14T08:14:47Z</time>
      </trkpt>
      <trkpt lat="45.0585" lon="4.10617">
        <ele>1068.16</ele>
        <time>2022-04-14T08:14:58Z</time>
      </trkpt>
      <trkpt lat="45.05835" lon="4.10621">
        <ele>1066.72</ele>
        <time>2022-04-14T08:15:11Z</time>
      </trkpt>
      <trkpt lat="45.0582" lon="4.10632">
        <ele>1066.72</ele>
        <time>2022-04-14T08:15:25Z</time>
      </trkpt>
      <trkpt lat="45.05802" lon="4.10649">
        <ele>1066.24</ele>
        <time>2022-04-14T08:15:40Z</time>
      </trkpt>
      <trkpt lat="45.05782" lon="4.1066">
        <ele>1064.8</ele>
        <time>2022-04-14T08:15:54Z</time>
      </trkpt>
      <trkpt lat="45.05764" lon="4.10676">
        <ele>1064.32</ele>
        <time>2022-04-14T08:16:08Z</time>
      </trkpt>
      <trkpt lat="45.05756" lon="4.10679">
        <ele>1064.32</ele>
        <time>2022-04-14T08:16:15Z</time>
      </trkpt>
      <trkpt lat="45.05745" lon="4.10682">
        <ele>1064.8</ele>
        <time>2022-04-14T08:16:24Z</time>
      </trkpt>
      <trkpt lat="45.05733" lon="4.10679">
        <ele>1063.84</ele>
        <time>2022-04-14T08:16:32Z</time>
      </trkpt>
      <trkpt lat="45.05723" lon="4.10673">
        <ele>1060.95</ele>
        <time>2022-04-14T08:16:39Z</time>
      </trkpt>
      <trkpt lat="45.05717" lon="4.10662">
        <ele>1057.11</ele>
        <time>2022-04-14T08:16:47Z</time>
      </trkpt>
      <trkpt lat="45.05717" lon="4.10655">
        <ele>1055.67</ele>
        <time>2022-04-14T08:16:51Z</time>
      </trkpt>
      <trkpt lat="45.05723" lon="4.10624">
        <ele>1049.9</ele>
        <time>2022-04-14T08:17:08Z</time>
      </trkpt>
      <trkpt lat="45.05726" lon="4.10618">
        <ele>1049.42</ele>
        <time>2022-04-14T08:17:12Z</time>
      </trkpt>
      <trkpt lat="45.05737" lon="4.10601">
        <ele>1047.49</ele>
        <time>2022-04-14T08:17:28Z</time>
      </trkpt>
      <trkpt lat="45.05733" lon="4.10592">
        <ele>1046.05</ele>
        <time>2022-04-14T08:17:35Z</time>
      </trkpt>
      <trkpt lat="45.05718" lon="4.10578">
        <ele>1043.65</ele>
        <time>2022-04-14T08:17:51Z</time>
      </trkpt>
      <trkpt lat="45.057" lon="4.10566">
        <ele>1040.28</ele>
        <time>2022-04-14T08:18:07Z</time>
      </trkpt>
      <trkpt lat="45.05678" lon="4.10555">
        <ele>1037.88</ele>
        <time>2022-04-14T08:18:24Z</time>
      </trkpt>
      <trkpt lat="45.05666" lon="4.10542">
        <ele>1032.59</ele>
        <time>2022-04-14T08:18:36Z</time>
      </trkpt>
      <trkpt lat="45.0566" lon="4.10528">
        <ele>1030.19</ele>
        <time>2022-04-14T08:18:47Z</time>
      </trkpt>
      <trkpt lat="45.05657" lon="4.10523">
        <ele>1029.23</ele>
        <time>2022-04-14T08:18:51Z</time>
      </trkpt>
      <trkpt lat="45.05654" lon="4.10515">
        <ele>1028.27</ele>
        <time>2022-04-14T08:18:55Z</time>
      </trkpt>
      <trkpt lat="45.05651" lon="4.1051">
        <ele>1027.31</ele>
        <time>2022-04-14T08:18:59Z</time>
      </trkpt>
      <trkpt lat="45.0565" lon="4.10498">
        <ele>1025.38</ele>
        <time>2022-04-14T08:19:04Z</time>
      </trkpt>
      <trkpt lat="45.05649" lon="4.10495">
        <ele>1024.9</ele>
        <time>2022-04-14T08:19:06Z</time>
      </trkpt>
      <trkpt lat="45.05641" lon="4.10462">
        <ele>1018.17</ele>
        <time>2022-04-14T08:19:23Z</time>
      </trkpt>
      <trkpt lat="45.05639" lon="4.10454">
        <ele>1016.73</ele>
        <time>2022-04-14T08:19:27Z</time>
      </trkpt>
      <trkpt lat="45.05636" lon="4.10446">
        <ele>1015.77</ele>
        <time>2022-04-14T08:19:31Z</time>
      </trkpt>
      <trkpt lat="45.05625" lon="4.10417">
        <ele>1011.93</ele>
        <time>2022-04-14T08:19:48Z</time>
      </trkpt>
      <trkpt lat="45.05616" lon="4.10389">
        <ele>1008.56</ele>
        <time>2022-04-14T08:20:03Z</time>
      </trkpt>
      <trkpt lat="45.05601" lon="4.10359">
        <ele>1005.2</ele>
        <time>2022-04-14T08:20:21Z</time>
      </trkpt>
      <trkpt lat="45.05596" lon="4.10352">
        <ele>1005.2</ele>
        <time>2022-04-14T08:20:26Z</time>
      </trkpt>
      <trkpt lat="45.05594" lon="4.1035">
        <ele>1005.2</ele>
        <time>2022-04-14T08:20:28Z</time>
      </trkpt>
      <trkpt lat="45.05578" lon="4.10328">
        <ele>1001.83</ele>
        <time>2022-04-14T08:20:44Z</time>
      </trkpt>
      <trkpt lat="45.05565" lon="4.1031">
        <ele>1000.87</ele>
        <time>2022-04-14T08:20:58Z</time>
      </trkpt>
      <trkpt lat="45.05551" lon="4.10293">
        <ele>1000.39</ele>
        <time>2022-04-14T08:21:12Z</time>
      </trkpt>
      <trkpt lat="45.05529" lon="4.10272">
        <ele>999.91</ele>
        <time>2022-04-14T08:21:31Z</time>
      </trkpt>
      <trkpt lat="45.05517" lon="4.10256">
        <ele>999.91</ele>
        <time>2022-04-14T08:21:43Z</time>
      </trkpt>
      <trkpt lat="45.05502" lon="4.10238">
        <ele>1001.35</ele>
        <time>2022-04-14T08:21:59Z</time>
      </trkpt>
      <trkpt lat="45.05497" lon="4.10225">
        <ele>999.91</ele>
        <time>2022-04-14T08:22:08Z</time>
      </trkpt>
      <trkpt lat="45.05489" lon="4.10208">
        <ele>998.95</ele>
        <time>2022-04-14T08:22:21Z</time>
      </trkpt>
      <trkpt lat="45.05482" lon="4.10193">
        <ele>1001.35</ele>
        <time>2022-04-14T08:22:34Z</time>
      </trkpt>
      <trkpt lat="45.0547" lon="4.10179">
        <ele>1000.39</ele>
        <time>2022-04-14T08:22:47Z</time>
      </trkpt>
      <trkpt lat="45.05468" lon="4.10172">
        <ele>999.91</ele>
        <time>2022-04-14T08:22:58Z</time>
      </trkpt>
      <trkpt lat="45.05466" lon="4.1017">
        <ele>999.43</ele>
        <time>2022-04-14T08:23:01Z</time>
      </trkpt>
      <trkpt lat="45.0545" lon="4.1016">
        <ele>997.99</ele>
        <time>2022-04-14T08:23:13Z</time>
      </trkpt>
      <trkpt lat="45.05439" lon="4.10152">
        <ele>999.91</ele>
        <time>2022-04-14T08:23:25Z</time>
      </trkpt>
      <trkpt lat="45.05428" lon="4.10144">
        <ele>1002.31</ele>
        <time>2022-04-14T08:23:39Z</time>
      </trkpt>
      <trkpt lat="45.05424" lon="4.10131">
        <ele>1002.79</ele>
        <time>2022-04-14T08:23:50Z</time>
      </trkpt>
      <trkpt lat="45.05418" lon="4.10116">
        <ele>1003.75</ele>
        <time>2022-04-14T08:24:02Z</time>
      </trkpt>
      <trkpt lat="45.05414" lon="4.10102">
        <ele>1005.2</ele>
        <time>2022-04-14T08:24:10Z</time>
      </trkpt>
      <trkpt lat="45.05409" lon="4.10095">
        <ele>1006.16</ele>
        <time>2022-04-14T08:24:15Z</time>
      </trkpt>
      <trkpt lat="45.05401" lon="4.10076">
        <ele>1005.68</ele>
        <time>2022-04-14T08:24:29Z</time>
      </trkpt>
      <trkpt lat="45.05394" lon="4.10052">
        <ele>1003.27</ele>
        <time>2022-04-14T08:24:40Z</time>
      </trkpt>
      <trkpt lat="45.05388" lon="4.10029">
        <ele>999.43</ele>
        <time>2022-04-14T08:24:53Z</time>
      </trkpt>
      <trkpt lat="45.0538" lon="4.09992">
        <ele>993.18</ele>
        <time>2022-04-14T08:25:07Z</time>
      </trkpt>
      <trkpt lat="45.05378" lon="4.09981">
        <ele>990.78</ele>
        <time>2022-04-14T08:25:12Z</time>
      </trkpt>
      <trkpt lat="45.05369" lon="4.09953">
        <ele>987.41</ele>
        <time>2022-04-14T08:25:27Z</time>
      </trkpt>
      <trkpt lat="45.05362" lon="4.09929">
        <ele>986.45</ele>
        <time>2022-04-14T08:25:39Z</time>
      </trkpt>
      <trkpt lat="45.05357" lon="4.09908">
        <ele>985.49</ele>
        <time>2022-04-14T08:25:51Z</time>
      </trkpt>
      <trkpt lat="45.05355" lon="4.0989">
        <ele>986.45</ele>
        <time>2022-04-14T08:26:01Z</time>
      </trkpt>
      <trkpt lat="45.05355" lon="4.09887">
        <ele>986.93</ele>
        <time>2022-04-14T08:26:03Z</time>
      </trkpt>
      <trkpt lat="45.05351" lon="4.09881">
        <ele>987.89</ele>
        <time>2022-04-14T08:26:07Z</time>
      </trkpt>
      <trkpt lat="45.05343" lon="4.09862">
        <ele>988.37</ele>
        <time>2022-04-14T08:26:23Z</time>
      </trkpt>
      <trkpt lat="45.0534" lon="4.09846">
        <ele>989.33</ele>
        <time>2022-04-14T08:26:36Z</time>
      </trkpt>
      <trkpt lat="45.05339" lon="4.09841">
        <ele>989.33</ele>
        <time>2022-04-14T08:26:39Z</time>
      </trkpt>
      <trkpt lat="45.05338" lon="4.09833">
        <ele>989.81</ele>
        <time>2022-04-14T08:26:44Z</time>
      </trkpt>
      <trkpt lat="45.05332" lon="4.09823">
        <ele>989.33</ele>
        <time>2022-04-14T08:26:50Z</time>
      </trkpt>
      <trkpt lat="45.05324" lon="4.09798">
        <ele>989.33</ele>
        <time>2022-04-14T08:27:03Z</time>
      </trkpt>
      <trkpt lat="45.05317" lon="4.09776">
        <ele>988.85</ele>
        <time>2022-04-14T08:27:15Z</time>
      </trkpt>
      <trkpt lat="45.05306" lon="4.09758">
        <ele>988.37</ele>
        <time>2022-04-14T08:27:27Z</time>
      </trkpt>
      <trkpt lat="45.05304" lon="4.09741">
        <ele>989.33</ele>
        <time>2022-04-14T08:27:39Z</time>
      </trkpt>
      <trkpt lat="45.05306" lon="4.09721">
        <ele>990.3</ele>
        <time>2022-04-14T08:27:54Z</time>
      </trkpt>
      <trkpt lat="45.05304" lon="4.09696">
        <ele>988.85</ele>
        <time>2022-04-14T08:28:08Z</time>
      </trkpt>
      <trkpt lat="45.05304" lon="4.09667">
        <ele>988.37</ele>
        <time>2022-04-14T08:28:23Z</time>
      </trkpt>
      <trkpt lat="45.05303" lon="4.09651">
        <ele>988.85</ele>
        <time>2022-04-14T08:28:36Z</time>
      </trkpt>
      <trkpt lat="45.05304" lon="4.09649">
        <ele>989.33</ele>
        <time>2022-04-14T08:28:40Z</time>
      </trkpt>
      <trkpt lat="45.05309" lon="4.09637">
        <ele>991.26</ele>
        <time>2022-04-14T08:28:52Z</time>
      </trkpt>
      <trkpt lat="45.05314" lon="4.09624">
        <ele>992.7</ele>
        <time>2022-04-14T08:29:03Z</time>
      </trkpt>
      <trkpt lat="45.05316" lon="4.09613">
        <ele>995.1</ele>
        <time>2022-04-14T08:29:15Z</time>
      </trkpt>
      <trkpt lat="45.05319" lon="4.09592">
        <ele>997.51</ele>
        <time>2022-04-14T08:29:26Z</time>
      </trkpt>
      <trkpt lat="45.05323" lon="4.09568">
        <ele>1000.39</ele>
        <time>2022-04-14T08:29:37Z</time>
      </trkpt>
      <trkpt lat="45.05323" lon="4.09557">
        <ele>999.91</ele>
        <time>2022-04-14T08:29:43Z</time>
      </trkpt>
      <trkpt lat="45.05323" lon="4.09544">
        <ele>1002.31</ele>
        <time>2022-04-14T08:29:50Z</time>
      </trkpt>
      <trkpt lat="45.05318" lon="4.0954">
        <ele>1004.72</ele>
        <time>2022-04-14T08:29:57Z</time>
      </trkpt>
      <trkpt lat="45.05307" lon="4.09527">
        <ele>1007.6</ele>
        <time>2022-04-14T08:30:13Z</time>
      </trkpt>
      <trkpt lat="45.05299" lon="4.09511">
        <ele>1006.16</ele>
        <time>2022-04-14T08:30:25Z</time>
      </trkpt>
      <trkpt lat="45.05291" lon="4.09495">
        <ele>1005.2</ele>
        <time>2022-04-14T08:30:41Z</time>
      </trkpt>
      <trkpt lat="45.05283" lon="4.09435">
        <ele>981.64</ele>
        <time>2022-04-14T08:30:58Z</time>
      </trkpt>
      <trkpt lat="45.0529" lon="4.09434">
        <ele>979.24</ele>
        <time>2022-04-14T08:31:10Z</time>
      </trkpt>
      <trkpt lat="45.05288" lon="4.09442">
        <ele>978.28</ele>
        <time>2022-04-14T08:31:24Z</time>
      </trkpt>
      <trkpt lat="45.05286" lon="4.09445">
        <ele>977.32</ele>
        <time>2022-04-14T08:31:43Z</time>
      </trkpt>
      <trkpt lat="45.05285" lon="4.09445">
        <ele>977.32</ele>
        <time>2022-04-14T08:31:45Z</time>
      </trkpt>
      <trkpt lat="45.05283" lon="4.09439">
        <ele>972.99</ele>
        <time>2022-04-14T08:31:58Z</time>
      </trkpt>
      <trkpt lat="45.0528" lon="4.09434">
        <ele>973.95</ele>
        <time>2022-04-14T08:32:10Z</time>
      </trkpt>
      <trkpt lat="45.05278" lon="4.09428">
        <ele>976.36</ele>
        <time>2022-04-14T08:32:24Z</time>
      </trkpt>
      <trkpt lat="45.05281" lon="4.0942">
        <ele>980.68</ele>
        <time>2022-04-14T08:32:37Z</time>
      </trkpt>
      <trkpt lat="45.05279" lon="4.0942">
        <ele>981.64</ele>
        <time>2022-04-14T08:33:01Z</time>
      </trkpt>
      <trkpt lat="45.05281" lon="4.09419">
        <ele>982.12</ele>
        <time>2022-04-14T08:33:18Z</time>
      </trkpt>
      <trkpt lat="45.05279" lon="4.09408">
        <ele>982.6</ele>
        <time>2022-04-14T08:33:29Z</time>
      </trkpt>
      <trkpt lat="45.05283" lon="4.09377">
        <ele>986.93</ele>
        <time>2022-04-14T08:33:42Z</time>
      </trkpt>
      <trkpt lat="45.05281" lon="4.09351">
        <ele>988.37</ele>
        <time>2022-04-14T08:33:59Z</time>
      </trkpt>
      <trkpt lat="45.05278" lon="4.09347">
        <ele>988.37</ele>
        <time>2022-04-14T08:34:02Z</time>
      </trkpt>
      <trkpt lat="45.05267" lon="4.09311">
        <ele>986.45</ele>
        <time>2022-04-14T08:34:18Z</time>
      </trkpt>
      <trkpt lat="45.05263" lon="4.09301">
        <ele>985.97</ele>
        <time>2022-04-14T08:34:26Z</time>
      </trkpt>
      <trkpt lat="45.05251" lon="4.09285">
        <ele>986.45</ele>
        <time>2022-04-14T08:34:40Z</time>
      </trkpt>
      <trkpt lat="45.05239" lon="4.09277">
        <ele>986.93</ele>
        <time>2022-04-14T08:34:51Z</time>
      </trkpt>
      <trkpt lat="45.05237" lon="4.09269">
        <ele>986.93</ele>
        <time>2022-04-14T08:34:55Z</time>
      </trkpt>
      <trkpt lat="45.05226" lon="4.09252">
        <ele>986.45</ele>
        <time>2022-04-14T08:35:06Z</time>
      </trkpt>
      <trkpt lat="45.0521" lon="4.09233">
        <ele>983.57</ele>
        <time>2022-04-14T08:35:20Z</time>
      </trkpt>
      <trkpt lat="45.05204" lon="4.09225">
        <ele>983.09</ele>
        <time>2022-04-14T08:35:26Z</time>
      </trkpt>
      <trkpt lat="45.05193" lon="4.09216">
        <ele>983.09</ele>
        <time>2022-04-14T08:35:41Z</time>
      </trkpt>
      <trkpt lat="45.05192" lon="4.09216">
        <ele>982.6</ele>
        <time>2022-04-14T08:35:43Z</time>
      </trkpt>
      <trkpt lat="45.05176" lon="4.09213">
        <ele>982.12</ele>
        <time>2022-04-14T08:35:56Z</time>
      </trkpt>
      <trkpt lat="45.05175" lon="4.09213">
        <ele>982.12</ele>
        <time>2022-04-14T08:35:59Z</time>
      </trkpt>
      <trkpt lat="45.05159" lon="4.09207">
        <ele>982.6</ele>
        <time>2022-04-14T08:36:13Z</time>
      </trkpt>
      <trkpt lat="45.05153" lon="4.09207">
        <ele>983.09</ele>
        <time>2022-04-14T08:36:18Z</time>
      </trkpt>
      <trkpt lat="45.05144" lon="4.0921">
        <ele>983.57</ele>
        <time>2022-04-14T08:36:27Z</time>
      </trkpt>
      <trkpt lat="45.05132" lon="4.09213">
        <ele>983.09</ele>
        <time>2022-04-14T08:36:36Z</time>
      </trkpt>
      <trkpt lat="45.0512" lon="4.09214">
        <ele>982.6</ele>
        <time>2022-04-14T08:36:50Z</time>
      </trkpt>
      <trkpt lat="45.05102" lon="4.09215">
        <ele>983.09</ele>
        <time>2022-04-14T08:37:05Z</time>
      </trkpt>
      <trkpt lat="45.05087" lon="4.09201">
        <ele>983.09</ele>
        <time>2022-04-14T08:37:20Z</time>
      </trkpt>
      <trkpt lat="45.05083" lon="4.09196">
        <ele>983.57</ele>
        <time>2022-04-14T08:37:23Z</time>
      </trkpt>
      <trkpt lat="45.05071" lon="4.09174">
        <ele>983.57</ele>
        <time>2022-04-14T08:37:38Z</time>
      </trkpt>
      <trkpt lat="45.0506" lon="4.0915">
        <ele>983.09</ele>
        <time>2022-04-14T08:37:54Z</time>
      </trkpt>
      <trkpt lat="45.05055" lon="4.09142">
        <ele>983.09</ele>
        <time>2022-04-14T08:38:09Z</time>
      </trkpt>
      <trkpt lat="45.05045" lon="4.09133">
        <ele>983.57</ele>
        <time>2022-04-14T08:38:21Z</time>
      </trkpt>
      <trkpt lat="45.05043" lon="4.09125">
        <ele>984.05</ele>
        <time>2022-04-14T08:38:25Z</time>
      </trkpt>
      <trkpt lat="45.05037" lon="4.09108">
        <ele>984.53</ele>
        <time>2022-04-14T08:38:34Z</time>
      </trkpt>
      <trkpt lat="45.05034" lon="4.09104">
        <ele>985.01</ele>
        <time>2022-04-14T08:38:36Z</time>
      </trkpt>
      <trkpt lat="45.05025" lon="4.09086">
        <ele>985.01</ele>
        <time>2022-04-14T08:38:43Z</time>
      </trkpt>
      <trkpt lat="45.05024" lon="4.09078">
        <ele>985.01</ele>
        <time>2022-04-14T08:38:46Z</time>
      </trkpt>
      <trkpt lat="45.05002" lon="4.09023">
        <ele>966.74</ele>
        <time>2022-04-14T08:38:56Z</time>
      </trkpt>
      <trkpt lat="45.04997" lon="4.09001">
        <ele>964.34</ele>
        <time>2022-04-14T08:39:09Z</time>
      </trkpt>
      <trkpt lat="45.04992" lon="4.08983">
        <ele>967.7</ele>
        <time>2022-04-14T08:39:24Z</time>
      </trkpt>
      <trkpt lat="45.04989" lon="4.08982">
        <ele>967.7</ele>
        <time>2022-04-14T08:39:26Z</time>
      </trkpt>
      <trkpt lat="45.04975" lon="4.08965">
        <ele>968.18</ele>
        <time>2022-04-14T08:39:41Z</time>
      </trkpt>
      <trkpt lat="45.04972" lon="4.08939">
        <ele>972.03</ele>
        <time>2022-04-14T08:39:55Z</time>
      </trkpt>
      <trkpt lat="45.04968" lon="4.0891">
        <ele>970.11</ele>
        <time>2022-04-14T08:40:12Z</time>
      </trkpt>
      <trkpt lat="45.04966" lon="4.08906">
        <ele>969.63</ele>
        <time>2022-04-14T08:40:14Z</time>
      </trkpt>
      <trkpt lat="45.04967" lon="4.08895">
        <ele>969.15</ele>
        <time>2022-04-14T08:40:19Z</time>
      </trkpt>
      <trkpt lat="45.04967" lon="4.08863">
        <ele>969.15</ele>
        <time>2022-04-14T08:40:35Z</time>
      </trkpt>
      <trkpt lat="45.04961" lon="4.08843">
        <ele>974.43</ele>
        <time>2022-04-14T08:40:48Z</time>
      </trkpt>
      <trkpt lat="45.04958" lon="4.0882">
        <ele>975.39</ele>
        <time>2022-04-14T08:41:02Z</time>
      </trkpt>
      <trkpt lat="45.04958" lon="4.08799">
        <ele>978.76</ele>
        <time>2022-04-14T08:41:16Z</time>
      </trkpt>
      <trkpt lat="45.04961" lon="4.08788">
        <ele>979.24</ele>
        <time>2022-04-14T08:41:30Z</time>
      </trkpt>
      <trkpt lat="45.04961" lon="4.08784">
        <ele>979.72</ele>
        <time>2022-04-14T08:41:33Z</time>
      </trkpt>
      <trkpt lat="45.04966" lon="4.0876">
        <ele>982.6</ele>
        <time>2022-04-14T08:41:48Z</time>
      </trkpt>
      <trkpt lat="45.04973" lon="4.08726">
        <ele>983.57</ele>
        <time>2022-04-14T08:42:05Z</time>
      </trkpt>
      <trkpt lat="45.04975" lon="4.08714">
        <ele>983.09</ele>
        <time>2022-04-14T08:42:25Z</time>
      </trkpt>
      <trkpt lat="45.04976" lon="4.0871">
        <ele>982.12</ele>
        <time>2022-04-14T08:42:40Z</time>
      </trkpt>
      <trkpt lat="45.04977" lon="4.08708">
        <ele>981.64</ele>
        <time>2022-04-14T08:42:57Z</time>
      </trkpt>
      <trkpt lat="45.04977" lon="4.08707">
        <ele>981.64</ele>
        <time>2022-04-14T08:43:14Z</time>
      </trkpt>
      <trkpt lat="45.04977" lon="4.08706">
        <ele>981.64</ele>
        <time>2022-04-14T08:43:37Z</time>
      </trkpt>
      <trkpt lat="45.04978" lon="4.08705">
        <ele>981.16</ele>
        <time>2022-04-14T08:43:51Z</time>
      </trkpt>
      <trkpt lat="45.04979" lon="4.08706">
        <ele>981.64</ele>
        <time>2022-04-14T08:44:14Z</time>
      </trkpt>
      <trkpt lat="45.04979" lon="4.08706">
        <ele>982.12</ele>
        <time>2022-04-14T08:44:34Z</time>
      </trkpt>
      <trkpt lat="45.0498" lon="4.08706">
        <ele>982.6</ele>
        <time>2022-04-14T08:44:49Z</time>
      </trkpt>
      <trkpt lat="45.04973" lon="4.0869">
        <ele>982.6</ele>
        <time>2022-04-14T08:45:03Z</time>
      </trkpt>
      <trkpt lat="45.04969" lon="4.08667">
        <ele>982.12</ele>
        <time>2022-04-14T08:45:17Z</time>
      </trkpt>
      <trkpt lat="45.04967" lon="4.0864">
        <ele>982.6</ele>
        <time>2022-04-14T08:45:33Z</time>
      </trkpt>
      <trkpt lat="45.04964" lon="4.08633">
        <ele>983.09</ele>
        <time>2022-04-14T08:45:38Z</time>
      </trkpt>
      <trkpt lat="45.04956" lon="4.08616">
        <ele>985.01</ele>
        <time>2022-04-14T08:45:53Z</time>
      </trkpt>
      <trkpt lat="45.04952" lon="4.08608">
        <ele>984.53</ele>
        <time>2022-04-14T08:45:58Z</time>
      </trkpt>
      <trkpt lat="45.04945" lon="4.08582">
        <ele>985.01</ele>
        <time>2022-04-14T08:46:15Z</time>
      </trkpt>
      <trkpt lat="45.04936" lon="4.08553">
        <ele>985.49</ele>
        <time>2022-04-14T08:46:31Z</time>
      </trkpt>
      <trkpt lat="45.04932" lon="4.0853">
        <ele>986.93</ele>
        <time>2022-04-14T08:46:45Z</time>
      </trkpt>
      <trkpt lat="45.04929" lon="4.08504">
        <ele>988.85</ele>
        <time>2022-04-14T08:46:58Z</time>
      </trkpt>
      <trkpt lat="45.04925" lon="4.08489">
        <ele>988.37</ele>
        <time>2022-04-14T08:47:05Z</time>
      </trkpt>
      <trkpt lat="45.04922" lon="4.08473">
        <ele>990.3</ele>
        <time>2022-04-14T08:47:17Z</time>
      </trkpt>
      <trkpt lat="45.04916" lon="4.08452">
        <ele>992.7</ele>
        <time>2022-04-14T08:47:34Z</time>
      </trkpt>
      <trkpt lat="45.04915" lon="4.08432">
        <ele>994.14</ele>
        <time>2022-04-14T08:47:47Z</time>
      </trkpt>
      <trkpt lat="45.04912" lon="4.08417">
        <ele>997.99</ele>
        <time>2022-04-14T08:47:59Z</time>
      </trkpt>
      <trkpt lat="45.0491" lon="4.08403">
        <ele>1000.39</ele>
        <time>2022-04-14T08:48:12Z</time>
      </trkpt>
      <trkpt lat="45.04905" lon="4.08385">
        <ele>1002.31</ele>
        <time>2022-04-14T08:48:25Z</time>
      </trkpt>
      <trkpt lat="45.04905" lon="4.0837">
        <ele>1003.27</ele>
        <time>2022-04-14T08:48:36Z</time>
      </trkpt>
      <trkpt lat="45.049" lon="4.08351">
        <ele>1003.27</ele>
        <time>2022-04-14T08:48:50Z</time>
      </trkpt>
      <trkpt lat="45.04892" lon="4.08337">
        <ele>1002.79</ele>
        <time>2022-04-14T08:49:02Z</time>
      </trkpt>
      <trkpt lat="45.04887" lon="4.08328">
        <ele>1001.83</ele>
        <time>2022-04-14T08:49:12Z</time>
      </trkpt>
      <trkpt lat="45.04872" lon="4.08313">
        <ele>1001.83</ele>
        <time>2022-04-14T08:49:25Z</time>
      </trkpt>
      <trkpt lat="45.04863" lon="4.08301">
        <ele>998.95</ele>
        <time>2022-04-14T08:49:33Z</time>
      </trkpt>
      <trkpt lat="45.04846" lon="4.08278">
        <ele>994.14</ele>
        <time>2022-04-14T08:49:49Z</time>
      </trkpt>
      <trkpt lat="45.04842" lon="4.08271">
        <ele>993.18</ele>
        <time>2022-04-14T08:49:55Z</time>
      </trkpt>
      <trkpt lat="45.04828" lon="4.08249">
        <ele>987.89</ele>
        <time>2022-04-14T08:50:11Z</time>
      </trkpt>
      <trkpt lat="45.04816" lon="4.08231">
        <ele>985.01</ele>
        <time>2022-04-14T08:50:25Z</time>
      </trkpt>
      <trkpt lat="45.04808" lon="4.08218">
        <ele>985.01</ele>
        <time>2022-04-14T08:50:39Z</time>
      </trkpt>
      <trkpt lat="45.04801" lon="4.08208">
        <ele>986.45</ele>
        <time>2022-04-14T08:50:48Z</time>
      </trkpt>
      <trkpt lat="45.04791" lon="4.08189">
        <ele>986.93</ele>
        <time>2022-04-14T08:51:02Z</time>
      </trkpt>
      <trkpt lat="45.04784" lon="4.08181">
        <ele>987.41</ele>
        <time>2022-04-14T08:51:13Z</time>
      </trkpt>
      <trkpt lat="45.04778" lon="4.08172">
        <ele>985.97</ele>
        <time>2022-04-14T08:51:19Z</time>
      </trkpt>
      <trkpt lat="45.04773" lon="4.08163">
        <ele>985.49</ele>
        <time>2022-04-14T08:51:23Z</time>
      </trkpt>
      <trkpt lat="45.04764" lon="4.08144">
        <ele>983.09</ele>
        <time>2022-04-14T08:51:37Z</time>
      </trkpt>
      <trkpt lat="45.04756" lon="4.08132">
        <ele>981.64</ele>
        <time>2022-04-14T08:51:48Z</time>
      </trkpt>
      <trkpt lat="45.04745" lon="4.08109">
        <ele>978.28</ele>
        <time>2022-04-14T08:52:02Z</time>
      </trkpt>
      <trkpt lat="45.04736" lon="4.08094">
        <ele>975.88</ele>
        <time>2022-04-14T08:52:12Z</time>
      </trkpt>
      <trkpt lat="45.04735" lon="4.08088">
        <ele>974.91</ele>
        <time>2022-04-14T08:52:15Z</time>
      </trkpt>
      <trkpt lat="45.04726" lon="4.08073">
        <ele>972.03</ele>
        <time>2022-04-14T08:52:31Z</time>
      </trkpt>
      <trkpt lat="45.0472" lon="4.08059">
        <ele>969.15</ele>
        <time>2022-04-14T08:52:41Z</time>
      </trkpt>
      <trkpt lat="45.04713" lon="4.08037">
        <ele>967.7</ele>
        <time>2022-04-14T08:52:56Z</time>
      </trkpt>
      <trkpt lat="45.04708" lon="4.08026">
        <ele>965.3</ele>
        <time>2022-04-14T08:53:15Z</time>
      </trkpt>
      <trkpt lat="45.04702" lon="4.08011">
        <ele>967.22</ele>
        <time>2022-04-14T08:53:28Z</time>
      </trkpt>
      <trkpt lat="45.04697" lon="4.07985">
        <ele>969.15</ele>
        <time>2022-04-14T08:53:42Z</time>
      </trkpt>
      <trkpt lat="45.04692" lon="4.07958">
        <ele>965.78</ele>
        <time>2022-04-14T08:53:56Z</time>
      </trkpt>
      <trkpt lat="45.0469" lon="4.07923">
        <ele>967.22</ele>
        <time>2022-04-14T08:54:13Z</time>
      </trkpt>
      <trkpt lat="45.04692" lon="4.07896">
        <ele>967.7</ele>
        <time>2022-04-14T08:54:26Z</time>
      </trkpt>
      <trkpt lat="45.04692" lon="4.07868">
        <ele>970.59</ele>
        <time>2022-04-14T08:54:42Z</time>
      </trkpt>
      <trkpt lat="45.047" lon="4.07844">
        <ele>970.59</ele>
        <time>2022-04-14T08:54:57Z</time>
      </trkpt>
      <trkpt lat="45.04702" lon="4.07826">
        <ele>968.67</ele>
        <time>2022-04-14T08:55:08Z</time>
      </trkpt>
      <trkpt lat="45.04698" lon="4.07814">
        <ele>966.26</ele>
        <time>2022-04-14T08:55:17Z</time>
      </trkpt>
      <trkpt lat="45.04695" lon="4.07809">
        <ele>964.82</ele>
        <time>2022-04-14T08:55:22Z</time>
      </trkpt>
      <trkpt lat="45.04684" lon="4.07788">
        <ele>957.61</ele>
        <time>2022-04-14T08:55:37Z</time>
      </trkpt>
      <trkpt lat="45.04679" lon="4.07777">
        <ele>954.25</ele>
        <time>2022-04-14T08:55:44Z</time>
      </trkpt>
      <trkpt lat="45.04676" lon="4.07762">
        <ele>951.84</ele>
        <time>2022-04-14T08:55:52Z</time>
      </trkpt>
      <trkpt lat="45.04673" lon="4.07743">
        <ele>948.96</ele>
        <time>2022-04-14T08:56:02Z</time>
      </trkpt>
      <trkpt lat="45.04674" lon="4.07725">
        <ele>947.52</ele>
        <time>2022-04-14T08:56:12Z</time>
      </trkpt>
      <trkpt lat="45.04677" lon="4.0771">
        <ele>947.04</ele>
        <time>2022-04-14T08:56:23Z</time>
      </trkpt>
      <trkpt lat="45.04668" lon="4.07709">
        <ele>948</ele>
        <time>2022-04-14T08:56:36Z</time>
      </trkpt>
      <trkpt lat="45.0466" lon="4.07705">
        <ele>947.04</ele>
        <time>2022-04-14T08:56:47Z</time>
      </trkpt>
      <trkpt lat="45.04646" lon="4.07696">
        <ele>943.19</ele>
        <time>2022-04-14T08:57:00Z</time>
      </trkpt>
      <trkpt lat="45.04644" lon="4.07695">
        <ele>942.23</ele>
        <time>2022-04-14T08:57:02Z</time>
      </trkpt>
      <trkpt lat="45.04631" lon="4.07689">
        <ele>939.35</ele>
        <time>2022-04-14T08:57:13Z</time>
      </trkpt>
      <trkpt lat="45.04625" lon="4.07673">
        <ele>938.86</ele>
        <time>2022-04-14T08:57:27Z</time>
      </trkpt>
      <trkpt lat="45.04619" lon="4.07659">
        <ele>936.46</ele>
        <time>2022-04-14T08:57:38Z</time>
      </trkpt>
      <trkpt lat="45.04616" lon="4.07654">
        <ele>935.02</ele>
        <time>2022-04-14T08:57:43Z</time>
      </trkpt>
      <trkpt lat="45.04611" lon="4.07642">
        <ele>933.1</ele>
        <time>2022-04-14T08:57:48Z</time>
      </trkpt>
      <trkpt lat="45.04597" lon="4.07621">
        <ele>926.85</ele>
        <time>2022-04-14T08:57:59Z</time>
      </trkpt>
      <trkpt lat="45.04589" lon="4.07604">
        <ele>919.16</ele>
        <time>2022-04-14T08:58:13Z</time>
      </trkpt>
      <trkpt lat="45.04582" lon="4.0758">
        <ele>912.43</ele>
        <time>2022-04-14T08:58:28Z</time>
      </trkpt>
      <trkpt lat="45.04581" lon="4.0757">
        <ele>909.06</ele>
        <time>2022-04-14T08:58:35Z</time>
      </trkpt>
      <trkpt lat="45.0458" lon="4.07557">
        <ele>908.1</ele>
        <time>2022-04-14T08:58:42Z</time>
      </trkpt>
      <trkpt lat="45.04578" lon="4.07523">
        <ele>907.14</ele>
        <time>2022-04-14T08:59:00Z</time>
      </trkpt>
      <trkpt lat="45.04572" lon="4.0749">
        <ele>906.66</ele>
        <time>2022-04-14T08:59:17Z</time>
      </trkpt>
      <trkpt lat="45.04571" lon="4.07467">
        <ele>904.26</ele>
        <time>2022-04-14T08:59:29Z</time>
      </trkpt>
      <trkpt lat="45.04571" lon="4.07461">
        <ele>902.82</ele>
        <time>2022-04-14T08:59:34Z</time>
      </trkpt>
      <trkpt lat="45.04564" lon="4.07461">
        <ele>901.85</ele>
        <time>2022-04-14T08:59:41Z</time>
      </trkpt>
      <trkpt lat="45.04541" lon="4.07465">
        <ele>898.49</ele>
        <time>2022-04-14T08:59:59Z</time>
      </trkpt>
      <trkpt lat="45.04522" lon="4.07466">
        <ele>896.09</ele>
        <time>2022-04-14T09:00:15Z</time>
      </trkpt>
      <trkpt lat="45.04506" lon="4.07491">
        <ele>893.2</ele>
        <time>2022-04-14T09:00:34Z</time>
      </trkpt>
      <trkpt lat="45.04495" lon="4.07523">
        <ele>891.28</ele>
        <time>2022-04-14T09:00:52Z</time>
      </trkpt>
      <trkpt lat="45.04481" lon="4.07546">
        <ele>887.43</ele>
        <time>2022-04-14T09:01:10Z</time>
      </trkpt>
      <trkpt lat="45.04466" lon="4.07561">
        <ele>884.07</ele>
        <time>2022-04-14T09:01:25Z</time>
      </trkpt>
      <trkpt lat="45.04465" lon="4.07564">
        <ele>883.11</ele>
        <time>2022-04-14T09:01:37Z</time>
      </trkpt>
      <trkpt lat="45.04463" lon="4.07567">
        <ele>884.07</ele>
        <time>2022-04-14T09:01:48Z</time>
      </trkpt>
      <trkpt lat="45.04464" lon="4.07568">
        <ele>883.11</ele>
        <time>2022-04-14T09:02:05Z</time>
      </trkpt>
      <trkpt lat="45.04462" lon="4.07573">
        <ele>883.11</ele>
        <time>2022-04-14T09:02:13Z</time>
      </trkpt>
      <trkpt lat="45.04461" lon="4.07576">
        <ele>882.63</ele>
        <time>2022-04-14T09:02:15Z</time>
      </trkpt>
      <trkpt lat="45.04455" lon="4.07593">
        <ele>882.63</ele>
        <time>2022-04-14T09:02:31Z</time>
      </trkpt>
      <trkpt lat="45.04455" lon="4.07595">
        <ele>882.15</ele>
        <time>2022-04-14T09:02:33Z</time>
      </trkpt>
      <trkpt lat="45.04453" lon="4.07605">
        <ele>881.19</ele>
        <time>2022-04-14T09:02:48Z</time>
      </trkpt>
      <trkpt lat="45.04453" lon="4.07621">
        <ele>880.71</ele>
        <time>2022-04-14T09:03:02Z</time>
      </trkpt>
      <trkpt lat="45.04452" lon="4.07629">
        <ele>880.22</ele>
        <time>2022-04-14T09:03:17Z</time>
      </trkpt>
      <trkpt lat="45.04443" lon="4.07652">
        <ele>877.82</ele>
        <time>2022-04-14T09:03:33Z</time>
      </trkpt>
      <trkpt lat="45.04436" lon="4.07667">
        <ele>875.9</ele>
        <time>2022-04-14T09:03:43Z</time>
      </trkpt>
      <trkpt lat="45.04422" lon="4.07689">
        <ele>873.98</ele>
        <time>2022-04-14T09:03:58Z</time>
      </trkpt>
      <trkpt lat="45.04405" lon="4.07711">
        <ele>871.57</ele>
        <time>2022-04-14T09:04:13Z</time>
      </trkpt>
      <trkpt lat="45.04398" lon="4.07745">
        <ele>868.21</ele>
        <time>2022-04-14T09:04:30Z</time>
      </trkpt>
      <trkpt lat="45.04392" lon="4.07763">
        <ele>866.29</ele>
        <time>2022-04-14T09:04:41Z</time>
      </trkpt>
      <trkpt lat="45.0439" lon="4.07766">
        <ele>865.32</ele>
        <time>2022-04-14T09:04:45Z</time>
      </trkpt>
      <trkpt lat="45.04384" lon="4.07788">
        <ele>862.92</ele>
        <time>2022-04-14T09:04:59Z</time>
      </trkpt>
      <trkpt lat="45.04379" lon="4.07794">
        <ele>862.92</ele>
        <time>2022-04-14T09:05:04Z</time>
      </trkpt>
      <trkpt lat="45.04372" lon="4.07801">
        <ele>862.92</ele>
        <time>2022-04-14T09:05:19Z</time>
      </trkpt>
      <trkpt lat="45.04361" lon="4.0781">
        <ele>867.73</ele>
        <time>2022-04-14T09:05:28Z</time>
      </trkpt>
      <trkpt lat="45.04343" lon="4.07802">
        <ele>868.69</ele>
        <time>2022-04-14T09:05:42Z</time>
      </trkpt>
      <trkpt lat="45.04332" lon="4.07783">
        <ele>869.17</ele>
        <time>2022-04-14T09:05:56Z</time>
      </trkpt>
      <trkpt lat="45.04326" lon="4.07771">
        <ele>871.09</ele>
        <time>2022-04-14T09:06:08Z</time>
      </trkpt>
      <trkpt lat="45.04325" lon="4.07769">
        <ele>871.09</ele>
        <time>2022-04-14T09:06:09Z</time>
      </trkpt>
      <trkpt lat="45.04322" lon="4.07747">
        <ele>871.57</ele>
        <time>2022-04-14T09:06:24Z</time>
      </trkpt>
      <trkpt lat="45.04324" lon="4.0774">
        <ele>872.05</ele>
        <time>2022-04-14T09:06:30Z</time>
      </trkpt>
      <trkpt lat="45.04317" lon="4.07705">
        <ele>870.61</ele>
        <time>2022-04-14T09:06:46Z</time>
      </trkpt>
      <trkpt lat="45.04314" lon="4.0769">
        <ele>871.09</ele>
        <time>2022-04-14T09:06:54Z</time>
      </trkpt>
      <trkpt lat="45.04309" lon="4.07655">
        <ele>873.98</ele>
        <time>2022-04-14T09:07:12Z</time>
      </trkpt>
      <trkpt lat="45.04312" lon="4.07624">
        <ele>873.01</ele>
        <time>2022-04-14T09:07:30Z</time>
      </trkpt>
      <trkpt lat="45.04313" lon="4.07603">
        <ele>869.17</ele>
        <time>2022-04-14T09:07:42Z</time>
      </trkpt>
      <trkpt lat="45.04315" lon="4.07588">
        <ele>869.17</ele>
        <time>2022-04-14T09:07:53Z</time>
      </trkpt>
      <trkpt lat="45.04315" lon="4.07587">
        <ele>869.17</ele>
        <time>2022-04-14T09:07:54Z</time>
      </trkpt>
      <trkpt lat="45.04315" lon="4.0757">
        <ele>865.8</ele>
        <time>2022-04-14T09:08:08Z</time>
      </trkpt>
      <trkpt lat="45.04312" lon="4.0754">
        <ele>863.88</ele>
        <time>2022-04-14T09:08:24Z</time>
      </trkpt>
      <trkpt lat="45.04309" lon="4.07522">
        <ele>862.44</ele>
        <time>2022-04-14T09:08:34Z</time>
      </trkpt>
      <trkpt lat="45.04306" lon="4.07512">
        <ele>861.96</ele>
        <time>2022-04-14T09:08:41Z</time>
      </trkpt>
      <trkpt lat="45.04298" lon="4.07483">
        <ele>860.52</ele>
        <time>2022-04-14T09:08:58Z</time>
      </trkpt>
      <trkpt lat="45.04288" lon="4.07458">
        <ele>859.56</ele>
        <time>2022-04-14T09:09:13Z</time>
      </trkpt>
      <trkpt lat="45.04274" lon="4.07438">
        <ele>859.08</ele>
        <time>2022-04-14T09:09:29Z</time>
      </trkpt>
      <trkpt lat="45.04256" lon="4.07426">
        <ele>857.63</ele>
        <time>2022-04-14T09:09:44Z</time>
      </trkpt>
      <trkpt lat="45.04236" lon="4.07405">
        <ele>855.23</ele>
        <time>2022-04-14T09:10:01Z</time>
      </trkpt>
      <trkpt lat="45.04228" lon="4.07376">
        <ele>853.79</ele>
        <time>2022-04-14T09:10:16Z</time>
      </trkpt>
      <trkpt lat="45.04222" lon="4.0734">
        <ele>853.31</ele>
        <time>2022-04-14T09:10:35Z</time>
      </trkpt>
      <trkpt lat="45.04214" lon="4.07308">
        <ele>853.31</ele>
        <time>2022-04-14T09:10:52Z</time>
      </trkpt>
      <trkpt lat="45.04204" lon="4.07278">
        <ele>851.38</ele>
        <time>2022-04-14T09:11:08Z</time>
      </trkpt>
      <trkpt lat="45.04191" lon="4.07247">
        <ele>850.9</ele>
        <time>2022-04-14T09:11:26Z</time>
      </trkpt>
      <trkpt lat="45.04174" lon="4.0722">
        <ele>849.94</ele>
        <time>2022-04-14T09:11:45Z</time>
      </trkpt>
      <trkpt lat="45.04149" lon="4.072">
        <ele>849.46</ele>
        <time>2022-04-14T09:12:04Z</time>
      </trkpt>
      <trkpt lat="45.04124" lon="4.07181">
        <ele>848.98</ele>
        <time>2022-04-14T09:12:24Z</time>
      </trkpt>
      <trkpt lat="45.041" lon="4.07159">
        <ele>848.5</ele>
        <time>2022-04-14T09:12:44Z</time>
      </trkpt>
      <trkpt lat="45.04088" lon="4.07144">
        <ele>849.46</ele>
        <time>2022-04-14T09:12:57Z</time>
      </trkpt>
      <trkpt lat="45.04069" lon="4.0712">
        <ele>849.94</ele>
        <time>2022-04-14T09:13:14Z</time>
      </trkpt>
      <trkpt lat="45.04047" lon="4.07097">
        <ele>849.46</ele>
        <time>2022-04-14T09:13:33Z</time>
      </trkpt>
      <trkpt lat="45.04025" lon="4.0708">
        <ele>848.02</ele>
        <time>2022-04-14T09:13:50Z</time>
      </trkpt>
      <trkpt lat="45.04024" lon="4.07079">
        <ele>848.02</ele>
        <time>2022-04-14T09:13:51Z</time>
      </trkpt>
      <trkpt lat="45.04002" lon="4.07069">
        <ele>845.62</ele>
        <time>2022-04-14T09:14:08Z</time>
      </trkpt>
      <trkpt lat="45.03977" lon="4.07062">
        <ele>845.14</ele>
        <time>2022-04-14T09:14:26Z</time>
      </trkpt>
      <trkpt lat="45.03962" lon="4.07055">
        <ele>844.66</ele>
        <time>2022-04-14T09:14:41Z</time>
      </trkpt>
      <trkpt lat="45.03959" lon="4.07054">
        <ele>844.18</ele>
        <time>2022-04-14T09:14:55Z</time>
      </trkpt>
      <trkpt lat="45.03957" lon="4.07054">
        <ele>844.66</ele>
        <time>2022-04-14T09:15:17Z</time>
      </trkpt>
      <trkpt lat="45.03956" lon="4.07053">
        <ele>843.69</ele>
        <time>2022-04-14T09:15:32Z</time>
      </trkpt>
      <trkpt lat="45.03945" lon="4.07038">
        <ele>842.73</ele>
        <time>2022-04-14T09:15:46Z</time>
      </trkpt>
      <trkpt lat="45.03931" lon="4.0701">
        <ele>841.77</ele>
        <time>2022-04-14T09:16:04Z</time>
      </trkpt>
      <trkpt lat="45.03916" lon="4.06979">
        <ele>839.85</ele>
        <time>2022-04-14T09:16:23Z</time>
      </trkpt>
      <trkpt lat="45.039" lon="4.06963">
        <ele>839.37</ele>
        <time>2022-04-14T09:16:37Z</time>
      </trkpt>
      <trkpt lat="45.03893" lon="4.06955">
        <ele>839.37</ele>
        <time>2022-04-14T09:16:44Z</time>
      </trkpt>
      <trkpt lat="45.0388" lon="4.06925">
        <ele>839.85</ele>
        <time>2022-04-14T09:17:02Z</time>
      </trkpt>
      <trkpt lat="45.03871" lon="4.06894">
        <ele>841.29</ele>
        <time>2022-04-14T09:17:18Z</time>
      </trkpt>
      <trkpt lat="45.03862" lon="4.06861">
        <ele>842.25</ele>
        <time>2022-04-14T09:17:36Z</time>
      </trkpt>
      <trkpt lat="45.03856" lon="4.06821">
        <ele>842.25</ele>
        <time>2022-04-14T09:17:56Z</time>
      </trkpt>
      <trkpt lat="45.03852" lon="4.06788">
        <ele>840.33</ele>
        <time>2022-04-14T09:18:13Z</time>
      </trkpt>
      <trkpt lat="45.03847" lon="4.06752">
        <ele>839.37</ele>
        <time>2022-04-14T09:18:31Z</time>
      </trkpt>
      <trkpt lat="45.03834" lon="4.06718">
        <ele>840.81</ele>
        <time>2022-04-14T09:18:50Z</time>
      </trkpt>
      <trkpt lat="45.03819" lon="4.06694">
        <ele>840.33</ele>
        <time>2022-04-14T09:19:07Z</time>
      </trkpt>
      <trkpt lat="45.03799" lon="4.06664">
        <ele>841.77</ele>
        <time>2022-04-14T09:19:28Z</time>
      </trkpt>
      <trkpt lat="45.03773" lon="4.06632">
        <ele>841.29</ele>
        <time>2022-04-14T09:19:50Z</time>
      </trkpt>
      <trkpt lat="45.03748" lon="4.066">
        <ele>840.33</ele>
        <time>2022-04-14T09:20:13Z</time>
      </trkpt>
      <trkpt lat="45.03736" lon="4.06573">
        <ele>838.89</ele>
        <time>2022-04-14T09:20:30Z</time>
      </trkpt>
      <trkpt lat="45.03723" lon="4.06538">
        <ele>839.85</ele>
        <time>2022-04-14T09:20:48Z</time>
      </trkpt>
      <trkpt lat="45.03711" lon="4.06506">
        <ele>838.41</ele>
        <time>2022-04-14T09:21:06Z</time>
      </trkpt>
      <trkpt lat="45.03696" lon="4.0647">
        <ele>836</ele>
        <time>2022-04-14T09:21:27Z</time>
      </trkpt>
      <trkpt lat="45.03686" lon="4.06428">
        <ele>835.52</ele>
        <time>2022-04-14T09:21:49Z</time>
      </trkpt>
      <trkpt lat="45.0368" lon="4.06396">
        <ele>834.56</ele>
        <time>2022-04-14T09:22:06Z</time>
      </trkpt>
      <trkpt lat="45.03673" lon="4.06363">
        <ele>836</ele>
        <time>2022-04-14T09:22:23Z</time>
      </trkpt>
      <trkpt lat="45.03668" lon="4.06353">
        <ele>835.52</ele>
        <time>2022-04-14T09:22:29Z</time>
      </trkpt>
      <trkpt lat="45.03661" lon="4.06334">
        <ele>834.56</ele>
        <time>2022-04-14T09:22:41Z</time>
      </trkpt>
      <trkpt lat="45.03641" lon="4.06299">
        <ele>831.2</ele>
        <time>2022-04-14T09:23:04Z</time>
      </trkpt>
      <trkpt lat="45.03627" lon="4.06276">
        <ele>827.35</ele>
        <time>2022-04-14T09:23:19Z</time>
      </trkpt>
      <trkpt lat="45.03623" lon="4.06267">
        <ele>825.91</ele>
        <time>2022-04-14T09:23:24Z</time>
      </trkpt>
      <trkpt lat="45.03611" lon="4.06246">
        <ele>827.35</ele>
        <time>2022-04-14T09:23:39Z</time>
      </trkpt>
      <trkpt lat="45.03617" lon="4.06231">
        <ele>822.55</ele>
        <time>2022-04-14T09:23:50Z</time>
      </trkpt>
      <trkpt lat="45.03626" lon="4.06207">
        <ele>822.55</ele>
        <time>2022-04-14T09:24:05Z</time>
      </trkpt>
      <trkpt lat="45.03627" lon="4.06174">
        <ele>823.03</ele>
        <time>2022-04-14T09:24:21Z</time>
      </trkpt>
      <trkpt lat="45.0361" lon="4.0615">
        <ele>826.87</ele>
        <time>2022-04-14T09:24:38Z</time>
      </trkpt>
      <trkpt lat="45.03598" lon="4.0613">
        <ele>831.68</ele>
        <time>2022-04-14T09:24:53Z</time>
      </trkpt>
      <trkpt lat="45.03587" lon="4.06111">
        <ele>833.6</ele>
        <time>2022-04-14T09:25:07Z</time>
      </trkpt>
      <trkpt lat="45.03576" lon="4.06104">
        <ele>833.12</ele>
        <time>2022-04-14T09:25:21Z</time>
      </trkpt>
      <trkpt lat="45.03567" lon="4.06104">
        <ele>833.6</ele>
        <time>2022-04-14T09:25:29Z</time>
      </trkpt>
      <trkpt lat="45.03556" lon="4.06109">
        <ele>834.56</ele>
        <time>2022-04-14T09:25:41Z</time>
      </trkpt>
      <trkpt lat="45.03544" lon="4.06124">
        <ele>836</ele>
        <time>2022-04-14T09:25:53Z</time>
      </trkpt>
      <trkpt lat="45.03525" lon="4.0614">
        <ele>836.48</ele>
        <time>2022-04-14T09:26:07Z</time>
      </trkpt>
      <trkpt lat="45.03507" lon="4.06155">
        <ele>837.45</ele>
        <time>2022-04-14T09:26:21Z</time>
      </trkpt>
      <trkpt lat="45.03501" lon="4.06158">
        <ele>837.45</ele>
        <time>2022-04-14T09:26:26Z</time>
      </trkpt>
      <trkpt lat="45.03485" lon="4.06165">
        <ele>838.89</ele>
        <time>2022-04-14T09:26:39Z</time>
      </trkpt>
      <trkpt lat="45.03474" lon="4.06181">
        <ele>839.85</ele>
        <time>2022-04-14T09:26:52Z</time>
      </trkpt>
      <trkpt lat="45.03465" lon="4.06202">
        <ele>842.25</ele>
        <time>2022-04-14T09:27:07Z</time>
      </trkpt>
      <trkpt lat="45.03458" lon="4.06217">
        <ele>847.54</ele>
        <time>2022-04-14T09:27:20Z</time>
      </trkpt>
      <trkpt lat="45.03449" lon="4.06227">
        <ele>850.9</ele>
        <time>2022-04-14T09:27:35Z</time>
      </trkpt>
      <trkpt lat="45.03435" lon="4.06234">
        <ele>853.79</ele>
        <time>2022-04-14T09:27:48Z</time>
      </trkpt>
      <trkpt lat="45.03429" lon="4.06238">
        <ele>855.23</ele>
        <time>2022-04-14T09:28:04Z</time>
      </trkpt>
      <trkpt lat="45.03426" lon="4.06239">
        <ele>855.71</ele>
        <time>2022-04-14T09:28:17Z</time>
      </trkpt>
      <trkpt lat="45.03421" lon="4.06241">
        <ele>856.19</ele>
        <time>2022-04-14T09:28:36Z</time>
      </trkpt>
      <trkpt lat="45.03419" lon="4.06242">
        <ele>856.19</ele>
        <time>2022-04-14T09:28:53Z</time>
      </trkpt>
      <trkpt lat="45.03418" lon="4.06243">
        <ele>856.19</ele>
        <time>2022-04-14T09:29:11Z</time>
      </trkpt>
      <trkpt lat="45.03418" lon="4.06244">
        <ele>856.67</ele>
        <time>2022-04-14T09:29:36Z</time>
      </trkpt>
      <trkpt lat="45.03416" lon="4.06246">
        <ele>856.67</ele>
        <time>2022-04-14T09:29:52Z</time>
      </trkpt>
      <trkpt lat="45.0341" lon="4.06251">
        <ele>854.75</ele>
        <time>2022-04-14T09:30:04Z</time>
      </trkpt>
      <trkpt lat="45.03408" lon="4.06257">
        <ele>855.71</ele>
        <time>2022-04-14T09:30:15Z</time>
      </trkpt>
      <trkpt lat="45.03411" lon="4.06268">
        <ele>863.4</ele>
        <time>2022-04-14T09:30:29Z</time>
      </trkpt>
      <trkpt lat="45.03417" lon="4.06281">
        <ele>869.65</ele>
        <time>2022-04-14T09:30:44Z</time>
      </trkpt>
      <trkpt lat="45.0342" lon="4.06299">
        <ele>871.09</ele>
        <time>2022-04-14T09:31:00Z</time>
      </trkpt>
      <trkpt lat="45.03422" lon="4.06299">
        <ele>870.13</ele>
        <time>2022-04-14T09:31:15Z</time>
      </trkpt>
      <trkpt lat="45.03421" lon="4.06301">
        <ele>868.69</ele>
        <time>2022-04-14T09:31:30Z</time>
      </trkpt>
      <trkpt lat="45.03421" lon="4.063">
        <ele>867.25</ele>
        <time>2022-04-14T09:31:51Z</time>
      </trkpt>
      <trkpt lat="45.03421" lon="4.06299">
        <ele>864.84</ele>
        <time>2022-04-14T09:32:16Z</time>
      </trkpt>
      <trkpt lat="45.03421" lon="4.063">
        <ele>864.36</ele>
        <time>2022-04-14T09:32:38Z</time>
      </trkpt>
      <trkpt lat="45.03421" lon="4.063">
        <ele>863.4</ele>
        <time>2022-04-14T09:32:55Z</time>
      </trkpt>
      <trkpt lat="45.03421" lon="4.063">
        <ele>862.92</ele>
        <time>2022-04-14T09:33:16Z</time>
      </trkpt>
      <trkpt lat="45.03421" lon="4.06299">
        <ele>862.44</ele>
        <time>2022-04-14T09:33:41Z</time>
      </trkpt>
      <trkpt lat="45.03421" lon="4.06299">
        <ele>862.44</ele>
        <time>2022-04-14T09:34:10Z</time>
      </trkpt>
      <trkpt lat="45.03422" lon="4.06297">
        <ele>862.44</ele>
        <time>2022-04-14T09:34:23Z</time>
      </trkpt>
      <trkpt lat="45.03421" lon="4.06297">
        <ele>862.92</ele>
        <time>2022-04-14T09:34:42Z</time>
      </trkpt>
      <trkpt lat="45.03421" lon="4.06297">
        <ele>862.92</ele>
        <time>2022-04-14T09:34:56Z</time>
      </trkpt>
      <trkpt lat="45.03421" lon="4.06298">
        <ele>862.92</ele>
        <time>2022-04-14T09:35:23Z</time>
      </trkpt>
      <trkpt lat="45.03421" lon="4.06292">
        <ele>863.4</ele>
        <time>2022-04-14T09:35:36Z</time>
      </trkpt>
      <trkpt lat="45.03418" lon="4.06285">
        <ele>863.4</ele>
        <time>2022-04-14T09:35:49Z</time>
      </trkpt>
      <trkpt lat="45.03417" lon="4.06285">
        <ele>862.44</ele>
        <time>2022-04-14T09:36:06Z</time>
      </trkpt>
      <trkpt lat="45.03417" lon="4.06283">
        <ele>862.44</ele>
        <time>2022-04-14T09:36:22Z</time>
      </trkpt>
      <trkpt lat="45.03413" lon="4.06275">
        <ele>859.56</ele>
        <time>2022-04-14T09:36:37Z</time>
      </trkpt>
      <trkpt lat="45.03412" lon="4.06272">
        <ele>858.59</ele>
        <time>2022-04-14T09:36:39Z</time>
      </trkpt>
      <trkpt lat="45.03409" lon="4.06253">
        <ele>856.67</ele>
        <time>2022-04-14T09:36:54Z</time>
      </trkpt>
      <trkpt lat="45.03406" lon="4.06247">
        <ele>857.63</ele>
        <time>2022-04-14T09:37:06Z</time>
      </trkpt>
      <trkpt lat="45.03406" lon="4.06246">
        <ele>857.63</ele>
        <time>2022-04-14T09:37:08Z</time>
      </trkpt>
      <trkpt lat="45.03387" lon="4.06246">
        <ele>855.23</ele>
        <time>2022-04-14T09:37:23Z</time>
      </trkpt>
      <trkpt lat="45.03381" lon="4.06243">
        <ele>856.19</ele>
        <time>2022-04-14T09:37:35Z</time>
      </trkpt>
      <trkpt lat="45.03378" lon="4.06248">
        <ele>856.19</ele>
        <time>2022-04-14T09:37:42Z</time>
      </trkpt>
      <trkpt lat="45.03373" lon="4.06269">
        <ele>854.75</ele>
        <time>2022-04-14T09:37:56Z</time>
      </trkpt>
      <trkpt lat="45.03369" lon="4.06276">
        <ele>855.23</ele>
        <time>2022-04-14T09:38:03Z</time>
      </trkpt>
      <trkpt lat="45.03356" lon="4.06279">
        <ele>857.63</ele>
        <time>2022-04-14T09:38:16Z</time>
      </trkpt>
      <trkpt lat="45.03341" lon="4.06281">
        <ele>857.63</ele>
        <time>2022-04-14T09:38:29Z</time>
      </trkpt>
      <trkpt lat="45.0334" lon="4.06291">
        <ele>856.19</ele>
        <time>2022-04-14T09:38:40Z</time>
      </trkpt>
      <trkpt lat="45.03336" lon="4.06293">
        <ele>855.71</ele>
        <time>2022-04-14T09:38:48Z</time>
      </trkpt>
      <trkpt lat="45.03327" lon="4.06307">
        <ele>851.87</ele>
        <time>2022-04-14T09:39:00Z</time>
      </trkpt>
      <trkpt lat="45.03324" lon="4.06313">
        <ele>848.5</ele>
        <time>2022-04-14T09:39:06Z</time>
      </trkpt>
      <trkpt lat="45.0332" lon="4.06316">
        <ele>848.02</ele>
        <time>2022-04-14T09:39:10Z</time>
      </trkpt>
      <trkpt lat="45.03304" lon="4.06325">
        <ele>843.21</ele>
        <time>2022-04-14T09:39:24Z</time>
      </trkpt>
      <trkpt lat="45.03309" lon="4.06327">
        <ele>843.69</ele>
        <time>2022-04-14T09:39:30Z</time>
      </trkpt>
      <trkpt lat="45.03329" lon="4.0633">
        <ele>843.69</ele>
        <time>2022-04-14T09:39:47Z</time>
      </trkpt>
      <trkpt lat="45.0333" lon="4.06331">
        <ele>843.69</ele>
        <time>2022-04-14T09:39:48Z</time>
      </trkpt>
      <trkpt lat="45.03337" lon="4.06331">
        <ele>843.69</ele>
        <time>2022-04-14T09:39:53Z</time>
      </trkpt>
      <trkpt lat="45.03361" lon="4.06331">
        <ele>841.77</ele>
        <time>2022-04-14T09:40:11Z</time>
      </trkpt>
      <trkpt lat="45.03384" lon="4.06332">
        <ele>840.81</ele>
        <time>2022-04-14T09:40:28Z</time>
      </trkpt>
      <trkpt lat="45.0339" lon="4.06334">
        <ele>840.33</ele>
        <time>2022-04-14T09:40:33Z</time>
      </trkpt>
      <trkpt lat="45.03407" lon="4.06352">
        <ele>838.41</ele>
        <time>2022-04-14T09:40:50Z</time>
      </trkpt>
      <trkpt lat="45.03426" lon="4.06371">
        <ele>834.56</ele>
        <time>2022-04-14T09:41:08Z</time>
      </trkpt>
      <trkpt lat="45.03448" lon="4.06377">
        <ele>834.56</ele>
        <time>2022-04-14T09:41:25Z</time>
      </trkpt>
      <trkpt lat="45.03466" lon="4.06365">
        <ele>834.08</ele>
        <time>2022-04-14T09:41:40Z</time>
      </trkpt>
      <trkpt lat="45.03478" lon="4.0634">
        <ele>836.96</ele>
        <time>2022-04-14T09:41:55Z</time>
      </trkpt>
      <trkpt lat="45.03479" lon="4.06338">
        <ele>836.48</ele>
        <time>2022-04-14T09:41:56Z</time>
      </trkpt>
      <trkpt lat="45.03489" lon="4.06311">
        <ele>838.41</ele>
        <time>2022-04-14T09:42:13Z</time>
      </trkpt>
      <trkpt lat="45.03507" lon="4.06301">
        <ele>835.04</ele>
        <time>2022-04-14T09:42:28Z</time>
      </trkpt>
      <trkpt lat="45.03532" lon="4.06302">
        <ele>831.68</ele>
        <time>2022-04-14T09:42:46Z</time>
      </trkpt>
      <trkpt lat="45.03559" lon="4.06302">
        <ele>829.27</ele>
        <time>2022-04-14T09:43:05Z</time>
      </trkpt>
      <trkpt lat="45.0358" lon="4.06296">
        <ele>830.72</ele>
        <time>2022-04-14T09:43:22Z</time>
      </trkpt>
      <trkpt lat="45.03586" lon="4.06297">
        <ele>830.72</ele>
        <time>2022-04-14T09:43:26Z</time>
      </trkpt>
      <trkpt lat="45.0359" lon="4.06307">
        <ele>834.08</ele>
        <time>2022-04-14T09:43:32Z</time>
      </trkpt>
      <trkpt lat="45.03601" lon="4.06337">
        <ele>836</ele>
        <time>2022-04-14T09:43:50Z</time>
      </trkpt>
      <trkpt lat="45.0361" lon="4.06363">
        <ele>836.96</ele>
        <time>2022-04-14T09:44:05Z</time>
      </trkpt>
      <trkpt lat="45.03615" lon="4.06389">
        <ele>837.93</ele>
        <time>2022-04-14T09:44:20Z</time>
      </trkpt>
      <trkpt lat="45.03615" lon="4.06391">
        <ele>837.93</ele>
        <time>2022-04-14T09:44:21Z</time>
      </trkpt>
      <trkpt lat="45.03615" lon="4.06401">
        <ele>838.41</ele>
        <time>2022-04-14T09:44:27Z</time>
      </trkpt>
      <trkpt lat="45.03616" lon="4.0641">
        <ele>838.41</ele>
        <time>2022-04-14T09:44:32Z</time>
      </trkpt>
      <trkpt lat="45.03619" lon="4.06416">
        <ele>838.41</ele>
        <time>2022-04-14T09:44:36Z</time>
      </trkpt>
      <trkpt lat="45.03622" lon="4.06435">
        <ele>839.37</ele>
        <time>2022-04-14T09:44:47Z</time>
      </trkpt>
      <trkpt lat="45.03629" lon="4.0647">
        <ele>840.81</ele>
        <time>2022-04-14T09:45:06Z</time>
      </trkpt>
      <trkpt lat="45.03629" lon="4.06478">
        <ele>840.81</ele>
        <time>2022-04-14T09:45:10Z</time>
      </trkpt>
      <trkpt lat="45.03634" lon="4.06507">
        <ele>840.81</ele>
        <time>2022-04-14T09:45:26Z</time>
      </trkpt>
      <trkpt lat="45.03632" lon="4.06528">
        <ele>842.73</ele>
        <time>2022-04-14T09:45:37Z</time>
      </trkpt>
      <trkpt lat="45.03632" lon="4.06533">
        <ele>842.73</ele>
        <time>2022-04-14T09:45:40Z</time>
      </trkpt>
      <trkpt lat="45.03634" lon="4.06552">
        <ele>843.21</ele>
        <time>2022-04-14T09:45:50Z</time>
      </trkpt>
      <trkpt lat="45.03641" lon="4.06594">
        <ele>844.18</ele>
        <time>2022-04-14T09:46:10Z</time>
      </trkpt>
      <trkpt lat="45.03645" lon="4.06613">
        <ele>844.18</ele>
        <time>2022-04-14T09:46:20Z</time>
      </trkpt>
      <trkpt lat="45.03645" lon="4.06623">
        <ele>845.14</ele>
        <time>2022-04-14T09:46:25Z</time>
      </trkpt>
      <trkpt lat="45.03642" lon="4.06654">
        <ele>846.58</ele>
        <time>2022-04-14T09:46:41Z</time>
      </trkpt>
      <trkpt lat="45.03642" lon="4.06684">
        <ele>849.94</ele>
        <time>2022-04-14T09:46:56Z</time>
      </trkpt>
      <trkpt lat="45.03643" lon="4.06689">
        <ele>850.42</ele>
        <time>2022-04-14T09:46:59Z</time>
      </trkpt>
      <trkpt lat="45.03643" lon="4.06698">
        <ele>851.38</ele>
        <time>2022-04-14T09:47:04Z</time>
      </trkpt>
      <trkpt lat="45.03643" lon="4.06723">
        <ele>853.31</ele>
        <time>2022-04-14T09:47:19Z</time>
      </trkpt>
      <trkpt lat="45.03643" lon="4.06752">
        <ele>856.19</ele>
        <time>2022-04-14T09:47:34Z</time>
      </trkpt>
      <trkpt lat="45.03644" lon="4.06763">
        <ele>856.19</ele>
        <time>2022-04-14T09:47:40Z</time>
      </trkpt>
      <trkpt lat="45.03645" lon="4.06796">
        <ele>858.59</ele>
        <time>2022-04-14T09:47:58Z</time>
      </trkpt>
      <trkpt lat="45.03644" lon="4.06823">
        <ele>861</ele>
        <time>2022-04-14T09:48:13Z</time>
      </trkpt>
      <trkpt lat="45.03643" lon="4.06834">
        <ele>861.96</ele>
        <time>2022-04-14T09:48:20Z</time>
      </trkpt>
      <trkpt lat="45.03623" lon="4.06836">
        <ele>864.84</ele>
        <time>2022-04-14T09:48:38Z</time>
      </trkpt>
      <trkpt lat="45.03616" lon="4.06837">
        <ele>865.8</ele>
        <time>2022-04-14T09:48:44Z</time>
      </trkpt>
      <trkpt lat="45.03605" lon="4.06841">
        <ele>867.73</ele>
        <time>2022-04-14T09:48:55Z</time>
      </trkpt>
      <trkpt lat="45.03589" lon="4.06842">
        <ele>871.57</ele>
        <time>2022-04-14T09:49:11Z</time>
      </trkpt>
      <trkpt lat="45.03572" lon="4.06842">
        <ele>873.98</ele>
        <time>2022-04-14T09:49:25Z</time>
      </trkpt>
      <trkpt lat="45.03553" lon="4.06847">
        <ele>876.86</ele>
        <time>2022-04-14T09:49:40Z</time>
      </trkpt>
      <trkpt lat="45.03547" lon="4.06853">
        <ele>878.3</ele>
        <time>2022-04-14T09:49:47Z</time>
      </trkpt>
      <trkpt lat="45.03545" lon="4.06859">
        <ele>879.74</ele>
        <time>2022-04-14T09:49:52Z</time>
      </trkpt>
      <trkpt lat="45.03535" lon="4.06875">
        <ele>881.67</ele>
        <time>2022-04-14T09:50:05Z</time>
      </trkpt>
      <trkpt lat="45.03529" lon="4.06881">
        <ele>882.15</ele>
        <time>2022-04-14T09:50:10Z</time>
      </trkpt>
      <trkpt lat="45.03509" lon="4.06894">
        <ele>880.71</ele>
        <time>2022-04-14T09:50:27Z</time>
      </trkpt>
      <trkpt lat="45.03496" lon="4.06907">
        <ele>881.67</ele>
        <time>2022-04-14T09:50:40Z</time>
      </trkpt>
      <trkpt lat="45.03489" lon="4.06915">
        <ele>883.11</ele>
        <time>2022-04-14T09:50:46Z</time>
      </trkpt>
      <trkpt lat="45.03473" lon="4.06933">
        <ele>883.11</ele>
        <time>2022-04-14T09:51:02Z</time>
      </trkpt>
      <trkpt lat="45.03454" lon="4.06953">
        <ele>886.47</ele>
        <time>2022-04-14T09:51:18Z</time>
      </trkpt>
      <trkpt lat="45.03438" lon="4.06965">
        <ele>891.28</ele>
        <time>2022-04-14T09:51:34Z</time>
      </trkpt>
      <trkpt lat="45.03433" lon="4.06974">
        <ele>893.2</ele>
        <time>2022-04-14T09:51:47Z</time>
      </trkpt>
      <trkpt lat="45.03422" lon="4.06988">
        <ele>896.09</ele>
        <time>2022-04-14T09:52:00Z</time>
      </trkpt>
      <trkpt lat="45.03419" lon="4.06992">
        <ele>897.05</ele>
        <time>2022-04-14T09:52:03Z</time>
      </trkpt>
      <trkpt lat="45.03413" lon="4.07001">
        <ele>898.49</ele>
        <time>2022-04-14T09:52:12Z</time>
      </trkpt>
      <trkpt lat="45.03404" lon="4.07022">
        <ele>901.85</ele>
        <time>2022-04-14T09:52:26Z</time>
      </trkpt>
      <trkpt lat="45.03399" lon="4.07039">
        <ele>902.82</ele>
        <time>2022-04-14T09:52:36Z</time>
      </trkpt>
      <trkpt lat="45.03397" lon="4.07062">
        <ele>905.22</ele>
        <time>2022-04-14T09:52:49Z</time>
      </trkpt>
      <trkpt lat="45.03397" lon="4.07067">
        <ele>905.7</ele>
        <time>2022-04-14T09:52:52Z</time>
      </trkpt>
      <trkpt lat="45.03398" lon="4.07074">
        <ele>906.18</ele>
        <time>2022-04-14T09:52:56Z</time>
      </trkpt>
      <trkpt lat="45.03399" lon="4.07079">
        <ele>906.18</ele>
        <time>2022-04-14T09:52:59Z</time>
      </trkpt>
      <trkpt lat="45.034" lon="4.07094">
        <ele>905.22</ele>
        <time>2022-04-14T09:53:07Z</time>
      </trkpt>
      <trkpt lat="45.03397" lon="4.0711">
        <ele>903.3</ele>
        <time>2022-04-14T09:53:16Z</time>
      </trkpt>
      <trkpt lat="45.03394" lon="4.07138">
        <ele>903.78</ele>
        <time>2022-04-14T09:53:31Z</time>
      </trkpt>
      <trkpt lat="45.03393" lon="4.07147">
        <ele>905.22</ele>
        <time>2022-04-14T09:53:36Z</time>
      </trkpt>
      <trkpt lat="45.03393" lon="4.07162">
        <ele>908.58</ele>
        <time>2022-04-14T09:53:44Z</time>
      </trkpt>
      <trkpt lat="45.03396" lon="4.07172">
        <ele>909.06</ele>
        <time>2022-04-14T09:53:49Z</time>
      </trkpt>
      <trkpt lat="45.03408" lon="4.07196">
        <ele>907.14</ele>
        <time>2022-04-14T09:54:03Z</time>
      </trkpt>
      <trkpt lat="45.03422" lon="4.07219">
        <ele>907.62</ele>
        <time>2022-04-14T09:54:18Z</time>
      </trkpt>
      <trkpt lat="45.03428" lon="4.07228">
        <ele>907.62</ele>
        <time>2022-04-14T09:54:25Z</time>
      </trkpt>
      <trkpt lat="45.03442" lon="4.07244">
        <ele>907.14</ele>
        <time>2022-04-14T09:54:38Z</time>
      </trkpt>
      <trkpt lat="45.03443" lon="4.07252">
        <ele>904.26</ele>
        <time>2022-04-14T09:54:51Z</time>
      </trkpt>
      <trkpt lat="45.03444" lon="4.07255">
        <ele>904.26</ele>
        <time>2022-04-14T09:55:06Z</time>
      </trkpt>
      <trkpt lat="45.03444" lon="4.07257">
        <ele>904.26</ele>
        <time>2022-04-14T09:55:21Z</time>
      </trkpt>
      <trkpt lat="45.03443" lon="4.07259">
        <ele>904.26</ele>
        <time>2022-04-14T09:55:36Z</time>
      </trkpt>
      <trkpt lat="45.03431" lon="4.07263">
        <ele>907.14</ele>
        <time>2022-04-14T09:55:50Z</time>
      </trkpt>
      <trkpt lat="45.03411" lon="4.07265">
        <ele>908.58</ele>
        <time>2022-04-14T09:56:06Z</time>
      </trkpt>
      <trkpt lat="45.03394" lon="4.07267">
        <ele>911.47</ele>
        <time>2022-04-14T09:56:20Z</time>
      </trkpt>
      <trkpt lat="45.03379" lon="4.0727">
        <ele>912.91</ele>
        <time>2022-04-14T09:56:34Z</time>
      </trkpt>
      <trkpt lat="45.03361" lon="4.0728">
        <ele>913.39</ele>
        <time>2022-04-14T09:56:49Z</time>
      </trkpt>
      <trkpt lat="45.03343" lon="4.07292">
        <ele>914.35</ele>
        <time>2022-04-14T09:57:03Z</time>
      </trkpt>
      <trkpt lat="45.0333" lon="4.07302">
        <ele>914.83</ele>
        <time>2022-04-14T09:57:16Z</time>
      </trkpt>
      <trkpt lat="45.03319" lon="4.07311">
        <ele>915.31</ele>
        <time>2022-04-14T09:57:30Z</time>
      </trkpt>
      <trkpt lat="45.03305" lon="4.07326">
        <ele>915.31</ele>
        <time>2022-04-14T09:57:46Z</time>
      </trkpt>
      <trkpt lat="45.03294" lon="4.07346">
        <ele>917.72</ele>
        <time>2022-04-14T09:57:59Z</time>
      </trkpt>
      <trkpt lat="45.03293" lon="4.07347">
        <ele>917.72</ele>
        <time>2022-04-14T09:58:00Z</time>
      </trkpt>
      <trkpt lat="45.03279" lon="4.07353">
        <ele>918.2</ele>
        <time>2022-04-14T09:58:15Z</time>
      </trkpt>
      <trkpt lat="45.03262" lon="4.07354">
        <ele>920.12</ele>
        <time>2022-04-14T09:58:29Z</time>
      </trkpt>
      <trkpt lat="45.03255" lon="4.07356">
        <ele>921.08</ele>
        <time>2022-04-14T09:58:36Z</time>
      </trkpt>
      <trkpt lat="45.03246" lon="4.07371">
        <ele>921.56</ele>
        <time>2022-04-14T09:58:48Z</time>
      </trkpt>
      <trkpt lat="45.03246" lon="4.07373">
        <ele>922.04</ele>
        <time>2022-04-14T09:58:49Z</time>
      </trkpt>
      <trkpt lat="45.03239" lon="4.07393">
        <ele>923.96</ele>
        <time>2022-04-14T09:59:03Z</time>
      </trkpt>
      <trkpt lat="45.03236" lon="4.07413">
        <ele>926.85</ele>
        <time>2022-04-14T09:59:16Z</time>
      </trkpt>
      <trkpt lat="45.03225" lon="4.07436">
        <ele>926.85</ele>
        <time>2022-04-14T09:59:34Z</time>
      </trkpt>
      <trkpt lat="45.03212" lon="4.07453">
        <ele>927.33</ele>
        <time>2022-04-14T09:59:49Z</time>
      </trkpt>
      <trkpt lat="45.03198" lon="4.07468">
        <ele>927.81</ele>
        <time>2022-04-14T10:00:04Z</time>
      </trkpt>
      <trkpt lat="45.03181" lon="4.07474">
        <ele>929.25</ele>
        <time>2022-04-14T10:00:20Z</time>
      </trkpt>
      <trkpt lat="45.03165" lon="4.07475">
        <ele>930.21</ele>
        <time>2022-04-14T10:00:32Z</time>
      </trkpt>
      <trkpt lat="45.0316" lon="4.07474">
        <ele>929.73</ele>
        <time>2022-04-14T10:00:36Z</time>
      </trkpt>
      <trkpt lat="45.03156" lon="4.07475">
        <ele>929.25</ele>
        <time>2022-04-14T10:00:40Z</time>
      </trkpt>
      <trkpt lat="45.03148" lon="4.07482">
        <ele>929.25</ele>
        <time>2022-04-14T10:00:47Z</time>
      </trkpt>
      <trkpt lat="45.03141" lon="4.07498">
        <ele>932.14</ele>
        <time>2022-04-14T10:00:58Z</time>
      </trkpt>
      <trkpt lat="45.03141" lon="4.07513">
        <ele>934.06</ele>
        <time>2022-04-14T10:01:08Z</time>
      </trkpt>
      <trkpt lat="45.03126" lon="4.07517">
        <ele>934.54</ele>
        <time>2022-04-14T10:01:23Z</time>
      </trkpt>
      <trkpt lat="45.03121" lon="4.07514">
        <ele>934.06</ele>
        <time>2022-04-14T10:01:27Z</time>
      </trkpt>
      <trkpt lat="45.03115" lon="4.07509">
        <ele>935.02</ele>
        <time>2022-04-14T10:01:43Z</time>
      </trkpt>
      <trkpt lat="45.03115" lon="4.07509">
        <ele>935.02</ele>
        <time>2022-04-14T10:01:45Z</time>
      </trkpt>
      <trkpt lat="45.03109" lon="4.07505">
        <ele>936.46</ele>
        <time>2022-04-14T10:01:52Z</time>
      </trkpt>
      <trkpt lat="45.03099" lon="4.07507">
        <ele>938.38</ele>
        <time>2022-04-14T10:02:02Z</time>
      </trkpt>
      <trkpt lat="45.03088" lon="4.07506">
        <ele>940.31</ele>
        <time>2022-04-14T10:02:12Z</time>
      </trkpt>
      <trkpt lat="45.0307" lon="4.07498">
        <ele>941.75</ele>
        <time>2022-04-14T10:02:28Z</time>
      </trkpt>
      <trkpt lat="45.03062" lon="4.07495">
        <ele>943.19</ele>
        <time>2022-04-14T10:02:36Z</time>
      </trkpt>
      <trkpt lat="45.03052" lon="4.07492">
        <ele>944.15</ele>
        <time>2022-04-14T10:02:42Z</time>
      </trkpt>
      <trkpt lat="45.03034" lon="4.07496">
        <ele>947.04</ele>
        <time>2022-04-14T10:02:56Z</time>
      </trkpt>
      <trkpt lat="45.03018" lon="4.075">
        <ele>946.56</ele>
        <time>2022-04-14T10:03:10Z</time>
      </trkpt>
      <trkpt lat="45.03001" lon="4.07503">
        <ele>946.56</ele>
        <time>2022-04-14T10:03:24Z</time>
      </trkpt>
      <trkpt lat="45.03" lon="4.07502">
        <ele>946.56</ele>
        <time>2022-04-14T10:03:25Z</time>
      </trkpt>
      <trkpt lat="45.02991" lon="4.07493">
        <ele>946.56</ele>
        <time>2022-04-14T10:03:34Z</time>
      </trkpt>
      <trkpt lat="45.02979" lon="4.07482">
        <ele>950.4</ele>
        <time>2022-04-14T10:03:45Z</time>
      </trkpt>
      <trkpt lat="45.0296" lon="4.07481">
        <ele>953.28</ele>
        <time>2022-04-14T10:04:00Z</time>
      </trkpt>
      <trkpt lat="45.02942" lon="4.07485">
        <ele>952.32</ele>
        <time>2022-04-14T10:04:16Z</time>
      </trkpt>
      <trkpt lat="45.02924" lon="4.07489">
        <ele>949.44</ele>
        <time>2022-04-14T10:04:31Z</time>
      </trkpt>
      <trkpt lat="45.02911" lon="4.07503">
        <ele>952.8</ele>
        <time>2022-04-14T10:04:45Z</time>
      </trkpt>
      <trkpt lat="45.02909" lon="4.07505">
        <ele>953.28</ele>
        <time>2022-04-14T10:04:48Z</time>
      </trkpt>
      <trkpt lat="45.02901" lon="4.075">
        <ele>954.73</ele>
        <time>2022-04-14T10:05:00Z</time>
      </trkpt>
      <trkpt lat="45.02891" lon="4.07491">
        <ele>958.09</ele>
        <time>2022-04-14T10:05:11Z</time>
      </trkpt>
      <trkpt lat="45.02879" lon="4.07485">
        <ele>959.53</ele>
        <time>2022-04-14T10:05:21Z</time>
      </trkpt>
      <trkpt lat="45.02871" lon="4.07497">
        <ele>960.98</ele>
        <time>2022-04-14T10:05:34Z</time>
      </trkpt>
      <trkpt lat="45.02871" lon="4.07498">
        <ele>961.46</ele>
        <time>2022-04-14T10:05:35Z</time>
      </trkpt>
      <trkpt lat="45.02865" lon="4.07516">
        <ele>969.63</ele>
        <time>2022-04-14T10:05:50Z</time>
      </trkpt>
      <trkpt lat="45.02862" lon="4.07529">
        <ele>975.39</ele>
        <time>2022-04-14T10:06:02Z</time>
      </trkpt>
      <trkpt lat="45.02854" lon="4.0754">
        <ele>981.16</ele>
        <time>2022-04-14T10:06:15Z</time>
      </trkpt>
      <trkpt lat="45.02849" lon="4.07564">
        <ele>978.28</ele>
        <time>2022-04-14T10:06:27Z</time>
      </trkpt>
      <trkpt lat="45.02836" lon="4.07582">
        <ele>978.76</ele>
        <time>2022-04-14T10:06:41Z</time>
      </trkpt>
      <trkpt lat="45.02832" lon="4.07593">
        <ele>978.76</ele>
        <time>2022-04-14T10:06:49Z</time>
      </trkpt>
      <trkpt lat="45.02833" lon="4.07602">
        <ele>979.72</ele>
        <time>2022-04-14T10:06:55Z</time>
      </trkpt>
      <trkpt lat="45.02837" lon="4.07609">
        <ele>980.2</ele>
        <time>2022-04-14T10:07:01Z</time>
      </trkpt>
      <trkpt lat="45.02837" lon="4.07611">
        <ele>980.2</ele>
        <time>2022-04-14T10:07:03Z</time>
      </trkpt>
      <trkpt lat="45.02848" lon="4.07621">
        <ele>983.57</ele>
        <time>2022-04-14T10:07:16Z</time>
      </trkpt>
      <trkpt lat="45.02851" lon="4.07636">
        <ele>987.89</ele>
        <time>2022-04-14T10:07:29Z</time>
      </trkpt>
      <trkpt lat="45.02851" lon="4.07637">
        <ele>987.89</ele>
        <time>2022-04-14T10:07:30Z</time>
      </trkpt>
      <trkpt lat="45.02849" lon="4.07649">
        <ele>995.1</ele>
        <time>2022-04-14T10:07:44Z</time>
      </trkpt>
      <trkpt lat="45.02846" lon="4.07658">
        <ele>996.06</ele>
        <time>2022-04-14T10:07:54Z</time>
      </trkpt>
      <trkpt lat="45.02839" lon="4.07672">
        <ele>995.58</ele>
        <time>2022-04-14T10:08:08Z</time>
      </trkpt>
      <trkpt lat="45.02839" lon="4.07673">
        <ele>994.14</ele>
        <time>2022-04-14T10:08:29Z</time>
      </trkpt>
      <trkpt lat="45.02837" lon="4.07676">
        <ele>992.7</ele>
        <time>2022-04-14T10:08:40Z</time>
      </trkpt>
      <trkpt lat="45.02837" lon="4.07685">
        <ele>995.1</ele>
        <time>2022-04-14T10:08:53Z</time>
      </trkpt>
      <trkpt lat="45.02839" lon="4.07688">
        <ele>996.54</ele>
        <time>2022-04-14T10:09:08Z</time>
      </trkpt>
      <trkpt lat="45.02841" lon="4.07694">
        <ele>997.99</ele>
        <time>2022-04-14T10:09:30Z</time>
      </trkpt>
      <trkpt lat="45.02842" lon="4.07696">
        <ele>998.47</ele>
        <time>2022-04-14T10:09:44Z</time>
      </trkpt>
      <trkpt lat="45.02843" lon="4.07701">
        <ele>996.06</ele>
        <time>2022-04-14T10:10:12Z</time>
      </trkpt>
      <trkpt lat="45.02842" lon="4.077">
        <ele>996.54</ele>
        <time>2022-04-14T10:10:32Z</time>
      </trkpt>
      <trkpt lat="45.02842" lon="4.07695">
        <ele>995.1</ele>
        <time>2022-04-14T10:10:47Z</time>
      </trkpt>
      <trkpt lat="45.02846" lon="4.07689">
        <ele>995.1</ele>
        <time>2022-04-14T10:10:57Z</time>
      </trkpt>
      <trkpt lat="45.02846" lon="4.07688">
        <ele>995.1</ele>
        <time>2022-04-14T10:11:01Z</time>
      </trkpt>
      <trkpt lat="45.0285" lon="4.07682">
        <ele>995.1</ele>
        <time>2022-04-14T10:11:14Z</time>
      </trkpt>
      <trkpt lat="45.02856" lon="4.07671">
        <ele>995.1</ele>
        <time>2022-04-14T10:11:28Z</time>
      </trkpt>
      <trkpt lat="45.02864" lon="4.07659">
        <ele>997.51</ele>
        <time>2022-04-14T10:11:42Z</time>
      </trkpt>
      <trkpt lat="45.02878" lon="4.07647">
        <ele>1002.31</ele>
        <time>2022-04-14T10:11:59Z</time>
      </trkpt>
      <trkpt lat="45.02879" lon="4.07646">
        <ele>1002.31</ele>
        <time>2022-04-14T10:12:08Z</time>
      </trkpt>
      <trkpt lat="45.02888" lon="4.07644">
        <ele>1001.35</ele>
        <time>2022-04-14T10:12:21Z</time>
      </trkpt>
      <trkpt lat="45.029" lon="4.07645">
        <ele>1000.39</ele>
        <time>2022-04-14T10:12:35Z</time>
      </trkpt>
      <trkpt lat="45.02911" lon="4.07646">
        <ele>1004.23</ele>
        <time>2022-04-14T10:12:49Z</time>
      </trkpt>
      <trkpt lat="45.02912" lon="4.07646">
        <ele>1004.72</ele>
        <time>2022-04-14T10:12:51Z</time>
      </trkpt>
      <trkpt lat="45.02923" lon="4.07645">
        <ele>1004.72</ele>
        <time>2022-04-14T10:13:05Z</time>
      </trkpt>
      <trkpt lat="45.0293" lon="4.07647">
        <ele>1006.64</ele>
        <time>2022-04-14T10:13:15Z</time>
      </trkpt>
      <trkpt lat="45.02941" lon="4.07651">
        <ele>1007.6</ele>
        <time>2022-04-14T10:13:27Z</time>
      </trkpt>
      <trkpt lat="45.02954" lon="4.07656">
        <ele>1010.96</ele>
        <time>2022-04-14T10:13:41Z</time>
      </trkpt>
      <trkpt lat="45.02965" lon="4.07659">
        <ele>1012.41</ele>
        <time>2022-04-14T10:13:54Z</time>
      </trkpt>
      <trkpt lat="45.02972" lon="4.07663">
        <ele>1014.33</ele>
        <time>2022-04-14T10:14:09Z</time>
      </trkpt>
      <trkpt lat="45.02978" lon="4.07667">
        <ele>1015.29</ele>
        <time>2022-04-14T10:14:23Z</time>
      </trkpt>
      <trkpt lat="45.02982" lon="4.07676">
        <ele>1017.21</ele>
        <time>2022-04-14T10:14:33Z</time>
      </trkpt>
      <trkpt lat="45.02984" lon="4.07681">
        <ele>1017.69</ele>
        <time>2022-04-14T10:14:48Z</time>
      </trkpt>
      <trkpt lat="45.02983" lon="4.07682">
        <ele>1016.73</ele>
        <time>2022-04-14T10:15:13Z</time>
      </trkpt>
      <trkpt lat="45.02984" lon="4.07685">
        <ele>1016.73</ele>
        <time>2022-04-14T10:15:25Z</time>
      </trkpt>
      <trkpt lat="45.02984" lon="4.07687">
        <ele>1016.73</ele>
        <time>2022-04-14T10:15:39Z</time>
      </trkpt>
      <trkpt lat="45.02983" lon="4.07686">
        <ele>1017.21</ele>
        <time>2022-04-14T10:15:49Z</time>
      </trkpt>
      <trkpt lat="45.02983" lon="4.07686">
        <ele>1017.21</ele>
        <time>2022-04-14T10:16:00Z</time>
      </trkpt>
      <trkpt lat="45.02983" lon="4.07685">
        <ele>1017.21</ele>
        <time>2022-04-14T10:16:22Z</time>
      </trkpt>
      <trkpt lat="45.02984" lon="4.07686">
        <ele>1016.73</ele>
        <time>2022-04-14T10:16:49Z</time>
      </trkpt>
      <trkpt lat="45.02984" lon="4.07686">
        <ele>1017.21</ele>
        <time>2022-04-14T10:17:12Z</time>
      </trkpt>
      <trkpt lat="45.02984" lon="4.07686">
        <ele>1017.21</ele>
        <time>2022-04-14T10:17:28Z</time>
      </trkpt>
      <trkpt lat="45.02984" lon="4.07686">
        <ele>1017.21</ele>
        <time>2022-04-14T10:17:42Z</time>
      </trkpt>
      <trkpt lat="45.02984" lon="4.07685">
        <ele>1017.21</ele>
        <time>2022-04-14T10:17:45Z</time>
      </trkpt>
      <trkpt lat="45.02983" lon="4.07685">
        <ele>1016.73</ele>
        <time>2022-04-14T10:17:59Z</time>
      </trkpt>
      <trkpt lat="45.02983" lon="4.07685">
        <ele>1016.73</ele>
        <time>2022-04-14T10:18:10Z</time>
      </trkpt>
      <trkpt lat="45.02983" lon="4.07685">
        <ele>1017.21</ele>
        <time>2022-04-14T10:18:22Z</time>
      </trkpt>
      <trkpt lat="45.02983" lon="4.07685">
        <ele>1016.73</ele>
        <time>2022-04-14T10:18:42Z</time>
      </trkpt>
      <trkpt lat="45.02984" lon="4.07684">
        <ele>1016.73</ele>
        <time>2022-04-14T10:18:55Z</time>
      </trkpt>
      <trkpt lat="45.02984" lon="4.07684">
        <ele>1016.73</ele>
        <time>2022-04-14T10:19:13Z</time>
      </trkpt>
      <trkpt lat="45.02984" lon="4.07684">
        <ele>1016.73</ele>
        <time>2022-04-14T10:19:41Z</time>
      </trkpt>
      <trkpt lat="45.02983" lon="4.07685">
        <ele>1016.73</ele>
        <time>2022-04-14T10:20:11Z</time>
      </trkpt>
      <trkpt lat="45.02983" lon="4.07685">
        <ele>1016.73</ele>
        <time>2022-04-14T10:20:36Z</time>
      </trkpt>
      <trkpt lat="45.02983" lon="4.07684">
        <ele>1017.21</ele>
        <time>2022-04-14T10:21:00Z</time>
      </trkpt>
      <trkpt lat="45.02983" lon="4.07685">
        <ele>1017.69</ele>
        <time>2022-04-14T10:21:40Z</time>
      </trkpt>
      <trkpt lat="45.02983" lon="4.07685">
        <ele>1018.17</ele>
        <time>2022-04-14T10:22:18Z</time>
      </trkpt>
      <trkpt lat="45.02983" lon="4.07685">
        <ele>1017.69</ele>
        <time>2022-04-14T10:22:52Z</time>
      </trkpt>
      <trkpt lat="45.02983" lon="4.07685">
        <ele>1017.69</ele>
        <time>2022-04-14T10:23:31Z</time>
      </trkpt>
      <trkpt lat="45.02983" lon="4.07685">
        <ele>1017.69</ele>
        <time>2022-04-14T10:24:09Z</time>
      </trkpt>
      <trkpt lat="45.02983" lon="4.07685">
        <ele>1017.69</ele>
        <time>2022-04-14T10:24:41Z</time>
      </trkpt>
      <trkpt lat="45.02983" lon="4.07684">
        <ele>1017.21</ele>
        <time>2022-04-14T10:25:18Z</time>
      </trkpt>
      <trkpt lat="45.02983" lon="4.07684">
        <ele>1017.21</ele>
        <time>2022-04-14T10:25:53Z</time>
      </trkpt>
      <trkpt lat="45.02983" lon="4.07685">
        <ele>1017.21</ele>
        <time>2022-04-14T10:26:23Z</time>
      </trkpt>
      <trkpt lat="45.02982" lon="4.07684">
        <ele>1017.21</ele>
        <time>2022-04-14T10:26:53Z</time>
      </trkpt>
      <trkpt lat="45.02983" lon="4.07684">
        <ele>1016.73</ele>
        <time>2022-04-14T10:27:31Z</time>
      </trkpt>
      <trkpt lat="45.02983" lon="4.07684">
        <ele>1016.73</ele>
        <time>2022-04-14T10:28:05Z</time>
      </trkpt>
      <trkpt lat="45.02983" lon="4.07684">
        <ele>1016.73</ele>
        <time>2022-04-14T10:28:30Z</time>
      </trkpt>
      <trkpt lat="45.02982" lon="4.07684">
        <ele>1016.73</ele>
        <time>2022-04-14T10:29:01Z</time>
      </trkpt>
      <trkpt lat="45.02982" lon="4.07685">
        <ele>1017.21</ele>
        <time>2022-04-14T10:29:29Z</time>
      </trkpt>
      <trkpt lat="45.02982" lon="4.07685">
        <ele>1017.21</ele>
        <time>2022-04-14T10:30:01Z</time>
      </trkpt>
      <trkpt lat="45.02983" lon="4.07684">
        <ele>1017.21</ele>
        <time>2022-04-14T10:30:26Z</time>
      </trkpt>
      <trkpt lat="45.02983" lon="4.07684">
        <ele>1016.73</ele>
        <time>2022-04-14T10:30:50Z</time>
      </trkpt>
      <trkpt lat="45.02983" lon="4.07685">
        <ele>1016.73</ele>
        <time>2022-04-14T10:31:18Z</time>
      </trkpt>
      <trkpt lat="45.02982" lon="4.07685">
        <ele>1016.73</ele>
        <time>2022-04-14T10:31:50Z</time>
      </trkpt>
      <trkpt lat="45.02982" lon="4.07685">
        <ele>1017.21</ele>
        <time>2022-04-14T10:32:14Z</time>
      </trkpt>
      <trkpt lat="45.02983" lon="4.07684">
        <ele>1016.73</ele>
        <time>2022-04-14T10:32:42Z</time>
      </trkpt>
      <trkpt lat="45.02983" lon="4.07684">
        <ele>1016.73</ele>
        <time>2022-04-14T10:33:06Z</time>
      </trkpt>
      <trkpt lat="45.02983" lon="4.07684">
        <ele>1016.73</ele>
        <time>2022-04-14T10:33:35Z</time>
      </trkpt>
      <trkpt lat="45.02982" lon="4.07685">
        <ele>1016.73</ele>
        <time>2022-04-14T10:34:01Z</time>
      </trkpt>
      <trkpt lat="45.02982" lon="4.07685">
        <ele>1016.73</ele>
        <time>2022-04-14T10:34:28Z</time>
      </trkpt>
      <trkpt lat="45.02983" lon="4.07685">
        <ele>1016.73</ele>
        <time>2022-04-14T10:35:01Z</time>
      </trkpt>
      <trkpt lat="45.02983" lon="4.07685">
        <ele>1016.73</ele>
        <time>2022-04-14T10:35:28Z</time>
      </trkpt>
      <trkpt lat="45.02983" lon="4.07685">
        <ele>1016.73</ele>
        <time>2022-04-14T10:36:00Z</time>
      </trkpt>
      <trkpt lat="45.02983" lon="4.07685">
        <ele>1016.25</ele>
        <time>2022-04-14T10:36:31Z</time>
      </trkpt>
      <trkpt lat="45.02983" lon="4.07685">
        <ele>1016.73</ele>
        <time>2022-04-14T10:37:00Z</time>
      </trkpt>
      <trkpt lat="45.02983" lon="4.07685">
        <ele>1016.73</ele>
        <time>2022-04-14T10:37:25Z</time>
      </trkpt>
      <trkpt lat="45.02983" lon="4.07685">
        <ele>1016.73</ele>
        <time>2022-04-14T10:37:55Z</time>
      </trkpt>
      <trkpt lat="45.02982" lon="4.07685">
        <ele>1016.73</ele>
        <time>2022-04-14T10:38:30Z</time>
      </trkpt>
      <trkpt lat="45.02982" lon="4.07685">
        <ele>1016.73</ele>
        <time>2022-04-14T10:39:01Z</time>
      </trkpt>
      <trkpt lat="45.02982" lon="4.07685">
        <ele>1016.73</ele>
        <time>2022-04-14T10:39:23Z</time>
      </trkpt>
      <trkpt lat="45.02982" lon="4.07684">
        <ele>1016.73</ele>
        <time>2022-04-14T10:39:47Z</time>
      </trkpt>
      <trkpt lat="45.02982" lon="4.07685">
        <ele>1016.73</ele>
        <time>2022-04-14T10:40:13Z</time>
      </trkpt>
      <trkpt lat="45.02982" lon="4.07685">
        <ele>1016.25</ele>
        <time>2022-04-14T10:40:41Z</time>
      </trkpt>
      <trkpt lat="45.02981" lon="4.07685">
        <ele>1016.25</ele>
        <time>2022-04-14T10:41:11Z</time>
      </trkpt>
      <trkpt lat="45.02981" lon="4.07684">
        <ele>1016.25</ele>
        <time>2022-04-14T10:41:44Z</time>
      </trkpt>
      <trkpt lat="45.02981" lon="4.07684">
        <ele>1016.25</ele>
        <time>2022-04-14T10:42:07Z</time>
      </trkpt>
      <trkpt lat="45.02981" lon="4.07684">
        <ele>1016.25</ele>
        <time>2022-04-14T10:42:34Z</time>
      </trkpt>
      <trkpt lat="45.02981" lon="4.07684">
        <ele>1016.25</ele>
        <time>2022-04-14T10:43:03Z</time>
      </trkpt>
      <trkpt lat="45.02981" lon="4.07685">
        <ele>1016.25</ele>
        <time>2022-04-14T10:43:31Z</time>
      </trkpt>
      <trkpt lat="45.02981" lon="4.07685">
        <ele>1016.25</ele>
        <time>2022-04-14T10:43:54Z</time>
      </trkpt>
      <trkpt lat="45.02981" lon="4.07685">
        <ele>1016.73</ele>
        <time>2022-04-14T10:44:18Z</time>
      </trkpt>
      <trkpt lat="45.02982" lon="4.07684">
        <ele>1016.73</ele>
        <time>2022-04-14T10:44:44Z</time>
      </trkpt>
      <trkpt lat="45.02982" lon="4.07685">
        <ele>1016.73</ele>
        <time>2022-04-14T10:45:06Z</time>
      </trkpt>
      <trkpt lat="45.02981" lon="4.07684">
        <ele>1016.73</ele>
        <time>2022-04-14T10:45:36Z</time>
      </trkpt>
      <trkpt lat="45.02981" lon="4.07684">
        <ele>1017.21</ele>
        <time>2022-04-14T10:46:00Z</time>
      </trkpt>
      <trkpt lat="45.02982" lon="4.07684">
        <ele>1017.21</ele>
        <time>2022-04-14T10:46:29Z</time>
      </trkpt>
      <trkpt lat="45.02981" lon="4.07684">
        <ele>1017.21</ele>
        <time>2022-04-14T10:46:51Z</time>
      </trkpt>
      <trkpt lat="45.02981" lon="4.07684">
        <ele>1017.21</ele>
        <time>2022-04-14T10:47:18Z</time>
      </trkpt>
      <trkpt lat="45.02982" lon="4.07684">
        <ele>1017.21</ele>
        <time>2022-04-14T10:47:45Z</time>
      </trkpt>
      <trkpt lat="45.02982" lon="4.07684">
        <ele>1017.21</ele>
        <time>2022-04-14T10:48:14Z</time>
      </trkpt>
      <trkpt lat="45.02982" lon="4.07684">
        <ele>1016.73</ele>
        <time>2022-04-14T10:48:39Z</time>
      </trkpt>
      <trkpt lat="45.02982" lon="4.07683">
        <ele>1017.21</ele>
        <time>2022-04-14T10:49:13Z</time>
      </trkpt>
      <trkpt lat="45.02982" lon="4.07684">
        <ele>1016.73</ele>
        <time>2022-04-14T10:49:46Z</time>
      </trkpt>
      <trkpt lat="45.02983" lon="4.07684">
        <ele>1016.73</ele>
        <time>2022-04-14T10:50:17Z</time>
      </trkpt>
      <trkpt lat="45.02983" lon="4.07684">
        <ele>1017.21</ele>
        <time>2022-04-14T10:50:39Z</time>
      </trkpt>
      <trkpt lat="45.02983" lon="4.07684">
        <ele>1017.69</ele>
        <time>2022-04-14T10:51:11Z</time>
      </trkpt>
      <trkpt lat="45.02983" lon="4.07685">
        <ele>1017.21</ele>
        <time>2022-04-14T10:51:36Z</time>
      </trkpt>
      <trkpt lat="45.02983" lon="4.07684">
        <ele>1017.21</ele>
        <time>2022-04-14T10:52:01Z</time>
      </trkpt>
      <trkpt lat="45.02983" lon="4.07684">
        <ele>1017.21</ele>
        <time>2022-04-14T10:52:29Z</time>
      </trkpt>
      <trkpt lat="45.02983" lon="4.07685">
        <ele>1017.69</ele>
        <time>2022-04-14T10:52:54Z</time>
      </trkpt>
      <trkpt lat="45.02982" lon="4.07685">
        <ele>1017.21</ele>
        <time>2022-04-14T10:53:31Z</time>
      </trkpt>
      <trkpt lat="45.02982" lon="4.07685">
        <ele>1017.21</ele>
        <time>2022-04-14T10:54:04Z</time>
      </trkpt>
      <trkpt lat="45.02982" lon="4.07685">
        <ele>1017.69</ele>
        <time>2022-04-14T10:54:37Z</time>
      </trkpt>
      <trkpt lat="45.02982" lon="4.07685">
        <ele>1017.69</ele>
        <time>2022-04-14T10:55:11Z</time>
      </trkpt>
      <trkpt lat="45.02982" lon="4.07685">
        <ele>1017.69</ele>
        <time>2022-04-14T10:55:41Z</time>
      </trkpt>
      <trkpt lat="45.02982" lon="4.07685">
        <ele>1017.69</ele>
        <time>2022-04-14T10:56:08Z</time>
      </trkpt>
      <trkpt lat="45.02982" lon="4.07685">
        <ele>1017.69</ele>
        <time>2022-04-14T10:56:27Z</time>
      </trkpt>
      <trkpt lat="45.02982" lon="4.07684">
        <ele>1017.69</ele>
        <time>2022-04-14T10:56:47Z</time>
      </trkpt>
      <trkpt lat="45.02981" lon="4.07685">
        <ele>1017.21</ele>
        <time>2022-04-14T10:57:07Z</time>
      </trkpt>
      <trkpt lat="45.02981" lon="4.07685">
        <ele>1016.73</ele>
        <time>2022-04-14T10:57:32Z</time>
      </trkpt>
      <trkpt lat="45.02982" lon="4.07685">
        <ele>1015.77</ele>
        <time>2022-04-14T10:57:52Z</time>
      </trkpt>
      <trkpt lat="45.02982" lon="4.07686">
        <ele>1015.77</ele>
        <time>2022-04-14T10:58:10Z</time>
      </trkpt>
      <trkpt lat="45.02982" lon="4.07688">
        <ele>1016.25</ele>
        <time>2022-04-14T10:58:22Z</time>
      </trkpt>
      <trkpt lat="45.02984" lon="4.07687">
        <ele>1015.77</ele>
        <time>2022-04-14T10:58:36Z</time>
      </trkpt>
      <trkpt lat="45.02983" lon="4.07686">
        <ele>1015.29</ele>
        <time>2022-04-14T10:58:53Z</time>
      </trkpt>
      <trkpt lat="45.02984" lon="4.07686">
        <ele>1014.81</ele>
        <time>2022-04-14T10:59:04Z</time>
      </trkpt>
      <trkpt lat="45.02984" lon="4.07686">
        <ele>1014.81</ele>
        <time>2022-04-14T10:59:20Z</time>
      </trkpt>
      <trkpt lat="45.02984" lon="4.07685">
        <ele>1013.85</ele>
        <time>2022-04-14T10:59:35Z</time>
      </trkpt>
      <trkpt lat="45.02984" lon="4.07685">
        <ele>1013.85</ele>
        <time>2022-04-14T10:59:51Z</time>
      </trkpt>
      <trkpt lat="45.02984" lon="4.07684">
        <ele>1014.33</ele>
        <time>2022-04-14T11:00:07Z</time>
      </trkpt>
      <trkpt lat="45.02985" lon="4.07685">
        <ele>1014.33</ele>
        <time>2022-04-14T11:00:24Z</time>
      </trkpt>
      <trkpt lat="45.02981" lon="4.07685">
        <ele>1014.81</ele>
        <time>2022-04-14T11:00:33Z</time>
      </trkpt>
      <trkpt lat="45.02978" lon="4.07683">
        <ele>1014.33</ele>
        <time>2022-04-14T11:00:45Z</time>
      </trkpt>
      <trkpt lat="45.02978" lon="4.07691">
        <ele>1014.33</ele>
        <time>2022-04-14T11:01:00Z</time>
      </trkpt>
      <trkpt lat="45.02978" lon="4.07692">
        <ele>1014.33</ele>
        <time>2022-04-14T11:01:01Z</time>
      </trkpt>
      <trkpt lat="45.02978" lon="4.07695">
        <ele>1014.33</ele>
        <time>2022-04-14T11:01:03Z</time>
      </trkpt>
      <trkpt lat="45.02973" lon="4.07707">
        <ele>1012.89</ele>
        <time>2022-04-14T11:01:14Z</time>
      </trkpt>
      <trkpt lat="45.0297" lon="4.07714">
        <ele>1011.44</ele>
        <time>2022-04-14T11:01:29Z</time>
      </trkpt>
      <trkpt lat="45.02968" lon="4.07716">
        <ele>1011.44</ele>
        <time>2022-04-14T11:01:43Z</time>
      </trkpt>
      <trkpt lat="45.02966" lon="4.07717">
        <ele>1011.44</ele>
        <time>2022-04-14T11:01:45Z</time>
      </trkpt>
      <trkpt lat="45.02959" lon="4.07724">
        <ele>1010.48</ele>
        <time>2022-04-14T11:01:50Z</time>
      </trkpt>
      <trkpt lat="45.02947" lon="4.07736">
        <ele>1008.56</ele>
        <time>2022-04-14T11:02:01Z</time>
      </trkpt>
      <trkpt lat="45.02945" lon="4.0774">
        <ele>1007.12</ele>
        <time>2022-04-14T11:02:04Z</time>
      </trkpt>
      <trkpt lat="45.02938" lon="4.07745">
        <ele>1001.83</ele>
        <time>2022-04-14T11:02:18Z</time>
      </trkpt>
      <trkpt lat="45.02929" lon="4.07756">
        <ele>1001.35</ele>
        <time>2022-04-14T11:02:30Z</time>
      </trkpt>
      <trkpt lat="45.02921" lon="4.07764">
        <ele>1001.35</ele>
        <time>2022-04-14T11:02:43Z</time>
      </trkpt>
      <trkpt lat="45.0292" lon="4.07765">
        <ele>1001.83</ele>
        <time>2022-04-14T11:02:44Z</time>
      </trkpt>
      <trkpt lat="45.02907" lon="4.07777">
        <ele>1000.87</ele>
        <time>2022-04-14T11:02:56Z</time>
      </trkpt>
      <trkpt lat="45.02903" lon="4.07781">
        <ele>999.91</ele>
        <time>2022-04-14T11:03:01Z</time>
      </trkpt>
      <trkpt lat="45.02893" lon="4.07792">
        <ele>997.02</ele>
        <time>2022-04-14T11:03:15Z</time>
      </trkpt>
      <trkpt lat="45.02882" lon="4.07803">
        <ele>993.66</ele>
        <time>2022-04-14T11:03:30Z</time>
      </trkpt>
      <trkpt lat="45.02863" lon="4.07805">
        <ele>993.18</ele>
        <time>2022-04-14T11:03:46Z</time>
      </trkpt>
      <trkpt lat="45.0286" lon="4.07805">
        <ele>993.66</ele>
        <time>2022-04-14T11:03:49Z</time>
      </trkpt>
      <trkpt lat="45.02856" lon="4.07809">
        <ele>994.62</ele>
        <time>2022-04-14T11:03:57Z</time>
      </trkpt>
      <trkpt lat="45.02863" lon="4.07819">
        <ele>991.26</ele>
        <time>2022-04-14T11:04:12Z</time>
      </trkpt>
      <trkpt lat="45.02857" lon="4.07827">
        <ele>990.3</ele>
        <time>2022-04-14T11:04:22Z</time>
      </trkpt>
      <trkpt lat="45.02854" lon="4.07829">
        <ele>989.81</ele>
        <time>2022-04-14T11:04:25Z</time>
      </trkpt>
      <trkpt lat="45.02844" lon="4.07837">
        <ele>982.6</ele>
        <time>2022-04-14T11:04:38Z</time>
      </trkpt>
      <trkpt lat="45.02841" lon="4.07838">
        <ele>981.64</ele>
        <time>2022-04-14T11:04:58Z</time>
      </trkpt>
      <trkpt lat="45.02841" lon="4.07837">
        <ele>982.12</ele>
        <time>2022-04-14T11:05:27Z</time>
      </trkpt>
      <trkpt lat="45.02841" lon="4.07839">
        <ele>983.09</ele>
        <time>2022-04-14T11:05:46Z</time>
      </trkpt>
      <trkpt lat="45.02847" lon="4.07844">
        <ele>984.53</ele>
        <time>2022-04-14T11:06:00Z</time>
      </trkpt>
      <trkpt lat="45.02854" lon="4.07854">
        <ele>984.05</ele>
        <time>2022-04-14T11:06:18Z</time>
      </trkpt>
      <trkpt lat="45.02855" lon="4.07855">
        <ele>983.57</ele>
        <time>2022-04-14T11:06:38Z</time>
      </trkpt>
      <trkpt lat="45.02856" lon="4.07855">
        <ele>982.6</ele>
        <time>2022-04-14T11:07:00Z</time>
      </trkpt>
      <trkpt lat="45.02857" lon="4.07857">
        <ele>980.68</ele>
        <time>2022-04-14T11:07:13Z</time>
      </trkpt>
      <trkpt lat="45.0286" lon="4.07858">
        <ele>980.2</ele>
        <time>2022-04-14T11:07:16Z</time>
      </trkpt>
      <trkpt lat="45.02865" lon="4.07862">
        <ele>980.2</ele>
        <time>2022-04-14T11:07:23Z</time>
      </trkpt>
      <trkpt lat="45.02863" lon="4.07889">
        <ele>976.36</ele>
        <time>2022-04-14T11:07:37Z</time>
      </trkpt>
      <trkpt lat="45.02863" lon="4.07892">
        <ele>976.36</ele>
        <time>2022-04-14T11:07:39Z</time>
      </trkpt>
      <trkpt lat="45.02861" lon="4.07923">
        <ele>972.03</ele>
        <time>2022-04-14T11:07:56Z</time>
      </trkpt>
      <trkpt lat="45.02861" lon="4.07943">
        <ele>969.63</ele>
        <time>2022-04-14T11:08:08Z</time>
      </trkpt>
      <trkpt lat="45.02861" lon="4.07953">
        <ele>968.18</ele>
        <time>2022-04-14T11:08:13Z</time>
      </trkpt>
      <trkpt lat="45.0286" lon="4.07955">
        <ele>967.7</ele>
        <time>2022-04-14T11:08:16Z</time>
      </trkpt>
      <trkpt lat="45.02859" lon="4.07964">
        <ele>966.26</ele>
        <time>2022-04-14T11:08:21Z</time>
      </trkpt>
      <trkpt lat="45.02861" lon="4.07971">
        <ele>964.82</ele>
        <time>2022-04-14T11:08:25Z</time>
      </trkpt>
      <trkpt lat="45.02861" lon="4.07977">
        <ele>963.86</ele>
        <time>2022-04-14T11:08:28Z</time>
      </trkpt>
      <trkpt lat="45.0286" lon="4.07983">
        <ele>963.38</ele>
        <time>2022-04-14T11:08:32Z</time>
      </trkpt>
      <trkpt lat="45.0286" lon="4.0799">
        <ele>962.42</ele>
        <time>2022-04-14T11:08:36Z</time>
      </trkpt>
      <trkpt lat="45.02857" lon="4.08015">
        <ele>960.01</ele>
        <time>2022-04-14T11:08:49Z</time>
      </trkpt>
      <trkpt lat="45.02855" lon="4.08032">
        <ele>956.65</ele>
        <time>2022-04-14T11:09:00Z</time>
      </trkpt>
      <trkpt lat="45.02851" lon="4.08065">
        <ele>952.8</ele>
        <time>2022-04-14T11:09:17Z</time>
      </trkpt>
      <trkpt lat="45.02853" lon="4.0809">
        <ele>949.92</ele>
        <time>2022-04-14T11:09:31Z</time>
      </trkpt>
      <trkpt lat="45.02849" lon="4.08116">
        <ele>948.48</ele>
        <time>2022-04-14T11:09:47Z</time>
      </trkpt>
      <trkpt lat="45.02849" lon="4.08117">
        <ele>948.48</ele>
        <time>2022-04-14T11:09:48Z</time>
      </trkpt>
      <trkpt lat="45.02848" lon="4.08127">
        <ele>947.52</ele>
        <time>2022-04-14T11:10:00Z</time>
      </trkpt>
      <trkpt lat="45.02847" lon="4.08129">
        <ele>947.04</ele>
        <time>2022-04-14T11:10:01Z</time>
      </trkpt>
      <trkpt lat="45.02846" lon="4.0814">
        <ele>945.59</ele>
        <time>2022-04-14T11:10:09Z</time>
      </trkpt>
      <trkpt lat="45.02843" lon="4.08166">
        <ele>942.71</ele>
        <time>2022-04-14T11:10:26Z</time>
      </trkpt>
      <trkpt lat="45.02844" lon="4.08191">
        <ele>939.35</ele>
        <time>2022-04-14T11:10:40Z</time>
      </trkpt>
      <trkpt lat="45.02839" lon="4.08215">
        <ele>937.42</ele>
        <time>2022-04-14T11:10:54Z</time>
      </trkpt>
      <trkpt lat="45.02836" lon="4.08221">
        <ele>937.42</ele>
        <time>2022-04-14T11:10:58Z</time>
      </trkpt>
      <trkpt lat="45.02831" lon="4.08232">
        <ele>938.38</ele>
        <time>2022-04-14T11:11:08Z</time>
      </trkpt>
      <trkpt lat="45.02823" lon="4.08234">
        <ele>936.94</ele>
        <time>2022-04-14T11:11:14Z</time>
      </trkpt>
      <trkpt lat="45.02798" lon="4.08245">
        <ele>936.46</ele>
        <time>2022-04-14T11:11:33Z</time>
      </trkpt>
      <trkpt lat="45.02777" lon="4.08241">
        <ele>936.46</ele>
        <time>2022-04-14T11:11:49Z</time>
      </trkpt>
      <trkpt lat="45.02753" lon="4.08236">
        <ele>936.46</ele>
        <time>2022-04-14T11:12:08Z</time>
      </trkpt>
      <trkpt lat="45.02748" lon="4.08235">
        <ele>936.46</ele>
        <time>2022-04-14T11:12:12Z</time>
      </trkpt>
      <trkpt lat="45.02743" lon="4.08239">
        <ele>935.98</ele>
        <time>2022-04-14T11:12:17Z</time>
      </trkpt>
      <trkpt lat="45.02736" lon="4.08242">
        <ele>935.02</ele>
        <time>2022-04-14T11:12:23Z</time>
      </trkpt>
      <trkpt lat="45.02726" lon="4.08246">
        <ele>934.06</ele>
        <time>2022-04-14T11:12:32Z</time>
      </trkpt>
      <trkpt lat="45.02703" lon="4.08259">
        <ele>930.69</ele>
        <time>2022-04-14T11:12:50Z</time>
      </trkpt>
      <trkpt lat="45.02687" lon="4.08269">
        <ele>929.25</ele>
        <time>2022-04-14T11:13:04Z</time>
      </trkpt>
      <trkpt lat="45.02681" lon="4.08269">
        <ele>928.29</ele>
        <time>2022-04-14T11:13:09Z</time>
      </trkpt>
      <trkpt lat="45.02674" lon="4.08272">
        <ele>928.29</ele>
        <time>2022-04-14T11:13:15Z</time>
      </trkpt>
      <trkpt lat="45.02669" lon="4.08274">
        <ele>927.81</ele>
        <time>2022-04-14T11:13:20Z</time>
      </trkpt>
      <trkpt lat="45.02664" lon="4.08274">
        <ele>927.81</ele>
        <time>2022-04-14T11:13:33Z</time>
      </trkpt>
      <trkpt lat="45.02652" lon="4.08294">
        <ele>927.33</ele>
        <time>2022-04-14T11:13:48Z</time>
      </trkpt>
      <trkpt lat="45.02642" lon="4.08304">
        <ele>925.89</ele>
        <time>2022-04-14T11:13:59Z</time>
      </trkpt>
      <trkpt lat="45.02628" lon="4.08321">
        <ele>923</ele>
        <time>2022-04-14T11:14:15Z</time>
      </trkpt>
      <trkpt lat="45.02623" lon="4.08324">
        <ele>922.04</ele>
        <time>2022-04-14T11:14:20Z</time>
      </trkpt>
      <trkpt lat="45.0261" lon="4.08333">
        <ele>920.12</ele>
        <time>2022-04-14T11:14:32Z</time>
      </trkpt>
      <trkpt lat="45.02598" lon="4.08347">
        <ele>917.24</ele>
        <time>2022-04-14T11:14:48Z</time>
      </trkpt>
      <trkpt lat="45.02593" lon="4.08353">
        <ele>915.79</ele>
        <time>2022-04-14T11:14:55Z</time>
      </trkpt>
      <trkpt lat="45.02584" lon="4.08371">
        <ele>917.72</ele>
        <time>2022-04-14T11:15:11Z</time>
      </trkpt>
      <trkpt lat="45.02582" lon="4.08388">
        <ele>917.72</ele>
        <time>2022-04-14T11:15:26Z</time>
      </trkpt>
      <trkpt lat="45.02578" lon="4.08406">
        <ele>918.68</ele>
        <time>2022-04-14T11:15:41Z</time>
      </trkpt>
      <trkpt lat="45.02573" lon="4.08423">
        <ele>918.68</ele>
        <time>2022-04-14T11:15:54Z</time>
      </trkpt>
      <trkpt lat="45.02566" lon="4.0844">
        <ele>916.75</ele>
        <time>2022-04-14T11:16:07Z</time>
      </trkpt>
      <trkpt lat="45.02554" lon="4.08459">
        <ele>915.79</ele>
        <time>2022-04-14T11:16:22Z</time>
      </trkpt>
      <trkpt lat="45.02541" lon="4.08476">
        <ele>915.79</ele>
        <time>2022-04-14T11:16:35Z</time>
      </trkpt>
      <trkpt lat="45.02531" lon="4.08489">
        <ele>916.27</ele>
        <time>2022-04-14T11:16:49Z</time>
      </trkpt>
      <trkpt lat="45.02527" lon="4.08496">
        <ele>915.31</ele>
        <time>2022-04-14T11:17:04Z</time>
      </trkpt>
      <trkpt lat="45.02516" lon="4.08507">
        <ele>915.79</ele>
        <time>2022-04-14T11:17:19Z</time>
      </trkpt>
      <trkpt lat="45.0251" lon="4.08512">
        <ele>917.24</ele>
        <time>2022-04-14T11:17:24Z</time>
      </trkpt>
      <trkpt lat="45.02505" lon="4.08512">
        <ele>920.12</ele>
        <time>2022-04-14T11:17:28Z</time>
      </trkpt>
      <trkpt lat="45.02481" lon="4.08526">
        <ele>923</ele>
        <time>2022-04-14T11:17:45Z</time>
      </trkpt>
      <trkpt lat="45.02462" lon="4.08539">
        <ele>922.04</ele>
        <time>2022-04-14T11:18:02Z</time>
      </trkpt>
      <trkpt lat="45.02446" lon="4.08554">
        <ele>921.56</ele>
        <time>2022-04-14T11:18:16Z</time>
      </trkpt>
      <trkpt lat="45.02435" lon="4.08568">
        <ele>920.12</ele>
        <time>2022-04-14T11:18:28Z</time>
      </trkpt>
      <trkpt lat="45.0242" lon="4.08577">
        <ele>920.12</ele>
        <time>2022-04-14T11:18:42Z</time>
      </trkpt>
      <trkpt lat="45.02405" lon="4.08591">
        <ele>919.16</ele>
        <time>2022-04-14T11:18:55Z</time>
      </trkpt>
      <trkpt lat="45.02405" lon="4.08592">
        <ele>919.16</ele>
        <time>2022-04-14T11:18:56Z</time>
      </trkpt>
      <trkpt lat="45.02393" lon="4.08604">
        <ele>919.16</ele>
        <time>2022-04-14T11:19:09Z</time>
      </trkpt>
      <trkpt lat="45.02388" lon="4.08608">
        <ele>919.64</ele>
        <time>2022-04-14T11:19:21Z</time>
      </trkpt>
      <trkpt lat="45.02376" lon="4.08623">
        <ele>920.6</ele>
        <time>2022-04-14T11:19:35Z</time>
      </trkpt>
      <trkpt lat="45.02361" lon="4.08644">
        <ele>923.48</ele>
        <time>2022-04-14T11:19:51Z</time>
      </trkpt>
      <trkpt lat="45.0235" lon="4.08665">
        <ele>925.89</ele>
        <time>2022-04-14T11:20:06Z</time>
      </trkpt>
      <trkpt lat="45.02347" lon="4.08667">
        <ele>926.85</ele>
        <time>2022-04-14T11:20:08Z</time>
      </trkpt>
      <trkpt lat="45.0234" lon="4.08682">
        <ele>928.29</ele>
        <time>2022-04-14T11:20:17Z</time>
      </trkpt>
      <trkpt lat="45.02332" lon="4.08709">
        <ele>931.65</ele>
        <time>2022-04-14T11:20:34Z</time>
      </trkpt>
      <trkpt lat="45.02323" lon="4.08733">
        <ele>931.17</ele>
        <time>2022-04-14T11:20:48Z</time>
      </trkpt>
      <trkpt lat="45.02318" lon="4.08747">
        <ele>931.17</ele>
        <time>2022-04-14T11:20:57Z</time>
      </trkpt>
      <trkpt lat="45.02306" lon="4.08776">
        <ele>934.06</ele>
        <time>2022-04-14T11:21:14Z</time>
      </trkpt>
      <trkpt lat="45.02305" lon="4.08778">
        <ele>934.06</ele>
        <time>2022-04-14T11:21:15Z</time>
      </trkpt>
      <trkpt lat="45.023" lon="4.08798">
        <ele>934.06</ele>
        <time>2022-04-14T11:21:30Z</time>
      </trkpt>
      <trkpt lat="45.02298" lon="4.08803">
        <ele>934.54</ele>
        <time>2022-04-14T11:21:34Z</time>
      </trkpt>
      <trkpt lat="45.0229" lon="4.08824">
        <ele>937.9</ele>
        <time>2022-04-14T11:21:48Z</time>
      </trkpt>
      <trkpt lat="45.02285" lon="4.08845">
        <ele>939.83</ele>
        <time>2022-04-14T11:22:00Z</time>
      </trkpt>
      <trkpt lat="45.02282" lon="4.08854">
        <ele>940.79</ele>
        <time>2022-04-14T11:22:10Z</time>
      </trkpt>
      <trkpt lat="45.02275" lon="4.08862">
        <ele>940.31</ele>
        <time>2022-04-14T11:22:17Z</time>
      </trkpt>
      <trkpt lat="45.02266" lon="4.0889">
        <ele>939.83</ele>
        <time>2022-04-14T11:22:33Z</time>
      </trkpt>
      <trkpt lat="45.02265" lon="4.08891">
        <ele>939.83</ele>
        <time>2022-04-14T11:22:34Z</time>
      </trkpt>
      <trkpt lat="45.02255" lon="4.08899">
        <ele>939.35</ele>
        <time>2022-04-14T11:22:46Z</time>
      </trkpt>
      <trkpt lat="45.02239" lon="4.08917">
        <ele>940.31</ele>
        <time>2022-04-14T11:23:01Z</time>
      </trkpt>
      <trkpt lat="45.02226" lon="4.08932">
        <ele>938.38</ele>
        <time>2022-04-14T11:23:15Z</time>
      </trkpt>
      <trkpt lat="45.02219" lon="4.08946">
        <ele>936.94</ele>
        <time>2022-04-14T11:23:26Z</time>
      </trkpt>
      <trkpt lat="45.02207" lon="4.08961">
        <ele>937.9</ele>
        <time>2022-04-14T11:23:39Z</time>
      </trkpt>
      <trkpt lat="45.02205" lon="4.08965">
        <ele>939.35</ele>
        <time>2022-04-14T11:23:42Z</time>
      </trkpt>
      <trkpt lat="45.02193" lon="4.08985">
        <ele>941.75</ele>
        <time>2022-04-14T11:23:58Z</time>
      </trkpt>
      <trkpt lat="45.02188" lon="4.08993">
        <ele>941.75</ele>
        <time>2022-04-14T11:24:04Z</time>
      </trkpt>
      <trkpt lat="45.02187" lon="4.08995">
        <ele>941.75</ele>
        <time>2022-04-14T11:24:06Z</time>
      </trkpt>
      <trkpt lat="45.02174" lon="4.09022">
        <ele>943.19</ele>
        <time>2022-04-14T11:24:22Z</time>
      </trkpt>
      <trkpt lat="45.02165" lon="4.09045">
        <ele>945.59</ele>
        <time>2022-04-14T11:24:36Z</time>
      </trkpt>
      <trkpt lat="45.02155" lon="4.09062">
        <ele>945.59</ele>
        <time>2022-04-14T11:24:50Z</time>
      </trkpt>
      <trkpt lat="45.02148" lon="4.0907">
        <ele>946.07</ele>
        <time>2022-04-14T11:24:58Z</time>
      </trkpt>
      <trkpt lat="45.02133" lon="4.09082">
        <ele>944.63</ele>
        <time>2022-04-14T11:25:13Z</time>
      </trkpt>
      <trkpt lat="45.0212" lon="4.09092">
        <ele>945.11</ele>
        <time>2022-04-14T11:25:28Z</time>
      </trkpt>
      <trkpt lat="45.02114" lon="4.09101">
        <ele>946.56</ele>
        <time>2022-04-14T11:25:43Z</time>
      </trkpt>
      <trkpt lat="45.02107" lon="4.09108">
        <ele>948.48</ele>
        <time>2022-04-14T11:25:58Z</time>
      </trkpt>
      <trkpt lat="45.02104" lon="4.09112">
        <ele>949.44</ele>
        <time>2022-04-14T11:26:12Z</time>
      </trkpt>
      <trkpt lat="45.02096" lon="4.09121">
        <ele>951.84</ele>
        <time>2022-04-14T11:26:24Z</time>
      </trkpt>
      <trkpt lat="45.02086" lon="4.09133">
        <ele>953.28</ele>
        <time>2022-04-14T11:26:37Z</time>
      </trkpt>
      <trkpt lat="45.02081" lon="4.09141">
        <ele>953.77</ele>
        <time>2022-04-14T11:26:50Z</time>
      </trkpt>
      <trkpt lat="45.02072" lon="4.09157">
        <ele>955.69</ele>
        <time>2022-04-14T11:27:04Z</time>
      </trkpt>
      <trkpt lat="45.02066" lon="4.09167">
        <ele>959.53</ele>
        <time>2022-04-14T11:27:21Z</time>
      </trkpt>
      <trkpt lat="45.02052" lon="4.09167">
        <ele>964.82</ele>
        <time>2022-04-14T11:27:35Z</time>
      </trkpt>
      <trkpt lat="45.02027" lon="4.09163">
        <ele>965.78</ele>
        <time>2022-04-14T11:27:51Z</time>
      </trkpt>
      <trkpt lat="45.02022" lon="4.09151">
        <ele>966.74</ele>
        <time>2022-04-14T11:28:00Z</time>
      </trkpt>
      <trkpt lat="45.02017" lon="4.09148">
        <ele>968.18</ele>
        <time>2022-04-14T11:28:04Z</time>
      </trkpt>
      <trkpt lat="45.01999" lon="4.09149">
        <ele>969.63</ele>
        <time>2022-04-14T11:28:19Z</time>
      </trkpt>
      <trkpt lat="45.01988" lon="4.09147">
        <ele>973.95</ele>
        <time>2022-04-14T11:28:33Z</time>
      </trkpt>
      <trkpt lat="45.01982" lon="4.09147">
        <ele>977.32</ele>
        <time>2022-04-14T11:28:47Z</time>
      </trkpt>
      <trkpt lat="45.01974" lon="4.09144">
        <ele>980.2</ele>
        <time>2022-04-14T11:29:00Z</time>
      </trkpt>
      <trkpt lat="45.01969" lon="4.09146">
        <ele>982.12</ele>
        <time>2022-04-14T11:29:04Z</time>
      </trkpt>
      <trkpt lat="45.01953" lon="4.09148">
        <ele>984.05</ele>
        <time>2022-04-14T11:29:17Z</time>
      </trkpt>
      <trkpt lat="45.01948" lon="4.0915">
        <ele>986.93</ele>
        <time>2022-04-14T11:29:30Z</time>
      </trkpt>
      <trkpt lat="45.01935" lon="4.09162">
        <ele>990.3</ele>
        <time>2022-04-14T11:29:42Z</time>
      </trkpt>
      <trkpt lat="45.01917" lon="4.09178">
        <ele>992.7</ele>
        <time>2022-04-14T11:29:56Z</time>
      </trkpt>
      <trkpt lat="45.01906" lon="4.09193">
        <ele>993.66</ele>
        <time>2022-04-14T11:30:09Z</time>
      </trkpt>
      <trkpt lat="45.01899" lon="4.09207">
        <ele>996.06</ele>
        <time>2022-04-14T11:30:19Z</time>
      </trkpt>
      <trkpt lat="45.01889" lon="4.09225">
        <ele>998.47</ele>
        <time>2022-04-14T11:30:33Z</time>
      </trkpt>
      <trkpt lat="45.01883" lon="4.09234">
        <ele>998.47</ele>
        <time>2022-04-14T11:30:45Z</time>
      </trkpt>
      <trkpt lat="45.01878" lon="4.09247">
        <ele>998.95</ele>
        <time>2022-04-14T11:30:56Z</time>
      </trkpt>
      <trkpt lat="45.01875" lon="4.09269">
        <ele>999.91</ele>
        <time>2022-04-14T11:31:09Z</time>
      </trkpt>
      <trkpt lat="45.01864" lon="4.09301">
        <ele>1004.72</ele>
        <time>2022-04-14T11:31:25Z</time>
      </trkpt>
      <trkpt lat="45.01859" lon="4.09328">
        <ele>1007.6</ele>
        <time>2022-04-14T11:31:41Z</time>
      </trkpt>
      <trkpt lat="45.01856" lon="4.09353">
        <ele>1009.52</ele>
        <time>2022-04-14T11:31:58Z</time>
      </trkpt>
      <trkpt lat="45.01856" lon="4.09355">
        <ele>1010</ele>
        <time>2022-04-14T11:31:59Z</time>
      </trkpt>
      <trkpt lat="45.01855" lon="4.09374">
        <ele>1012.41</ele>
        <time>2022-04-14T11:32:12Z</time>
      </trkpt>
      <trkpt lat="45.01858" lon="4.09394">
        <ele>1014.33</ele>
        <time>2022-04-14T11:32:27Z</time>
      </trkpt>
      <trkpt lat="45.01858" lon="4.09403">
        <ele>1015.77</ele>
        <time>2022-04-14T11:32:42Z</time>
      </trkpt>
      <trkpt lat="45.01858" lon="4.09403">
        <ele>1017.21</ele>
        <time>2022-04-14T11:32:56Z</time>
      </trkpt>
      <trkpt lat="45.01857" lon="4.09402">
        <ele>1018.65</ele>
        <time>2022-04-14T11:33:19Z</time>
      </trkpt>
      <trkpt lat="45.01858" lon="4.09402">
        <ele>1018.17</ele>
        <time>2022-04-14T11:33:43Z</time>
      </trkpt>
      <trkpt lat="45.01859" lon="4.09402">
        <ele>1019.62</ele>
        <time>2022-04-14T11:34:04Z</time>
      </trkpt>
      <trkpt lat="45.01859" lon="4.09403">
        <ele>1019.62</ele>
        <time>2022-04-14T11:34:28Z</time>
      </trkpt>
      <trkpt lat="45.01859" lon="4.09403">
        <ele>1019.62</ele>
        <time>2022-04-14T11:34:48Z</time>
      </trkpt>
      <trkpt lat="45.01859" lon="4.09404">
        <ele>1019.13</ele>
        <time>2022-04-14T11:35:09Z</time>
      </trkpt>
      <trkpt lat="45.01859" lon="4.09404">
        <ele>1020.58</ele>
        <time>2022-04-14T11:35:31Z</time>
      </trkpt>
      <trkpt lat="45.01861" lon="4.09411">
        <ele>1020.58</ele>
        <time>2022-04-14T11:35:48Z</time>
      </trkpt>
      <trkpt lat="45.01862" lon="4.09413">
        <ele>1020.58</ele>
        <time>2022-04-14T11:35:50Z</time>
      </trkpt>
      <trkpt lat="45.01865" lon="4.09418">
        <ele>1019.62</ele>
        <time>2022-04-14T11:35:54Z</time>
      </trkpt>
      <trkpt lat="45.01875" lon="4.09437">
        <ele>1018.65</ele>
        <time>2022-04-14T11:36:09Z</time>
      </trkpt>
      <trkpt lat="45.01883" lon="4.09446">
        <ele>1021.06</ele>
        <time>2022-04-14T11:36:19Z</time>
      </trkpt>
      <trkpt lat="45.01887" lon="4.09447">
        <ele>1021.54</ele>
        <time>2022-04-14T11:36:23Z</time>
      </trkpt>
      <trkpt lat="45.01906" lon="4.09455">
        <ele>1019.62</ele>
        <time>2022-04-14T11:36:37Z</time>
      </trkpt>
      <trkpt lat="45.01907" lon="4.09455">
        <ele>1019.62</ele>
        <time>2022-04-14T11:36:38Z</time>
      </trkpt>
      <trkpt lat="45.01917" lon="4.09458">
        <ele>1018.17</ele>
        <time>2022-04-14T11:36:45Z</time>
      </trkpt>
      <trkpt lat="45.01931" lon="4.09459">
        <ele>1016.25</ele>
        <time>2022-04-14T11:36:58Z</time>
      </trkpt>
      <trkpt lat="45.01941" lon="4.09468">
        <ele>1012.41</ele>
        <time>2022-04-14T11:37:08Z</time>
      </trkpt>
      <trkpt lat="45.01959" lon="4.09495">
        <ele>1004.23</ele>
        <time>2022-04-14T11:37:25Z</time>
      </trkpt>
      <trkpt lat="45.01962" lon="4.095">
        <ele>1002.79</ele>
        <time>2022-04-14T11:37:36Z</time>
      </trkpt>
      <trkpt lat="45.0197" lon="4.09525">
        <ele>1001.35</ele>
        <time>2022-04-14T11:37:52Z</time>
      </trkpt>
      <trkpt lat="45.01979" lon="4.09554">
        <ele>1000.87</ele>
        <time>2022-04-14T11:38:10Z</time>
      </trkpt>
      <trkpt lat="45.01985" lon="4.09569">
        <ele>1001.35</ele>
        <time>2022-04-14T11:38:26Z</time>
      </trkpt>
      <trkpt lat="45.01991" lon="4.09592">
        <ele>1000.39</ele>
        <time>2022-04-14T11:38:42Z</time>
      </trkpt>
      <trkpt lat="45.01993" lon="4.09601">
        <ele>1001.83</ele>
        <time>2022-04-14T11:38:53Z</time>
      </trkpt>
      <trkpt lat="45.01996" lon="4.09617">
        <ele>1003.27</ele>
        <time>2022-04-14T11:39:08Z</time>
      </trkpt>
      <trkpt lat="45.02001" lon="4.09624">
        <ele>1004.23</ele>
        <time>2022-04-14T11:39:21Z</time>
      </trkpt>
      <trkpt lat="45.02007" lon="4.09626">
        <ele>1004.72</ele>
        <time>2022-04-14T11:39:33Z</time>
      </trkpt>
      <trkpt lat="45.02021" lon="4.09635">
        <ele>1004.72</ele>
        <time>2022-04-14T11:39:47Z</time>
      </trkpt>
      <trkpt lat="45.02033" lon="4.09648">
        <ele>1007.12</ele>
        <time>2022-04-14T11:40:02Z</time>
      </trkpt>
      <trkpt lat="45.02038" lon="4.09655">
        <ele>1005.68</ele>
        <time>2022-04-14T11:40:10Z</time>
      </trkpt>
      <trkpt lat="45.02046" lon="4.09659">
        <ele>1004.72</ele>
        <time>2022-04-14T11:40:18Z</time>
      </trkpt>
      <trkpt lat="45.0206" lon="4.09665">
        <ele>1001.83</ele>
        <time>2022-04-14T11:40:32Z</time>
      </trkpt>
      <trkpt lat="45.02071" lon="4.09664">
        <ele>1002.79</ele>
        <time>2022-04-14T11:40:41Z</time>
      </trkpt>
      <trkpt lat="45.02087" lon="4.09665">
        <ele>1003.27</ele>
        <time>2022-04-14T11:40:55Z</time>
      </trkpt>
      <trkpt lat="45.02097" lon="4.09664">
        <ele>1004.23</ele>
        <time>2022-04-14T11:41:04Z</time>
      </trkpt>
      <trkpt lat="45.02115" lon="4.09666">
        <ele>1004.72</ele>
        <time>2022-04-14T11:41:20Z</time>
      </trkpt>
      <trkpt lat="45.02129" lon="4.09666">
        <ele>1005.68</ele>
        <time>2022-04-14T11:41:34Z</time>
      </trkpt>
      <trkpt lat="45.02134" lon="4.09664">
        <ele>1005.68</ele>
        <time>2022-04-14T11:41:38Z</time>
      </trkpt>
      <trkpt lat="45.02139" lon="4.09656">
        <ele>1005.2</ele>
        <time>2022-04-14T11:41:46Z</time>
      </trkpt>
      <trkpt lat="45.0214" lon="4.09645">
        <ele>1004.23</ele>
        <time>2022-04-14T11:42:00Z</time>
      </trkpt>
      <trkpt lat="45.0214" lon="4.09645">
        <ele>1002.79</ele>
        <time>2022-04-14T11:42:17Z</time>
      </trkpt>
      <trkpt lat="45.02139" lon="4.09646">
        <ele>1001.83</ele>
        <time>2022-04-14T11:42:40Z</time>
      </trkpt>
      <trkpt lat="45.02139" lon="4.09647">
        <ele>1000.87</ele>
        <time>2022-04-14T11:43:03Z</time>
      </trkpt>
      <trkpt lat="45.02139" lon="4.09646">
        <ele>1001.35</ele>
        <time>2022-04-14T11:43:20Z</time>
      </trkpt>
      <trkpt lat="45.0214" lon="4.09646">
        <ele>1001.83</ele>
        <time>2022-04-14T11:43:35Z</time>
      </trkpt>
      <trkpt lat="45.0214" lon="4.09646">
        <ele>1002.31</ele>
        <time>2022-04-14T11:43:46Z</time>
      </trkpt>
      <trkpt lat="45.02141" lon="4.09647">
        <ele>1002.79</ele>
        <time>2022-04-14T11:43:48Z</time>
      </trkpt>
      <trkpt lat="45.02153" lon="4.09657">
        <ele>1004.72</ele>
        <time>2022-04-14T11:44:03Z</time>
      </trkpt>
      <trkpt lat="45.02156" lon="4.09658">
        <ele>1004.23</ele>
        <time>2022-04-14T11:44:19Z</time>
      </trkpt>
      <trkpt lat="45.02164" lon="4.09652">
        <ele>1003.75</ele>
        <time>2022-04-14T11:44:30Z</time>
      </trkpt>
      <trkpt lat="45.0217" lon="4.09648">
        <ele>1002.79</ele>
        <time>2022-04-14T11:44:42Z</time>
      </trkpt>
      <trkpt lat="45.02172" lon="4.09647">
        <ele>1001.83</ele>
        <time>2022-04-14T11:45:03Z</time>
      </trkpt>
      <trkpt lat="45.02172" lon="4.09646">
        <ele>1001.83</ele>
        <time>2022-04-14T11:45:17Z</time>
      </trkpt>
      <trkpt lat="45.02172" lon="4.09646">
        <ele>1001.35</ele>
        <time>2022-04-14T11:45:31Z</time>
      </trkpt>
      <trkpt lat="45.02172" lon="4.09646">
        <ele>1001.83</ele>
        <time>2022-04-14T11:45:41Z</time>
      </trkpt>
      <trkpt lat="45.0217" lon="4.09655">
        <ele>1001.83</ele>
        <time>2022-04-14T11:45:47Z</time>
      </trkpt>
      <trkpt lat="45.02169" lon="4.09658">
        <ele>1002.31</ele>
        <time>2022-04-14T11:45:49Z</time>
      </trkpt>
      <trkpt lat="45.02171" lon="4.09675">
        <ele>1005.68</ele>
        <time>2022-04-14T11:46:03Z</time>
      </trkpt>
      <trkpt lat="45.02183" lon="4.09693">
        <ele>1010.96</ele>
        <time>2022-04-14T11:46:18Z</time>
      </trkpt>
      <trkpt lat="45.02187" lon="4.09695">
        <ele>1010.96</ele>
        <time>2022-04-14T11:46:30Z</time>
      </trkpt>
      <trkpt lat="45.02189" lon="4.09695">
        <ele>1010.48</ele>
        <time>2022-04-14T11:46:46Z</time>
      </trkpt>
      <trkpt lat="45.02189" lon="4.09695">
        <ele>1010.48</ele>
        <time>2022-04-14T11:46:47Z</time>
      </trkpt>
      <trkpt lat="45.0219" lon="4.09701">
        <ele>1010.48</ele>
        <time>2022-04-14T11:46:51Z</time>
      </trkpt>
      <trkpt lat="45.02203" lon="4.09715">
        <ele>1012.41</ele>
        <time>2022-04-14T11:47:07Z</time>
      </trkpt>
      <trkpt lat="45.02207" lon="4.09725">
        <ele>1010.48</ele>
        <time>2022-04-14T11:47:13Z</time>
      </trkpt>
      <trkpt lat="45.02204" lon="4.09732">
        <ele>1009.52</ele>
        <time>2022-04-14T11:47:18Z</time>
      </trkpt>
      <trkpt lat="45.02201" lon="4.09743">
        <ele>1009.04</ele>
        <time>2022-04-14T11:47:31Z</time>
      </trkpt>
      <trkpt lat="45.02198" lon="4.0976">
        <ele>1006.64</ele>
        <time>2022-04-14T11:47:44Z</time>
      </trkpt>
      <trkpt lat="45.0219" lon="4.0977">
        <ele>1009.04</ele>
        <time>2022-04-14T11:47:56Z</time>
      </trkpt>
      <trkpt lat="45.02187" lon="4.09776">
        <ele>1010.96</ele>
        <time>2022-04-14T11:48:11Z</time>
      </trkpt>
      <trkpt lat="45.02181" lon="4.09785">
        <ele>1011.93</ele>
        <time>2022-04-14T11:48:24Z</time>
      </trkpt>
      <trkpt lat="45.02172" lon="4.09807">
        <ele>1013.37</ele>
        <time>2022-04-14T11:48:37Z</time>
      </trkpt>
      <trkpt lat="45.02169" lon="4.09834">
        <ele>1014.33</ele>
        <time>2022-04-14T11:48:52Z</time>
      </trkpt>
      <trkpt lat="45.02165" lon="4.09855">
        <ele>1016.73</ele>
        <time>2022-04-14T11:49:07Z</time>
      </trkpt>
      <trkpt lat="45.02164" lon="4.09869">
        <ele>1017.69</ele>
        <time>2022-04-14T11:49:21Z</time>
      </trkpt>
      <trkpt lat="45.02165" lon="4.09877">
        <ele>1020.1</ele>
        <time>2022-04-14T11:49:32Z</time>
      </trkpt>
      <trkpt lat="45.02162" lon="4.09886">
        <ele>1022.02</ele>
        <time>2022-04-14T11:49:44Z</time>
      </trkpt>
      <trkpt lat="45.02161" lon="4.09893">
        <ele>1022.98</ele>
        <time>2022-04-14T11:49:57Z</time>
      </trkpt>
      <trkpt lat="45.02161" lon="4.09904">
        <ele>1025.38</ele>
        <time>2022-04-14T11:50:14Z</time>
      </trkpt>
      <trkpt lat="45.02158" lon="4.09914">
        <ele>1027.31</ele>
        <time>2022-04-14T11:50:31Z</time>
      </trkpt>
      <trkpt lat="45.02156" lon="4.0993">
        <ele>1030.19</ele>
        <time>2022-04-14T11:50:45Z</time>
      </trkpt>
      <trkpt lat="45.02152" lon="4.09942">
        <ele>1030.19</ele>
        <time>2022-04-14T11:50:58Z</time>
      </trkpt>
      <trkpt lat="45.0215" lon="4.0995">
        <ele>1032.11</ele>
        <time>2022-04-14T11:51:11Z</time>
      </trkpt>
      <trkpt lat="45.02148" lon="4.09969">
        <ele>1036.44</ele>
        <time>2022-04-14T11:51:30Z</time>
      </trkpt>
      <trkpt lat="45.02146" lon="4.09995">
        <ele>1039.32</ele>
        <time>2022-04-14T11:51:44Z</time>
      </trkpt>
      <trkpt lat="45.02142" lon="4.10024">
        <ele>1044.61</ele>
        <time>2022-04-14T11:51:59Z</time>
      </trkpt>
      <trkpt lat="45.02132" lon="4.10029">
        <ele>1046.05</ele>
        <time>2022-04-14T11:52:13Z</time>
      </trkpt>
      <trkpt lat="45.0213" lon="4.10034">
        <ele>1046.53</ele>
        <time>2022-04-14T11:52:16Z</time>
      </trkpt>
      <trkpt lat="45.02109" lon="4.10058">
        <ele>1046.05</ele>
        <time>2022-04-14T11:52:31Z</time>
      </trkpt>
      <trkpt lat="45.02096" lon="4.10067">
        <ele>1051.34</ele>
        <time>2022-04-14T11:52:47Z</time>
      </trkpt>
      <trkpt lat="45.02088" lon="4.10073">
        <ele>1051.34</ele>
        <time>2022-04-14T11:52:59Z</time>
      </trkpt>
      <trkpt lat="45.02077" lon="4.10086">
        <ele>1051.34</ele>
        <time>2022-04-14T11:53:14Z</time>
      </trkpt>
      <trkpt lat="45.02072" lon="4.10092">
        <ele>1052.3</ele>
        <time>2022-04-14T11:53:26Z</time>
      </trkpt>
      <trkpt lat="45.02063" lon="4.10102">
        <ele>1054.7</ele>
        <time>2022-04-14T11:53:39Z</time>
      </trkpt>
      <trkpt lat="45.02056" lon="4.10114">
        <ele>1057.11</ele>
        <time>2022-04-14T11:53:53Z</time>
      </trkpt>
      <trkpt lat="45.02051" lon="4.10122">
        <ele>1059.99</ele>
        <time>2022-04-14T11:54:08Z</time>
      </trkpt>
      <trkpt lat="45.02047" lon="4.1013">
        <ele>1062.39</ele>
        <time>2022-04-14T11:54:22Z</time>
      </trkpt>
      <trkpt lat="45.02043" lon="4.10149">
        <ele>1063.36</ele>
        <time>2022-04-14T11:54:35Z</time>
      </trkpt>
      <trkpt lat="45.02041" lon="4.10175">
        <ele>1065.76</ele>
        <time>2022-04-14T11:54:49Z</time>
      </trkpt>
      <trkpt lat="45.02042" lon="4.10185">
        <ele>1068.16</ele>
        <time>2022-04-14T11:55:06Z</time>
      </trkpt>
      <trkpt lat="45.02042" lon="4.1019">
        <ele>1068.64</ele>
        <time>2022-04-14T11:55:20Z</time>
      </trkpt>
      <trkpt lat="45.02049" lon="4.1021">
        <ele>1070.57</ele>
        <time>2022-04-14T11:55:34Z</time>
      </trkpt>
      <trkpt lat="45.02058" lon="4.10223">
        <ele>1072.97</ele>
        <time>2022-04-14T11:55:47Z</time>
      </trkpt>
      <trkpt lat="45.02072" lon="4.10232">
        <ele>1073.45</ele>
        <time>2022-04-14T11:55:59Z</time>
      </trkpt>
      <trkpt lat="45.02087" lon="4.10237">
        <ele>1074.41</ele>
        <time>2022-04-14T11:56:12Z</time>
      </trkpt>
      <trkpt lat="45.021" lon="4.10249">
        <ele>1078.26</ele>
        <time>2022-04-14T11:56:26Z</time>
      </trkpt>
      <trkpt lat="45.02106" lon="4.10252">
        <ele>1079.7</ele>
        <time>2022-04-14T11:56:39Z</time>
      </trkpt>
      <trkpt lat="45.02111" lon="4.10254">
        <ele>1082.1</ele>
        <time>2022-04-14T11:56:52Z</time>
      </trkpt>
      <trkpt lat="45.02115" lon="4.10258">
        <ele>1084.02</ele>
        <time>2022-04-14T11:57:06Z</time>
      </trkpt>
      <trkpt lat="45.02119" lon="4.10264">
        <ele>1085.95</ele>
        <time>2022-04-14T11:57:20Z</time>
      </trkpt>
      <trkpt lat="45.02119" lon="4.10265">
        <ele>1085.47</ele>
        <time>2022-04-14T11:57:45Z</time>
      </trkpt>
      <trkpt lat="45.0212" lon="4.10265">
        <ele>1086.43</ele>
        <time>2022-04-14T11:58:06Z</time>
      </trkpt>
      <trkpt lat="45.02121" lon="4.10266">
        <ele>1086.43</ele>
        <time>2022-04-14T11:58:24Z</time>
      </trkpt>
      <trkpt lat="45.02121" lon="4.10265">
        <ele>1086.43</ele>
        <time>2022-04-14T11:58:40Z</time>
      </trkpt>
      <trkpt lat="45.02121" lon="4.10265">
        <ele>1086.43</ele>
        <time>2022-04-14T11:59:06Z</time>
      </trkpt>
      <trkpt lat="45.02127" lon="4.10276">
        <ele>1087.39</ele>
        <time>2022-04-14T11:59:17Z</time>
      </trkpt>
      <trkpt lat="45.02126" lon="4.10288">
        <ele>1085.95</ele>
        <time>2022-04-14T11:59:26Z</time>
      </trkpt>
      <trkpt lat="45.02124" lon="4.10303">
        <ele>1084.99</ele>
        <time>2022-04-14T11:59:38Z</time>
      </trkpt>
      <trkpt lat="45.02126" lon="4.10319">
        <ele>1085.47</ele>
        <time>2022-04-14T11:59:47Z</time>
      </trkpt>
      <trkpt lat="45.02121" lon="4.10344">
        <ele>1085.47</ele>
        <time>2022-04-14T12:00:01Z</time>
      </trkpt>
      <trkpt lat="45.02119" lon="4.10346">
        <ele>1084.99</ele>
        <time>2022-04-14T12:00:04Z</time>
      </trkpt>
      <trkpt lat="45.02118" lon="4.10349">
        <ele>1084.99</ele>
        <time>2022-04-14T12:00:06Z</time>
      </trkpt>
      <trkpt lat="45.02113" lon="4.10359">
        <ele>1084.02</ele>
        <time>2022-04-14T12:00:14Z</time>
      </trkpt>
      <trkpt lat="45.02105" lon="4.10376">
        <ele>1081.62</ele>
        <time>2022-04-14T12:00:24Z</time>
      </trkpt>
      <trkpt lat="45.02097" lon="4.10396">
        <ele>1081.14</ele>
        <time>2022-04-14T12:00:35Z</time>
      </trkpt>
      <trkpt lat="45.02095" lon="4.10399">
        <ele>1080.66</ele>
        <time>2022-04-14T12:00:37Z</time>
      </trkpt>
      <trkpt lat="45.02092" lon="4.1041">
        <ele>1078.74</ele>
        <time>2022-04-14T12:00:43Z</time>
      </trkpt>
      <trkpt lat="45.02088" lon="4.10431">
        <ele>1073.45</ele>
        <time>2022-04-14T12:00:58Z</time>
      </trkpt>
      <trkpt lat="45.02086" lon="4.10441">
        <ele>1072.01</ele>
        <time>2022-04-14T12:01:04Z</time>
      </trkpt>
      <trkpt lat="45.02087" lon="4.10456">
        <ele>1072.01</ele>
        <time>2022-04-14T12:01:12Z</time>
      </trkpt>
      <trkpt lat="45.02084" lon="4.10463">
        <ele>1072.49</ele>
        <time>2022-04-14T12:01:17Z</time>
      </trkpt>
      <trkpt lat="45.02079" lon="4.10475">
        <ele>1074.89</ele>
        <time>2022-04-14T12:01:31Z</time>
      </trkpt>
      <trkpt lat="45.02078" lon="4.10496">
        <ele>1080.18</ele>
        <time>2022-04-14T12:01:45Z</time>
      </trkpt>
      <trkpt lat="45.02076" lon="4.10515">
        <ele>1084.02</ele>
        <time>2022-04-14T12:01:58Z</time>
      </trkpt>
      <trkpt lat="45.0207" lon="4.10523">
        <ele>1086.43</ele>
        <time>2022-04-14T12:02:11Z</time>
      </trkpt>
      <trkpt lat="45.02066" lon="4.10539">
        <ele>1089.31</ele>
        <time>2022-04-14T12:02:24Z</time>
      </trkpt>
      <trkpt lat="45.02064" lon="4.1055">
        <ele>1091.23</ele>
        <time>2022-04-14T12:02:36Z</time>
      </trkpt>
      <trkpt lat="45.02061" lon="4.1057">
        <ele>1098.92</ele>
        <time>2022-04-14T12:02:49Z</time>
      </trkpt>
      <trkpt lat="45.02055" lon="4.10581">
        <ele>1103.73</ele>
        <time>2022-04-14T12:03:04Z</time>
      </trkpt>
      <trkpt lat="45.02062" lon="4.106">
        <ele>1109.5</ele>
        <time>2022-04-14T12:03:18Z</time>
      </trkpt>
      <trkpt lat="45.0206" lon="4.10609">
        <ele>1110.94</ele>
        <time>2022-04-14T12:03:32Z</time>
      </trkpt>
      <trkpt lat="45.0206" lon="4.10615">
        <ele>1112.38</ele>
        <time>2022-04-14T12:03:47Z</time>
      </trkpt>
      <trkpt lat="45.02063" lon="4.10619">
        <ele>1111.9</ele>
        <time>2022-04-14T12:04:00Z</time>
      </trkpt>
      <trkpt lat="45.02068" lon="4.10622">
        <ele>1110.46</ele>
        <time>2022-04-14T12:04:13Z</time>
      </trkpt>
      <trkpt lat="45.02072" lon="4.10623">
        <ele>1109.98</ele>
        <time>2022-04-14T12:04:29Z</time>
      </trkpt>
      <trkpt lat="45.02077" lon="4.10625">
        <ele>1110.46</ele>
        <time>2022-04-14T12:04:44Z</time>
      </trkpt>
      <trkpt lat="45.02081" lon="4.10628">
        <ele>1110.46</ele>
        <time>2022-04-14T12:05:00Z</time>
      </trkpt>
      <trkpt lat="45.02096" lon="4.10638">
        <ele>1110.94</ele>
        <time>2022-04-14T12:05:14Z</time>
      </trkpt>
      <trkpt lat="45.0211" lon="4.10644">
        <ele>1111.42</ele>
        <time>2022-04-14T12:05:28Z</time>
      </trkpt>
      <trkpt lat="45.0212" lon="4.10649">
        <ele>1111.9</ele>
        <time>2022-04-14T12:05:42Z</time>
      </trkpt>
      <trkpt lat="45.02127" lon="4.10655">
        <ele>1111.9</ele>
        <time>2022-04-14T12:05:59Z</time>
      </trkpt>
      <trkpt lat="45.02133" lon="4.10664">
        <ele>1116.23</ele>
        <time>2022-04-14T12:06:16Z</time>
      </trkpt>
      <trkpt lat="45.02132" lon="4.10681">
        <ele>1119.11</ele>
        <time>2022-04-14T12:06:30Z</time>
      </trkpt>
      <trkpt lat="45.02131" lon="4.10701">
        <ele>1123.44</ele>
        <time>2022-04-14T12:06:44Z</time>
      </trkpt>
      <trkpt lat="45.02129" lon="4.10708">
        <ele>1124.4</ele>
        <time>2022-04-14T12:06:59Z</time>
      </trkpt>
      <trkpt lat="45.02132" lon="4.10736">
        <ele>1126.8</ele>
        <time>2022-04-14T12:07:16Z</time>
      </trkpt>
      <trkpt lat="45.02131" lon="4.10739">
        <ele>1127.28</ele>
        <time>2022-04-14T12:07:21Z</time>
      </trkpt>
      <trkpt lat="45.02141" lon="4.10742">
        <ele>1128.24</ele>
        <time>2022-04-14T12:07:34Z</time>
      </trkpt>
      <trkpt lat="45.02145" lon="4.10742">
        <ele>1131.13</ele>
        <time>2022-04-14T12:07:47Z</time>
      </trkpt>
      <trkpt lat="45.02145" lon="4.10742">
        <ele>1131.61</ele>
        <time>2022-04-14T12:07:53Z</time>
      </trkpt>
      <trkpt lat="45.02144" lon="4.10742">
        <ele>1131.61</ele>
        <time>2022-04-14T12:07:55Z</time>
      </trkpt>
      <trkpt lat="45.02133" lon="4.10747">
        <ele>1131.61</ele>
        <time>2022-04-14T12:08:09Z</time>
      </trkpt>
      <trkpt lat="45.02124" lon="4.10748">
        <ele>1134.97</ele>
        <time>2022-04-14T12:08:25Z</time>
      </trkpt>
      <trkpt lat="45.02122" lon="4.10749">
        <ele>1136.42</ele>
        <time>2022-04-14T12:08:38Z</time>
      </trkpt>
      <trkpt lat="45.02121" lon="4.10749">
        <ele>1137.38</ele>
        <time>2022-04-14T12:08:55Z</time>
      </trkpt>
      <trkpt lat="45.02121" lon="4.10749">
        <ele>1137.86</ele>
        <time>2022-04-14T12:09:12Z</time>
      </trkpt>
      <trkpt lat="45.02123" lon="4.10748">
        <ele>1137.86</ele>
        <time>2022-04-14T12:09:14Z</time>
      </trkpt>
      <trkpt lat="45.02136" lon="4.10747">
        <ele>1138.82</ele>
        <time>2022-04-14T12:09:26Z</time>
      </trkpt>
      <trkpt lat="45.02145" lon="4.10746">
        <ele>1140.26</ele>
        <time>2022-04-14T12:09:39Z</time>
      </trkpt>
      <trkpt lat="45.02158" lon="4.1075">
        <ele>1141.7</ele>
        <time>2022-04-14T12:09:54Z</time>
      </trkpt>
      <trkpt lat="45.02171" lon="4.10756">
        <ele>1145.55</ele>
        <time>2022-04-14T12:10:07Z</time>
      </trkpt>
      <trkpt lat="45.02184" lon="4.10758">
        <ele>1145.55</ele>
        <time>2022-04-14T12:10:22Z</time>
      </trkpt>
      <trkpt lat="45.02201" lon="4.10767">
        <ele>1150.35</ele>
        <time>2022-04-14T12:10:36Z</time>
      </trkpt>
      <trkpt lat="45.02212" lon="4.10771">
        <ele>1155.16</ele>
        <time>2022-04-14T12:10:48Z</time>
      </trkpt>
      <trkpt lat="45.02226" lon="4.10777">
        <ele>1160.45</ele>
        <time>2022-04-14T12:11:02Z</time>
      </trkpt>
      <trkpt lat="45.02234" lon="4.10781">
        <ele>1160.45</ele>
        <time>2022-04-14T12:11:16Z</time>
      </trkpt>
      <trkpt lat="45.02247" lon="4.10783">
        <ele>1161.89</ele>
        <time>2022-04-14T12:11:32Z</time>
      </trkpt>
      <trkpt lat="45.02256" lon="4.10787">
        <ele>1162.85</ele>
        <time>2022-04-14T12:11:46Z</time>
      </trkpt>
      <trkpt lat="45.02279" lon="4.10807">
        <ele>1162.85</ele>
        <time>2022-04-14T12:12:03Z</time>
      </trkpt>
      <trkpt lat="45.02285" lon="4.10813">
        <ele>1162.85</ele>
        <time>2022-04-14T12:12:09Z</time>
      </trkpt>
      <trkpt lat="45.023" lon="4.10828">
        <ele>1165.26</ele>
        <time>2022-04-14T12:12:23Z</time>
      </trkpt>
      <trkpt lat="45.02301" lon="4.10852">
        <ele>1165.74</ele>
        <time>2022-04-14T12:12:39Z</time>
      </trkpt>
      <trkpt lat="45.02297" lon="4.10863">
        <ele>1164.29</ele>
        <time>2022-04-14T12:12:54Z</time>
      </trkpt>
      <trkpt lat="45.02296" lon="4.10868">
        <ele>1163.81</ele>
        <time>2022-04-14T12:13:10Z</time>
      </trkpt>
      <trkpt lat="45.02297" lon="4.10874">
        <ele>1166.22</ele>
        <time>2022-04-14T12:13:26Z</time>
      </trkpt>
      <trkpt lat="45.02305" lon="4.10901">
        <ele>1168.14</ele>
        <time>2022-04-14T12:13:44Z</time>
      </trkpt>
      <trkpt lat="45.02309" lon="4.10916">
        <ele>1167.66</ele>
        <time>2022-04-14T12:13:56Z</time>
      </trkpt>
      <trkpt lat="45.02311" lon="4.10927">
        <ele>1166.22</ele>
        <time>2022-04-14T12:14:09Z</time>
      </trkpt>
      <trkpt lat="45.02315" lon="4.10942">
        <ele>1165.26</ele>
        <time>2022-04-14T12:14:22Z</time>
      </trkpt>
      <trkpt lat="45.02321" lon="4.10958">
        <ele>1164.29</ele>
        <time>2022-04-14T12:14:34Z</time>
      </trkpt>
      <trkpt lat="45.02328" lon="4.10971">
        <ele>1164.77</ele>
        <time>2022-04-14T12:14:49Z</time>
      </trkpt>
      <trkpt lat="45.02331" lon="4.10978">
        <ele>1165.26</ele>
        <time>2022-04-14T12:15:00Z</time>
      </trkpt>
      <trkpt lat="45.02335" lon="4.10987">
        <ele>1165.26</ele>
        <time>2022-04-14T12:15:17Z</time>
      </trkpt>
      <trkpt lat="45.02338" lon="4.10998">
        <ele>1166.22</ele>
        <time>2022-04-14T12:15:31Z</time>
      </trkpt>
      <trkpt lat="45.02342" lon="4.11015">
        <ele>1165.74</ele>
        <time>2022-04-14T12:15:51Z</time>
      </trkpt>
      <trkpt lat="45.02349" lon="4.11022">
        <ele>1165.26</ele>
        <time>2022-04-14T12:16:04Z</time>
      </trkpt>
      <trkpt lat="45.0235" lon="4.11023">
        <ele>1165.26</ele>
        <time>2022-04-14T12:16:08Z</time>
      </trkpt>
      <trkpt lat="45.02361" lon="4.11042">
        <ele>1164.29</ele>
        <time>2022-04-14T12:16:22Z</time>
      </trkpt>
      <trkpt lat="45.02366" lon="4.11049">
        <ele>1164.29</ele>
        <time>2022-04-14T12:16:33Z</time>
      </trkpt>
      <trkpt lat="45.02372" lon="4.11057">
        <ele>1165.26</ele>
        <time>2022-04-14T12:16:46Z</time>
      </trkpt>
      <trkpt lat="45.02375" lon="4.11058">
        <ele>1165.74</ele>
        <time>2022-04-14T12:17:01Z</time>
      </trkpt>
      <trkpt lat="45.02382" lon="4.11068">
        <ele>1165.74</ele>
        <time>2022-04-14T12:17:14Z</time>
      </trkpt>
      <trkpt lat="45.02393" lon="4.11083">
        <ele>1165.74</ele>
        <time>2022-04-14T12:17:26Z</time>
      </trkpt>
      <trkpt lat="45.0241" lon="4.11096">
        <ele>1165.74</ele>
        <time>2022-04-14T12:17:39Z</time>
      </trkpt>
      <trkpt lat="45.02438" lon="4.11126">
        <ele>1173.91</ele>
        <time>2022-04-14T12:17:52Z</time>
      </trkpt>
      <trkpt lat="45.02453" lon="4.11131">
        <ele>1179.19</ele>
        <time>2022-04-14T12:18:07Z</time>
      </trkpt>
      <trkpt lat="45.02463" lon="4.11137">
        <ele>1177.75</ele>
        <time>2022-04-14T12:18:22Z</time>
      </trkpt>
      <trkpt lat="45.02471" lon="4.11146">
        <ele>1176.79</ele>
        <time>2022-04-14T12:18:34Z</time>
      </trkpt>
      <trkpt lat="45.02478" lon="4.11153">
        <ele>1177.27</ele>
        <time>2022-04-14T12:18:41Z</time>
      </trkpt>
      <trkpt lat="45.0249" lon="4.11172">
        <ele>1176.31</ele>
        <time>2022-04-14T12:18:57Z</time>
      </trkpt>
      <trkpt lat="45.02496" lon="4.11184">
        <ele>1174.39</ele>
        <time>2022-04-14T12:19:10Z</time>
      </trkpt>
      <trkpt lat="45.02504" lon="4.11198">
        <ele>1174.87</ele>
        <time>2022-04-14T12:19:20Z</time>
      </trkpt>
      <trkpt lat="45.02507" lon="4.11205">
        <ele>1174.87</ele>
        <time>2022-04-14T12:19:25Z</time>
      </trkpt>
      <trkpt lat="45.02518" lon="4.11222">
        <ele>1174.39</ele>
        <time>2022-04-14T12:19:37Z</time>
      </trkpt>
      <trkpt lat="45.02525" lon="4.11239">
        <ele>1174.87</ele>
        <time>2022-04-14T12:19:50Z</time>
      </trkpt>
      <trkpt lat="45.0253" lon="4.11255">
        <ele>1175.35</ele>
        <time>2022-04-14T12:20:07Z</time>
      </trkpt>
      <trkpt lat="45.02539" lon="4.1127">
        <ele>1177.27</ele>
        <time>2022-04-14T12:20:21Z</time>
      </trkpt>
      <trkpt lat="45.0255" lon="4.1129">
        <ele>1179.19</ele>
        <time>2022-04-14T12:20:33Z</time>
      </trkpt>
      <trkpt lat="45.02557" lon="4.11299">
        <ele>1179.67</ele>
        <time>2022-04-14T12:20:45Z</time>
      </trkpt>
      <trkpt lat="45.02562" lon="4.11309">
        <ele>1180.64</ele>
        <time>2022-04-14T12:20:59Z</time>
      </trkpt>
      <trkpt lat="45.02569" lon="4.11326">
        <ele>1181.6</ele>
        <time>2022-04-14T12:21:12Z</time>
      </trkpt>
      <trkpt lat="45.02576" lon="4.11345">
        <ele>1181.6</ele>
        <time>2022-04-14T12:21:23Z</time>
      </trkpt>
      <trkpt lat="45.02586" lon="4.11374">
        <ele>1183.04</ele>
        <time>2022-04-14T12:21:38Z</time>
      </trkpt>
      <trkpt lat="45.0259" lon="4.11386">
        <ele>1184.48</ele>
        <time>2022-04-14T12:21:55Z</time>
      </trkpt>
      <trkpt lat="45.02592" lon="4.11385">
        <ele>1185.44</ele>
        <time>2022-04-14T12:22:10Z</time>
      </trkpt>
      <trkpt lat="45.02594" lon="4.11378">
        <ele>1186.88</ele>
        <time>2022-04-14T12:22:22Z</time>
      </trkpt>
      <trkpt lat="45.02595" lon="4.11373">
        <ele>1187.37</ele>
        <time>2022-04-14T12:22:26Z</time>
      </trkpt>
      <trkpt lat="45.026" lon="4.11357">
        <ele>1189.77</ele>
        <time>2022-04-14T12:22:38Z</time>
      </trkpt>
      <trkpt lat="45.02602" lon="4.11333">
        <ele>1188.33</ele>
        <time>2022-04-14T12:22:53Z</time>
      </trkpt>
      <trkpt lat="45.02604" lon="4.1131">
        <ele>1184.96</ele>
        <time>2022-04-14T12:23:08Z</time>
      </trkpt>
      <trkpt lat="45.02607" lon="4.11296">
        <ele>1181.12</ele>
        <time>2022-04-14T12:23:21Z</time>
      </trkpt>
      <trkpt lat="45.02608" lon="4.11288">
        <ele>1179.67</ele>
        <time>2022-04-14T12:23:34Z</time>
      </trkpt>
      <trkpt lat="45.02609" lon="4.11281">
        <ele>1181.6</ele>
        <time>2022-04-14T12:23:51Z</time>
      </trkpt>
      <trkpt lat="45.02609" lon="4.11272">
        <ele>1184</ele>
        <time>2022-04-14T12:24:03Z</time>
      </trkpt>
      <trkpt lat="45.02611" lon="4.11257">
        <ele>1187.85</ele>
        <time>2022-04-14T12:24:14Z</time>
      </trkpt>
      <trkpt lat="45.02609" lon="4.11251">
        <ele>1189.29</ele>
        <time>2022-04-14T12:24:17Z</time>
      </trkpt>
      <trkpt lat="45.02609" lon="4.11229">
        <ele>1191.21</ele>
        <time>2022-04-14T12:24:31Z</time>
      </trkpt>
      <trkpt lat="45.02614" lon="4.11217">
        <ele>1193.61</ele>
        <time>2022-04-14T12:24:45Z</time>
      </trkpt>
      <trkpt lat="45.02614" lon="4.11216">
        <ele>1193.61</ele>
        <time>2022-04-14T12:24:46Z</time>
      </trkpt>
      <trkpt lat="45.02623" lon="4.11208">
        <ele>1193.61</ele>
        <time>2022-04-14T12:24:58Z</time>
      </trkpt>
      <trkpt lat="45.02628" lon="4.11203">
        <ele>1193.61</ele>
        <time>2022-04-14T12:25:11Z</time>
      </trkpt>
      <trkpt lat="45.02633" lon="4.11199">
        <ele>1194.09</ele>
        <time>2022-04-14T12:25:24Z</time>
      </trkpt>
      <trkpt lat="45.0264" lon="4.11191">
        <ele>1196.02</ele>
        <time>2022-04-14T12:25:38Z</time>
      </trkpt>
      <trkpt lat="45.02652" lon="4.1118">
        <ele>1195.06</ele>
        <time>2022-04-14T12:25:52Z</time>
      </trkpt>
      <trkpt lat="45.02657" lon="4.11176">
        <ele>1193.61</ele>
        <time>2022-04-14T12:26:07Z</time>
      </trkpt>
      <trkpt lat="45.0266" lon="4.1117">
        <ele>1193.61</ele>
        <time>2022-04-14T12:26:22Z</time>
      </trkpt>
      <trkpt lat="45.02664" lon="4.11163">
        <ele>1193.61</ele>
        <time>2022-04-14T12:26:34Z</time>
      </trkpt>
      <trkpt lat="45.0267" lon="4.11156">
        <ele>1194.58</ele>
        <time>2022-04-14T12:26:51Z</time>
      </trkpt>
      <trkpt lat="45.02671" lon="4.11139">
        <ele>1191.69</ele>
        <time>2022-04-14T12:27:04Z</time>
      </trkpt>
      <trkpt lat="45.02668" lon="4.11116">
        <ele>1189.77</ele>
        <time>2022-04-14T12:27:17Z</time>
      </trkpt>
      <trkpt lat="45.02672" lon="4.11101">
        <ele>1184.96</ele>
        <time>2022-04-14T12:27:31Z</time>
      </trkpt>
      <trkpt lat="45.0267" lon="4.11082">
        <ele>1172.95</ele>
        <time>2022-04-14T12:27:44Z</time>
      </trkpt>
      <trkpt lat="45.02668" lon="4.11073">
        <ele>1163.33</ele>
        <time>2022-04-14T12:27:53Z</time>
      </trkpt>
      <trkpt lat="45.02661" lon="4.11055">
        <ele>1155.64</ele>
        <time>2022-04-14T12:28:07Z</time>
      </trkpt>
      <trkpt lat="45.02659" lon="4.11049">
        <ele>1150.84</ele>
        <time>2022-04-14T12:28:19Z</time>
      </trkpt>
      <trkpt lat="45.02654" lon="4.11043">
        <ele>1146.03</ele>
        <time>2022-04-14T12:28:28Z</time>
      </trkpt>
      <trkpt lat="45.02637" lon="4.11029">
        <ele>1142.66</ele>
        <time>2022-04-14T12:28:41Z</time>
      </trkpt>
      <trkpt lat="45.02628" lon="4.11017">
        <ele>1138.34</ele>
        <time>2022-04-14T12:28:55Z</time>
      </trkpt>
      <trkpt lat="45.0262" lon="4.11003">
        <ele>1133.05</ele>
        <time>2022-04-14T12:29:07Z</time>
      </trkpt>
      <trkpt lat="45.0261" lon="4.10985">
        <ele>1128.73</ele>
        <time>2022-04-14T12:29:20Z</time>
      </trkpt>
      <trkpt lat="45.02602" lon="4.1097">
        <ele>1128.24</ele>
        <time>2022-04-14T12:29:28Z</time>
      </trkpt>
      <trkpt lat="45.02596" lon="4.10946">
        <ele>1127.76</ele>
        <time>2022-04-14T12:29:44Z</time>
      </trkpt>
      <trkpt lat="45.02592" lon="4.1093">
        <ele>1127.28</ele>
        <time>2022-04-14T12:29:58Z</time>
      </trkpt>
      <trkpt lat="45.02592" lon="4.10915">
        <ele>1126.32</ele>
        <time>2022-04-14T12:30:12Z</time>
      </trkpt>
      <trkpt lat="45.02593" lon="4.10897">
        <ele>1123.44</ele>
        <time>2022-04-14T12:30:26Z</time>
      </trkpt>
      <trkpt lat="45.0259" lon="4.10882">
        <ele>1119.11</ele>
        <time>2022-04-14T12:30:38Z</time>
      </trkpt>
      <trkpt lat="45.02586" lon="4.10872">
        <ele>1117.19</ele>
        <time>2022-04-14T12:30:49Z</time>
      </trkpt>
      <trkpt lat="45.02593" lon="4.10864">
        <ele>1119.11</ele>
        <time>2022-04-14T12:31:01Z</time>
      </trkpt>
      <trkpt lat="45.02597" lon="4.10862">
        <ele>1121.03</ele>
        <time>2022-04-14T12:31:17Z</time>
      </trkpt>
      <trkpt lat="45.02601" lon="4.10854">
        <ele>1123.92</ele>
        <time>2022-04-14T12:31:24Z</time>
      </trkpt>
      <trkpt lat="45.02612" lon="4.1084">
        <ele>1124.4</ele>
        <time>2022-04-14T12:31:37Z</time>
      </trkpt>
      <trkpt lat="45.0262" lon="4.10834">
        <ele>1122.48</ele>
        <time>2022-04-14T12:31:46Z</time>
      </trkpt>
      <trkpt lat="45.02633" lon="4.10835">
        <ele>1111.9</ele>
        <time>2022-04-14T12:32:00Z</time>
      </trkpt>
      <trkpt lat="45.02639" lon="4.10834">
        <ele>1113.34</ele>
        <time>2022-04-14T12:32:12Z</time>
      </trkpt>
      <trkpt lat="45.02644" lon="4.10825">
        <ele>1114.31</ele>
        <time>2022-04-14T12:32:17Z</time>
      </trkpt>
      <trkpt lat="45.02647" lon="4.10824">
        <ele>1113.82</ele>
        <time>2022-04-14T12:32:19Z</time>
      </trkpt>
      <trkpt lat="45.02655" lon="4.10817">
        <ele>1113.34</ele>
        <time>2022-04-14T12:32:25Z</time>
      </trkpt>
      <trkpt lat="45.02657" lon="4.10814">
        <ele>1113.34</ele>
        <time>2022-04-14T12:32:27Z</time>
      </trkpt>
      <trkpt lat="45.02663" lon="4.1081">
        <ele>1113.34</ele>
        <time>2022-04-14T12:32:31Z</time>
      </trkpt>
      <trkpt lat="45.02669" lon="4.10805">
        <ele>1112.86</ele>
        <time>2022-04-14T12:32:36Z</time>
      </trkpt>
      <trkpt lat="45.02677" lon="4.108">
        <ele>1112.38</ele>
        <time>2022-04-14T12:32:48Z</time>
      </trkpt>
      <trkpt lat="45.02683" lon="4.10784">
        <ele>1110.46</ele>
        <time>2022-04-14T12:33:00Z</time>
      </trkpt>
      <trkpt lat="45.0269" lon="4.10766">
        <ele>1108.06</ele>
        <time>2022-04-14T12:33:13Z</time>
      </trkpt>
      <trkpt lat="45.02692" lon="4.10761">
        <ele>1105.65</ele>
        <time>2022-04-14T12:33:16Z</time>
      </trkpt>
      <trkpt lat="45.02692" lon="4.10739">
        <ele>1102.29</ele>
        <time>2022-04-14T12:33:31Z</time>
      </trkpt>
      <trkpt lat="45.02694" lon="4.10734">
        <ele>1103.73</ele>
        <time>2022-04-14T12:33:35Z</time>
      </trkpt>
      <trkpt lat="45.02691" lon="4.10714">
        <ele>1105.17</ele>
        <time>2022-04-14T12:33:49Z</time>
      </trkpt>
      <trkpt lat="45.02687" lon="4.10702">
        <ele>1107.1</ele>
        <time>2022-04-14T12:34:02Z</time>
      </trkpt>
      <trkpt lat="45.0269" lon="4.10697">
        <ele>1107.58</ele>
        <time>2022-04-14T12:34:06Z</time>
      </trkpt>
      <trkpt lat="45.02698" lon="4.10686">
        <ele>1108.06</ele>
        <time>2022-04-14T12:34:15Z</time>
      </trkpt>
      <trkpt lat="45.02712" lon="4.10671">
        <ele>1109.02</ele>
        <time>2022-04-14T12:34:29Z</time>
      </trkpt>
      <trkpt lat="45.02717" lon="4.1067">
        <ele>1108.54</ele>
        <time>2022-04-14T12:34:37Z</time>
      </trkpt>
      <trkpt lat="45.02723" lon="4.10672">
        <ele>1105.65</ele>
        <time>2022-04-14T12:34:50Z</time>
      </trkpt>
      <trkpt lat="45.02733" lon="4.10671">
        <ele>1097.48</ele>
        <time>2022-04-14T12:35:05Z</time>
      </trkpt>
      <trkpt lat="45.02741" lon="4.10673">
        <ele>1092.2</ele>
        <time>2022-04-14T12:35:19Z</time>
      </trkpt>
      <trkpt lat="45.02749" lon="4.10674">
        <ele>1093.16</ele>
        <time>2022-04-14T12:35:33Z</time>
      </trkpt>
      <trkpt lat="45.02758" lon="4.10676">
        <ele>1093.64</ele>
        <time>2022-04-14T12:35:48Z</time>
      </trkpt>
      <trkpt lat="45.02765" lon="4.10676">
        <ele>1094.6</ele>
        <time>2022-04-14T12:36:02Z</time>
      </trkpt>
      <trkpt lat="45.0277" lon="4.10678">
        <ele>1094.12</ele>
        <time>2022-04-14T12:36:17Z</time>
      </trkpt>
      <trkpt lat="45.0278" lon="4.10681">
        <ele>1094.12</ele>
        <time>2022-04-14T12:36:30Z</time>
      </trkpt>
      <trkpt lat="45.02788" lon="4.10681">
        <ele>1095.56</ele>
        <time>2022-04-14T12:36:45Z</time>
      </trkpt>
      <trkpt lat="45.02794" lon="4.10681">
        <ele>1096.52</ele>
        <time>2022-04-14T12:37:03Z</time>
      </trkpt>
      <trkpt lat="45.02797" lon="4.10684">
        <ele>1096.52</ele>
        <time>2022-04-14T12:37:17Z</time>
      </trkpt>
      <trkpt lat="45.02797" lon="4.10691">
        <ele>1097</ele>
        <time>2022-04-14T12:37:33Z</time>
      </trkpt>
      <trkpt lat="45.02796" lon="4.10697">
        <ele>1096.52</ele>
        <time>2022-04-14T12:37:38Z</time>
      </trkpt>
      <trkpt lat="45.02791" lon="4.10709">
        <ele>1097.96</ele>
        <time>2022-04-14T12:37:44Z</time>
      </trkpt>
      <trkpt lat="45.02788" lon="4.10719">
        <ele>1099.89</ele>
        <time>2022-04-14T12:37:48Z</time>
      </trkpt>
      <trkpt lat="45.02787" lon="4.10727">
        <ele>1100.37</ele>
        <time>2022-04-14T12:37:51Z</time>
      </trkpt>
      <trkpt lat="45.02784" lon="4.1073">
        <ele>1100.85</ele>
        <time>2022-04-14T12:37:53Z</time>
      </trkpt>
      <trkpt lat="45.02774" lon="4.10759">
        <ele>1100.85</ele>
        <time>2022-04-14T12:38:06Z</time>
      </trkpt>
      <trkpt lat="45.02773" lon="4.10761">
        <ele>1101.33</ele>
        <time>2022-04-14T12:38:08Z</time>
      </trkpt>
      <trkpt lat="45.02764" lon="4.10763">
        <ele>1103.25</ele>
        <time>2022-04-14T12:38:20Z</time>
      </trkpt>
      <trkpt lat="45.02752" lon="4.10771">
        <ele>1101.81</ele>
        <time>2022-04-14T12:38:36Z</time>
      </trkpt>
      <trkpt lat="45.02754" lon="4.10773">
        <ele>1100.37</ele>
        <time>2022-04-14T12:38:50Z</time>
      </trkpt>
      <trkpt lat="45.02757" lon="4.10774">
        <ele>1099.4</ele>
        <time>2022-04-14T12:39:04Z</time>
      </trkpt>
      <trkpt lat="45.02761" lon="4.10774">
        <ele>1098.92</ele>
        <time>2022-04-14T12:39:07Z</time>
      </trkpt>
      <trkpt lat="45.02781" lon="4.10771">
        <ele>1094.12</ele>
        <time>2022-04-14T12:39:23Z</time>
      </trkpt>
      <trkpt lat="45.0279" lon="4.10774">
        <ele>1094.6</ele>
        <time>2022-04-14T12:39:36Z</time>
      </trkpt>
      <trkpt lat="45.02805" lon="4.10773">
        <ele>1094.12</ele>
        <time>2022-04-14T12:39:49Z</time>
      </trkpt>
      <trkpt lat="45.02817" lon="4.10774">
        <ele>1093.16</ele>
        <time>2022-04-14T12:40:01Z</time>
      </trkpt>
      <trkpt lat="45.02821" lon="4.10776">
        <ele>1090.75</ele>
        <time>2022-04-14T12:40:15Z</time>
      </trkpt>
      <trkpt lat="45.02826" lon="4.10779">
        <ele>1089.79</ele>
        <time>2022-04-14T12:40:31Z</time>
      </trkpt>
      <trkpt lat="45.02827" lon="4.1078">
        <ele>1089.31</ele>
        <time>2022-04-14T12:40:33Z</time>
      </trkpt>
      <trkpt lat="45.02839" lon="4.10785">
        <ele>1088.35</ele>
        <time>2022-04-14T12:40:47Z</time>
      </trkpt>
      <trkpt lat="45.02849" lon="4.10792">
        <ele>1088.35</ele>
        <time>2022-04-14T12:40:59Z</time>
      </trkpt>
      <trkpt lat="45.02857" lon="4.10798">
        <ele>1087.87</ele>
        <time>2022-04-14T12:41:13Z</time>
      </trkpt>
      <trkpt lat="45.02865" lon="4.10802">
        <ele>1088.83</ele>
        <time>2022-04-14T12:41:29Z</time>
      </trkpt>
      <trkpt lat="45.02875" lon="4.10803">
        <ele>1088.83</ele>
        <time>2022-04-14T12:41:45Z</time>
      </trkpt>
      <trkpt lat="45.02883" lon="4.10804">
        <ele>1090.27</ele>
        <time>2022-04-14T12:42:01Z</time>
      </trkpt>
      <trkpt lat="45.02889" lon="4.10805">
        <ele>1089.79</ele>
        <time>2022-04-14T12:42:17Z</time>
      </trkpt>
      <trkpt lat="45.02893" lon="4.10805">
        <ele>1088.83</ele>
        <time>2022-04-14T12:42:30Z</time>
      </trkpt>
      <trkpt lat="45.02911" lon="4.10806">
        <ele>1086.43</ele>
        <time>2022-04-14T12:42:45Z</time>
      </trkpt>
      <trkpt lat="45.02936" lon="4.10802">
        <ele>1085.47</ele>
        <time>2022-04-14T12:42:59Z</time>
      </trkpt>
      <trkpt lat="45.02956" lon="4.10803">
        <ele>1084.5</ele>
        <time>2022-04-14T12:43:11Z</time>
      </trkpt>
      <trkpt lat="45.0297" lon="4.10802">
        <ele>1084.02</ele>
        <time>2022-04-14T12:43:24Z</time>
      </trkpt>
      <trkpt lat="45.02979" lon="4.10805">
        <ele>1083.54</ele>
        <time>2022-04-14T12:43:40Z</time>
      </trkpt>
      <trkpt lat="45.02988" lon="4.10808">
        <ele>1083.54</ele>
        <time>2022-04-14T12:43:58Z</time>
      </trkpt>
      <trkpt lat="45.02996" lon="4.10814">
        <ele>1083.54</ele>
        <time>2022-04-14T12:44:12Z</time>
      </trkpt>
      <trkpt lat="45.03063" lon="4.10845">
        <ele>1113.34</ele>
        <time>2022-04-14T12:44:25Z</time>
      </trkpt>
      <trkpt lat="45.03073" lon="4.1085">
        <ele>1122.48</ele>
        <time>2022-04-14T12:44:37Z</time>
      </trkpt>
      <trkpt lat="45.03087" lon="4.10848">
        <ele>1122</ele>
        <time>2022-04-14T12:44:51Z</time>
      </trkpt>
      <trkpt lat="45.03099" lon="4.10842">
        <ele>1119.59</ele>
        <time>2022-04-14T12:45:00Z</time>
      </trkpt>
      <trkpt lat="45.03124" lon="4.10829">
        <ele>1125.36</ele>
        <time>2022-04-14T12:45:16Z</time>
      </trkpt>
      <trkpt lat="45.03142" lon="4.10821">
        <ele>1128.24</ele>
        <time>2022-04-14T12:45:32Z</time>
      </trkpt>
      <trkpt lat="45.03157" lon="4.10816">
        <ele>1131.61</ele>
        <time>2022-04-14T12:45:44Z</time>
      </trkpt>
      <trkpt lat="45.03168" lon="4.10812">
        <ele>1132.57</ele>
        <time>2022-04-14T12:45:54Z</time>
      </trkpt>
      <trkpt lat="45.03182" lon="4.10812">
        <ele>1132.57</ele>
        <time>2022-04-14T12:46:08Z</time>
      </trkpt>
      <trkpt lat="45.03189" lon="4.10809">
        <ele>1131.13</ele>
        <time>2022-04-14T12:46:20Z</time>
      </trkpt>
      <trkpt lat="45.03205" lon="4.108">
        <ele>1128.24</ele>
        <time>2022-04-14T12:46:36Z</time>
      </trkpt>
      <trkpt lat="45.03205" lon="4.10799">
        <ele>1128.73</ele>
        <time>2022-04-14T12:46:55Z</time>
      </trkpt>
      <trkpt lat="45.03208" lon="4.10798">
        <ele>1128.73</ele>
        <time>2022-04-14T12:47:09Z</time>
      </trkpt>
      <trkpt lat="45.03208" lon="4.10797">
        <ele>1128.73</ele>
        <time>2022-04-14T12:47:25Z</time>
      </trkpt>
      <trkpt lat="45.0321" lon="4.10797">
        <ele>1128.24</ele>
        <time>2022-04-14T12:47:42Z</time>
      </trkpt>
      <trkpt lat="45.03222" lon="4.10786">
        <ele>1128.73</ele>
        <time>2022-04-14T12:47:55Z</time>
      </trkpt>
      <trkpt lat="45.03234" lon="4.10776">
        <ele>1128.73</ele>
        <time>2022-04-14T12:48:06Z</time>
      </trkpt>
      <trkpt lat="45.03243" lon="4.10759">
        <ele>1128.73</ele>
        <time>2022-04-14T12:48:20Z</time>
      </trkpt>
      <trkpt lat="45.03264" lon="4.10738">
        <ele>1128.24</ele>
        <time>2022-04-14T12:48:35Z</time>
      </trkpt>
      <trkpt lat="45.03291" lon="4.10723">
        <ele>1128.73</ele>
        <time>2022-04-14T12:48:50Z</time>
      </trkpt>
      <trkpt lat="45.03306" lon="4.10715">
        <ele>1128.73</ele>
        <time>2022-04-14T12:49:01Z</time>
      </trkpt>
      <trkpt lat="45.03316" lon="4.10706">
        <ele>1129.21</ele>
        <time>2022-04-14T12:49:12Z</time>
      </trkpt>
      <trkpt lat="45.03334" lon="4.10694">
        <ele>1131.61</ele>
        <time>2022-04-14T12:49:27Z</time>
      </trkpt>
      <trkpt lat="45.03342" lon="4.10685">
        <ele>1131.13</ele>
        <time>2022-04-14T12:49:43Z</time>
      </trkpt>
      <trkpt lat="45.0337" lon="4.10658">
        <ele>1135.94</ele>
        <time>2022-04-14T12:49:58Z</time>
      </trkpt>
      <trkpt lat="45.0339" lon="4.10638">
        <ele>1144.11</ele>
        <time>2022-04-14T12:50:12Z</time>
      </trkpt>
      <trkpt lat="45.03394" lon="4.10635">
        <ele>1143.14</ele>
        <time>2022-04-14T12:50:22Z</time>
      </trkpt>
      <trkpt lat="45.03398" lon="4.10633">
        <ele>1144.11</ele>
        <time>2022-04-14T12:50:25Z</time>
      </trkpt>
      <trkpt lat="45.03416" lon="4.10618">
        <ele>1147.47</ele>
        <time>2022-04-14T12:50:39Z</time>
      </trkpt>
      <trkpt lat="45.03428" lon="4.10605">
        <ele>1148.43</ele>
        <time>2022-04-14T12:50:52Z</time>
      </trkpt>
      <trkpt lat="45.03432" lon="4.10601">
        <ele>1148.43</ele>
        <time>2022-04-14T12:50:56Z</time>
      </trkpt>
      <trkpt lat="45.03434" lon="4.10599">
        <ele>1148.43</ele>
        <time>2022-04-14T12:50:58Z</time>
      </trkpt>
      <trkpt lat="45.03437" lon="4.10595">
        <ele>1148.43</ele>
        <time>2022-04-14T12:51:01Z</time>
      </trkpt>
      <trkpt lat="45.03443" lon="4.10579">
        <ele>1149.87</ele>
        <time>2022-04-14T12:51:14Z</time>
      </trkpt>
      <trkpt lat="45.03451" lon="4.10565">
        <ele>1148.91</ele>
        <time>2022-04-14T12:51:27Z</time>
      </trkpt>
      <trkpt lat="45.03458" lon="4.10546">
        <ele>1149.39</ele>
        <time>2022-04-14T12:51:42Z</time>
      </trkpt>
      <trkpt lat="45.03463" lon="4.10536">
        <ele>1147.47</ele>
        <time>2022-04-14T12:51:49Z</time>
      </trkpt>
      <trkpt lat="45.03466" lon="4.10526">
        <ele>1146.51</ele>
        <time>2022-04-14T12:51:55Z</time>
      </trkpt>
      <trkpt lat="45.03472" lon="4.10509">
        <ele>1145.55</ele>
        <time>2022-04-14T12:52:08Z</time>
      </trkpt>
      <trkpt lat="45.03478" lon="4.10496">
        <ele>1144.59</ele>
        <time>2022-04-14T12:52:20Z</time>
      </trkpt>
      <trkpt lat="45.03482" lon="4.10481">
        <ele>1142.18</ele>
        <time>2022-04-14T12:52:32Z</time>
      </trkpt>
      <trkpt lat="45.03486" lon="4.10461">
        <ele>1143.63</ele>
        <time>2022-04-14T12:52:44Z</time>
      </trkpt>
      <trkpt lat="45.03491" lon="4.1044">
        <ele>1142.66</ele>
        <time>2022-04-14T12:52:58Z</time>
      </trkpt>
      <trkpt lat="45.03503" lon="4.10414">
        <ele>1138.34</ele>
        <time>2022-04-14T12:53:11Z</time>
      </trkpt>
      <trkpt lat="45.03508" lon="4.10406">
        <ele>1137.38</ele>
        <time>2022-04-14T12:53:16Z</time>
      </trkpt>
      <trkpt lat="45.03516" lon="4.10388">
        <ele>1134.49</ele>
        <time>2022-04-14T12:53:29Z</time>
      </trkpt>
      <trkpt lat="45.03525" lon="4.10378">
        <ele>1133.05</ele>
        <time>2022-04-14T12:53:43Z</time>
      </trkpt>
      <trkpt lat="45.03539" lon="4.10362">
        <ele>1132.57</ele>
        <time>2022-04-14T12:53:56Z</time>
      </trkpt>
      <trkpt lat="45.03552" lon="4.10345">
        <ele>1132.09</ele>
        <time>2022-04-14T12:54:09Z</time>
      </trkpt>
      <trkpt lat="45.03567" lon="4.10333">
        <ele>1128.24</ele>
        <time>2022-04-14T12:54:22Z</time>
      </trkpt>
      <trkpt lat="45.03582" lon="4.10324">
        <ele>1123.44</ele>
        <time>2022-04-14T12:54:35Z</time>
      </trkpt>
      <trkpt lat="45.03585" lon="4.1032">
        <ele>1122.96</ele>
        <time>2022-04-14T12:54:38Z</time>
      </trkpt>
      <trkpt lat="45.03599" lon="4.10306">
        <ele>1121.52</ele>
        <time>2022-04-14T12:54:52Z</time>
      </trkpt>
      <trkpt lat="45.036" lon="4.10305">
        <ele>1121.52</ele>
        <time>2022-04-14T12:54:53Z</time>
      </trkpt>
      <trkpt lat="45.03609" lon="4.1029">
        <ele>1124.88</ele>
        <time>2022-04-14T12:55:07Z</time>
      </trkpt>
      <trkpt lat="45.03615" lon="4.10275">
        <ele>1121.52</ele>
        <time>2022-04-14T12:55:22Z</time>
      </trkpt>
      <trkpt lat="45.03622" lon="4.10252">
        <ele>1117.19</ele>
        <time>2022-04-14T12:55:37Z</time>
      </trkpt>
      <trkpt lat="45.03624" lon="4.10244">
        <ele>1116.71</ele>
        <time>2022-04-14T12:55:42Z</time>
      </trkpt>
      <trkpt lat="45.03627" lon="4.10229">
        <ele>1116.23</ele>
        <time>2022-04-14T12:55:51Z</time>
      </trkpt>
      <trkpt lat="45.0363" lon="4.10221">
        <ele>1115.27</ele>
        <time>2022-04-14T12:55:56Z</time>
      </trkpt>
      <trkpt lat="45.03635" lon="4.10208">
        <ele>1113.34</ele>
        <time>2022-04-14T12:56:05Z</time>
      </trkpt>
      <trkpt lat="45.03642" lon="4.10196">
        <ele>1111.9</ele>
        <time>2022-04-14T12:56:14Z</time>
      </trkpt>
      <trkpt lat="45.03657" lon="4.10175">
        <ele>1107.1</ele>
        <time>2022-04-14T12:56:28Z</time>
      </trkpt>
      <trkpt lat="45.03676" lon="4.10161">
        <ele>1101.33</ele>
        <time>2022-04-14T12:56:44Z</time>
      </trkpt>
      <trkpt lat="45.03692" lon="4.10152">
        <ele>1100.37</ele>
        <time>2022-04-14T12:56:58Z</time>
      </trkpt>
      <trkpt lat="45.03702" lon="4.1015">
        <ele>1098.44</ele>
        <time>2022-04-14T12:57:05Z</time>
      </trkpt>
      <trkpt lat="45.03714" lon="4.10145">
        <ele>1097.48</ele>
        <time>2022-04-14T12:57:14Z</time>
      </trkpt>
      <trkpt lat="45.03718" lon="4.10142">
        <ele>1097</ele>
        <time>2022-04-14T12:57:18Z</time>
      </trkpt>
      <trkpt lat="45.03737" lon="4.10138">
        <ele>1097.48</ele>
        <time>2022-04-14T12:57:34Z</time>
      </trkpt>
      <trkpt lat="45.03759" lon="4.10134">
        <ele>1097.48</ele>
        <time>2022-04-14T12:57:52Z</time>
      </trkpt>
      <trkpt lat="45.03781" lon="4.10133">
        <ele>1095.08</ele>
        <time>2022-04-14T12:58:09Z</time>
      </trkpt>
      <trkpt lat="45.03803" lon="4.1013">
        <ele>1096.04</ele>
        <time>2022-04-14T12:58:25Z</time>
      </trkpt>
      <trkpt lat="45.03825" lon="4.10127">
        <ele>1096.52</ele>
        <time>2022-04-14T12:58:41Z</time>
      </trkpt>
      <trkpt lat="45.0385" lon="4.10127">
        <ele>1096.52</ele>
        <time>2022-04-14T12:58:59Z</time>
      </trkpt>
      <trkpt lat="45.03871" lon="4.10124">
        <ele>1097.48</ele>
        <time>2022-04-14T12:59:15Z</time>
      </trkpt>
      <trkpt lat="45.03883" lon="4.10128">
        <ele>1096.52</ele>
        <time>2022-04-14T12:59:27Z</time>
      </trkpt>
      <trkpt lat="45.03888" lon="4.10157">
        <ele>1099.89</ele>
        <time>2022-04-14T12:59:43Z</time>
      </trkpt>
      <trkpt lat="45.03888" lon="4.10185">
        <ele>1101.81</ele>
        <time>2022-04-14T12:59:59Z</time>
      </trkpt>
      <trkpt lat="45.03891" lon="4.10202">
        <ele>1104.21</ele>
        <time>2022-04-14T13:00:09Z</time>
      </trkpt>
      <trkpt lat="45.03891" lon="4.10208">
        <ele>1105.17</ele>
        <time>2022-04-14T13:00:12Z</time>
      </trkpt>
      <trkpt lat="45.03892" lon="4.10235">
        <ele>1109.98</ele>
        <time>2022-04-14T13:00:28Z</time>
      </trkpt>
      <trkpt lat="45.03888" lon="4.10256">
        <ele>1114.31</ele>
        <time>2022-04-14T13:00:44Z</time>
      </trkpt>
      <trkpt lat="45.03886" lon="4.10275">
        <ele>1115.75</ele>
        <time>2022-04-14T13:00:57Z</time>
      </trkpt>
      <trkpt lat="45.03883" lon="4.10289">
        <ele>1117.19</ele>
        <time>2022-04-14T13:01:08Z</time>
      </trkpt>
      <trkpt lat="45.03881" lon="4.10294">
        <ele>1117.19</ele>
        <time>2022-04-14T13:01:20Z</time>
      </trkpt>
      <trkpt lat="45.0388" lon="4.10296">
        <ele>1117.67</ele>
        <time>2022-04-14T13:01:29Z</time>
      </trkpt>
      <trkpt lat="45.03881" lon="4.10324">
        <ele>1116.71</ele>
        <time>2022-04-14T13:01:45Z</time>
      </trkpt>
      <trkpt lat="45.03882" lon="4.10325">
        <ele>1116.23</ele>
        <time>2022-04-14T13:01:46Z</time>
      </trkpt>
      <trkpt lat="45.03883" lon="4.10332">
        <ele>1116.23</ele>
        <time>2022-04-14T13:01:51Z</time>
      </trkpt>
      <trkpt lat="45.03882" lon="4.10353">
        <ele>1116.71</ele>
        <time>2022-04-14T13:02:05Z</time>
      </trkpt>
      <trkpt lat="45.03882" lon="4.10366">
        <ele>1117.67</ele>
        <time>2022-04-14T13:02:14Z</time>
      </trkpt>
      <trkpt lat="45.03884" lon="4.10383">
        <ele>1119.11</ele>
        <time>2022-04-14T13:02:27Z</time>
      </trkpt>
      <trkpt lat="45.03886" lon="4.104">
        <ele>1122.48</ele>
        <time>2022-04-14T13:02:40Z</time>
      </trkpt>
      <trkpt lat="45.03886" lon="4.10402">
        <ele>1123.44</ele>
        <time>2022-04-14T13:02:47Z</time>
      </trkpt>
      <trkpt lat="45.03886" lon="4.10414">
        <ele>1125.84</ele>
        <time>2022-04-14T13:03:00Z</time>
      </trkpt>
      <trkpt lat="45.03889" lon="4.10427">
        <ele>1127.28</ele>
        <time>2022-04-14T13:03:14Z</time>
      </trkpt>
      <trkpt lat="45.0389" lon="4.10436">
        <ele>1126.8</ele>
        <time>2022-04-14T13:03:28Z</time>
      </trkpt>
      <trkpt lat="45.0389" lon="4.10441">
        <ele>1128.73</ele>
        <time>2022-04-14T13:03:43Z</time>
      </trkpt>
      <trkpt lat="45.03892" lon="4.10444">
        <ele>1131.61</ele>
        <time>2022-04-14T13:04:10Z</time>
      </trkpt>
      <trkpt lat="45.03895" lon="4.10449">
        <ele>1131.13</ele>
        <time>2022-04-14T13:04:40Z</time>
      </trkpt>
      <trkpt lat="45.03894" lon="4.10453">
        <ele>1130.17</ele>
        <time>2022-04-14T13:05:03Z</time>
      </trkpt>
      <trkpt lat="45.03894" lon="4.10453">
        <ele>1130.17</ele>
        <time>2022-04-14T13:05:27Z</time>
      </trkpt>
      <trkpt lat="45.03894" lon="4.10456">
        <ele>1133.05</ele>
        <time>2022-04-14T13:05:50Z</time>
      </trkpt>
      <trkpt lat="45.03893" lon="4.10457">
        <ele>1134.01</ele>
        <time>2022-04-14T13:05:55Z</time>
      </trkpt>
      <trkpt lat="45.03888" lon="4.10474">
        <ele>1137.86</ele>
        <time>2022-04-14T13:06:08Z</time>
      </trkpt>
      <trkpt lat="45.03876" lon="4.10491">
        <ele>1141.22</ele>
        <time>2022-04-14T13:06:23Z</time>
      </trkpt>
      <trkpt lat="45.03868" lon="4.10504">
        <ele>1144.59</ele>
        <time>2022-04-14T13:06:33Z</time>
      </trkpt>
      <trkpt lat="45.03864" lon="4.10515">
        <ele>1148.43</ele>
        <time>2022-04-14T13:06:39Z</time>
      </trkpt>
      <trkpt lat="45.03857" lon="4.1053">
        <ele>1153.24</ele>
        <time>2022-04-14T13:06:54Z</time>
      </trkpt>
      <trkpt lat="45.03853" lon="4.10534">
        <ele>1154.68</ele>
        <time>2022-04-14T13:06:59Z</time>
      </trkpt>
      <trkpt lat="45.03839" lon="4.10551">
        <ele>1161.89</ele>
        <time>2022-04-14T13:07:15Z</time>
      </trkpt>
      <trkpt lat="45.03827" lon="4.10568">
        <ele>1167.66</ele>
        <time>2022-04-14T13:07:29Z</time>
      </trkpt>
      <trkpt lat="45.03821" lon="4.10577">
        <ele>1170.06</ele>
        <time>2022-04-14T13:07:37Z</time>
      </trkpt>
      <trkpt lat="45.03816" lon="4.10588">
        <ele>1176.79</ele>
        <time>2022-04-14T13:07:46Z</time>
      </trkpt>
      <trkpt lat="45.03812" lon="4.1061">
        <ele>1184</ele>
        <time>2022-04-14T13:07:59Z</time>
      </trkpt>
      <trkpt lat="45.03805" lon="4.10618">
        <ele>1184.48</ele>
        <time>2022-04-14T13:08:08Z</time>
      </trkpt>
      <trkpt lat="45.03791" lon="4.10627">
        <ele>1183.52</ele>
        <time>2022-04-14T13:08:22Z</time>
      </trkpt>
      <trkpt lat="45.03773" lon="4.10642">
        <ele>1189.29</ele>
        <time>2022-04-14T13:08:35Z</time>
      </trkpt>
      <trkpt lat="45.03767" lon="4.10643">
        <ele>1190.25</ele>
        <time>2022-04-14T13:08:49Z</time>
      </trkpt>
      <trkpt lat="45.03755" lon="4.10651">
        <ele>1190.25</ele>
        <time>2022-04-14T13:09:04Z</time>
      </trkpt>
      <trkpt lat="45.0375" lon="4.10655">
        <ele>1191.21</ele>
        <time>2022-04-14T13:09:18Z</time>
      </trkpt>
      <trkpt lat="45.03738" lon="4.1066">
        <ele>1190.25</ele>
        <time>2022-04-14T13:09:31Z</time>
      </trkpt>
      <trkpt lat="45.03735" lon="4.10663">
        <ele>1190.25</ele>
        <time>2022-04-14T13:09:34Z</time>
      </trkpt>
      <trkpt lat="45.03719" lon="4.10668">
        <ele>1187.85</ele>
        <time>2022-04-14T13:09:48Z</time>
      </trkpt>
      <trkpt lat="45.03715" lon="4.10674">
        <ele>1189.29</ele>
        <time>2022-04-14T13:09:50Z</time>
      </trkpt>
      <trkpt lat="45.03704" lon="4.10692">
        <ele>1194.09</ele>
        <time>2022-04-14T13:09:59Z</time>
      </trkpt>
      <trkpt lat="45.03702" lon="4.10696">
        <ele>1195.06</ele>
        <time>2022-04-14T13:10:01Z</time>
      </trkpt>
      <trkpt lat="45.03696" lon="4.10713">
        <ele>1196.5</ele>
        <time>2022-04-14T13:10:12Z</time>
      </trkpt>
      <trkpt lat="45.0368" lon="4.1073">
        <ele>1202.75</ele>
        <time>2022-04-14T13:10:27Z</time>
      </trkpt>
      <trkpt lat="45.03677" lon="4.10733">
        <ele>1203.71</ele>
        <time>2022-04-14T13:10:31Z</time>
      </trkpt>
      <trkpt lat="45.03666" lon="4.10758">
        <ele>1202.75</ele>
        <time>2022-04-14T13:10:46Z</time>
      </trkpt>
      <trkpt lat="45.03653" lon="4.10777">
        <ele>1202.75</ele>
        <time>2022-04-14T13:10:59Z</time>
      </trkpt>
      <trkpt lat="45.03641" lon="4.10792">
        <ele>1202.75</ele>
        <time>2022-04-14T13:11:12Z</time>
      </trkpt>
      <trkpt lat="45.03628" lon="4.10809">
        <ele>1204.67</ele>
        <time>2022-04-14T13:11:26Z</time>
      </trkpt>
      <trkpt lat="45.03624" lon="4.10814">
        <ele>1205.15</ele>
        <time>2022-04-14T13:11:30Z</time>
      </trkpt>
      <trkpt lat="45.03615" lon="4.10835">
        <ele>1205.63</ele>
        <time>2022-04-14T13:11:44Z</time>
      </trkpt>
      <trkpt lat="45.0361" lon="4.1084">
        <ele>1206.59</ele>
        <time>2022-04-14T13:11:48Z</time>
      </trkpt>
      <trkpt lat="45.03608" lon="4.10844">
        <ele>1208.03</ele>
        <time>2022-04-14T13:11:51Z</time>
      </trkpt>
      <trkpt lat="45.03603" lon="4.10853">
        <ele>1210.44</ele>
        <time>2022-04-14T13:11:57Z</time>
      </trkpt>
      <trkpt lat="45.03592" lon="4.10868">
        <ele>1213.8</ele>
        <time>2022-04-14T13:12:10Z</time>
      </trkpt>
      <trkpt lat="45.0359" lon="4.10876">
        <ele>1214.76</ele>
        <time>2022-04-14T13:12:15Z</time>
      </trkpt>
      <trkpt lat="45.03589" lon="4.1088">
        <ele>1214.76</ele>
        <time>2022-04-14T13:12:18Z</time>
      </trkpt>
      <trkpt lat="45.03583" lon="4.109">
        <ele>1220.05</ele>
        <time>2022-04-14T13:12:31Z</time>
      </trkpt>
      <trkpt lat="45.03574" lon="4.10911">
        <ele>1221.49</ele>
        <time>2022-04-14T13:12:43Z</time>
      </trkpt>
      <trkpt lat="45.03573" lon="4.10911">
        <ele>1221.49</ele>
        <time>2022-04-14T13:12:44Z</time>
      </trkpt>
      <trkpt lat="45.03566" lon="4.10921">
        <ele>1222.93</ele>
        <time>2022-04-14T13:13:00Z</time>
      </trkpt>
      <trkpt lat="45.03559" lon="4.10934">
        <ele>1225.82</ele>
        <time>2022-04-14T13:13:12Z</time>
      </trkpt>
      <trkpt lat="45.03558" lon="4.10938">
        <ele>1226.3</ele>
        <time>2022-04-14T13:13:15Z</time>
      </trkpt>
      <trkpt lat="45.03551" lon="4.10956">
        <ele>1228.7</ele>
        <time>2022-04-14T13:13:30Z</time>
      </trkpt>
      <trkpt lat="45.03544" lon="4.1097">
        <ele>1228.22</ele>
        <time>2022-04-14T13:13:44Z</time>
      </trkpt>
      <trkpt lat="45.03542" lon="4.10975">
        <ele>1228.22</ele>
        <time>2022-04-14T13:13:48Z</time>
      </trkpt>
      <trkpt lat="45.03536" lon="4.10995">
        <ele>1228.22</ele>
        <time>2022-04-14T13:14:00Z</time>
      </trkpt>
      <trkpt lat="45.03532" lon="4.11003">
        <ele>1228.7</ele>
        <time>2022-04-14T13:14:08Z</time>
      </trkpt>
      <trkpt lat="45.03528" lon="4.11009">
        <ele>1229.18</ele>
        <time>2022-04-14T13:14:12Z</time>
      </trkpt>
      <trkpt lat="45.03519" lon="4.11029">
        <ele>1228.7</ele>
        <time>2022-04-14T13:14:25Z</time>
      </trkpt>
      <trkpt lat="45.03513" lon="4.11041">
        <ele>1232.07</ele>
        <time>2022-04-14T13:14:37Z</time>
      </trkpt>
      <trkpt lat="45.03509" lon="4.11045">
        <ele>1234.95</ele>
        <time>2022-04-14T13:14:45Z</time>
      </trkpt>
      <trkpt lat="45.03488" lon="4.11063">
        <ele>1242.16</ele>
        <time>2022-04-14T13:14:59Z</time>
      </trkpt>
      <trkpt lat="45.03483" lon="4.11071">
        <ele>1242.64</ele>
        <time>2022-04-14T13:15:12Z</time>
      </trkpt>
      <trkpt lat="45.03483" lon="4.11072">
        <ele>1241.68</ele>
        <time>2022-04-14T13:15:24Z</time>
      </trkpt>
      <trkpt lat="45.03474" lon="4.11076">
        <ele>1237.83</ele>
        <time>2022-04-14T13:15:38Z</time>
      </trkpt>
      <trkpt lat="45.03474" lon="4.11075">
        <ele>1236.87</ele>
        <time>2022-04-14T13:15:54Z</time>
      </trkpt>
      <trkpt lat="45.03475" lon="4.11075">
        <ele>1234.95</ele>
        <time>2022-04-14T13:16:18Z</time>
      </trkpt>
      <trkpt lat="45.03477" lon="4.11076">
        <ele>1231.11</ele>
        <time>2022-04-14T13:16:49Z</time>
      </trkpt>
      <trkpt lat="45.03478" lon="4.11077">
        <ele>1228.22</ele>
        <time>2022-04-14T13:17:16Z</time>
      </trkpt>
      <trkpt lat="45.03477" lon="4.11077">
        <ele>1224.86</ele>
        <time>2022-04-14T13:17:44Z</time>
      </trkpt>
      <trkpt lat="45.03475" lon="4.11075">
        <ele>1224.38</ele>
        <time>2022-04-14T13:18:11Z</time>
      </trkpt>
      <trkpt lat="45.03474" lon="4.11077">
        <ele>1223.9</ele>
        <time>2022-04-14T13:18:23Z</time>
      </trkpt>
      <trkpt lat="45.03467" lon="4.11088">
        <ele>1222.45</ele>
        <time>2022-04-14T13:18:34Z</time>
      </trkpt>
      <trkpt lat="45.03459" lon="4.11097">
        <ele>1222.93</ele>
        <time>2022-04-14T13:18:41Z</time>
      </trkpt>
      <trkpt lat="45.03446" lon="4.11113">
        <ele>1223.42</ele>
        <time>2022-04-14T13:18:55Z</time>
      </trkpt>
      <trkpt lat="45.03443" lon="4.11117">
        <ele>1222.93</ele>
        <time>2022-04-14T13:19:00Z</time>
      </trkpt>
      <trkpt lat="45.0343" lon="4.11131">
        <ele>1222.93</ele>
        <time>2022-04-14T13:19:14Z</time>
      </trkpt>
      <trkpt lat="45.0342" lon="4.11136">
        <ele>1222.45</ele>
        <time>2022-04-14T13:19:22Z</time>
      </trkpt>
      <trkpt lat="45.03409" lon="4.1115">
        <ele>1222.45</ele>
        <time>2022-04-14T13:19:35Z</time>
      </trkpt>
      <trkpt lat="45.034" lon="4.11162">
        <ele>1223.42</ele>
        <time>2022-04-14T13:19:46Z</time>
      </trkpt>
      <trkpt lat="45.0339" lon="4.11169">
        <ele>1223.9</ele>
        <time>2022-04-14T13:19:56Z</time>
      </trkpt>
      <trkpt lat="45.03382" lon="4.11178">
        <ele>1225.82</ele>
        <time>2022-04-14T13:20:02Z</time>
      </trkpt>
      <trkpt lat="45.0338" lon="4.11181">
        <ele>1225.34</ele>
        <time>2022-04-14T13:20:04Z</time>
      </trkpt>
      <trkpt lat="45.03369" lon="4.11199">
        <ele>1229.18</ele>
        <time>2022-04-14T13:20:19Z</time>
      </trkpt>
      <trkpt lat="45.03367" lon="4.11204">
        <ele>1229.18</ele>
        <time>2022-04-14T13:20:22Z</time>
      </trkpt>
      <trkpt lat="45.03352" lon="4.11228">
        <ele>1228.7</ele>
        <time>2022-04-14T13:20:37Z</time>
      </trkpt>
      <trkpt lat="45.03348" lon="4.11234">
        <ele>1229.18</ele>
        <time>2022-04-14T13:20:53Z</time>
      </trkpt>
      <trkpt lat="45.03348" lon="4.11235">
        <ele>1229.66</ele>
        <time>2022-04-14T13:20:54Z</time>
      </trkpt>
      <trkpt lat="45.03335" lon="4.11243">
        <ele>1226.78</ele>
        <time>2022-04-14T13:21:08Z</time>
      </trkpt>
      <trkpt lat="45.03334" lon="4.11243">
        <ele>1226.78</ele>
        <time>2022-04-14T13:21:09Z</time>
      </trkpt>
      <trkpt lat="45.03321" lon="4.11262">
        <ele>1225.34</ele>
        <time>2022-04-14T13:21:22Z</time>
      </trkpt>
      <trkpt lat="45.03311" lon="4.11281">
        <ele>1226.78</ele>
        <time>2022-04-14T13:21:34Z</time>
      </trkpt>
      <trkpt lat="45.03309" lon="4.11284">
        <ele>1227.26</ele>
        <time>2022-04-14T13:21:36Z</time>
      </trkpt>
      <trkpt lat="45.03295" lon="4.11303">
        <ele>1226.3</ele>
        <time>2022-04-14T13:21:51Z</time>
      </trkpt>
      <trkpt lat="45.03285" lon="4.11317">
        <ele>1228.7</ele>
        <time>2022-04-14T13:22:02Z</time>
      </trkpt>
      <trkpt lat="45.03268" lon="4.11331">
        <ele>1227.26</ele>
        <time>2022-04-14T13:22:16Z</time>
      </trkpt>
      <trkpt lat="45.0326" lon="4.11354">
        <ele>1228.22</ele>
        <time>2022-04-14T13:22:31Z</time>
      </trkpt>
      <trkpt lat="45.03254" lon="4.11381">
        <ele>1228.7</ele>
        <time>2022-04-14T13:22:47Z</time>
      </trkpt>
      <trkpt lat="45.03244" lon="4.11406">
        <ele>1231.59</ele>
        <time>2022-04-14T13:23:03Z</time>
      </trkpt>
      <trkpt lat="45.03243" lon="4.11413">
        <ele>1233.03</ele>
        <time>2022-04-14T13:23:07Z</time>
      </trkpt>
      <trkpt lat="45.03244" lon="4.11434">
        <ele>1236.39</ele>
        <time>2022-04-14T13:23:20Z</time>
      </trkpt>
      <trkpt lat="45.03243" lon="4.11459">
        <ele>1234.47</ele>
        <time>2022-04-14T13:23:34Z</time>
      </trkpt>
      <trkpt lat="45.03237" lon="4.1148">
        <ele>1231.59</ele>
        <time>2022-04-14T13:23:46Z</time>
      </trkpt>
      <trkpt lat="45.03235" lon="4.11489">
        <ele>1230.62</ele>
        <time>2022-04-14T13:23:50Z</time>
      </trkpt>
      <trkpt lat="45.03228" lon="4.11504">
        <ele>1230.62</ele>
        <time>2022-04-14T13:23:57Z</time>
      </trkpt>
      <trkpt lat="45.03218" lon="4.11531">
        <ele>1228.22</ele>
        <time>2022-04-14T13:24:11Z</time>
      </trkpt>
      <trkpt lat="45.03215" lon="4.11538">
        <ele>1227.26</ele>
        <time>2022-04-14T13:24:15Z</time>
      </trkpt>
      <trkpt lat="45.03209" lon="4.11569">
        <ele>1224.86</ele>
        <time>2022-04-14T13:24:32Z</time>
      </trkpt>
      <trkpt lat="45.03205" lon="4.11596">
        <ele>1225.82</ele>
        <time>2022-04-14T13:24:48Z</time>
      </trkpt>
      <trkpt lat="45.03205" lon="4.11599">
        <ele>1226.78</ele>
        <time>2022-04-14T13:24:50Z</time>
      </trkpt>
      <trkpt lat="45.03203" lon="4.11604">
        <ele>1227.74</ele>
        <time>2022-04-14T13:24:54Z</time>
      </trkpt>
      <trkpt lat="45.03199" lon="4.11613">
        <ele>1228.22</ele>
        <time>2022-04-14T13:25:01Z</time>
      </trkpt>
      <trkpt lat="45.03197" lon="4.11617">
        <ele>1229.18</ele>
        <time>2022-04-14T13:25:04Z</time>
      </trkpt>
      <trkpt lat="45.03195" lon="4.1162">
        <ele>1229.66</ele>
        <time>2022-04-14T13:25:06Z</time>
      </trkpt>
      <trkpt lat="45.0319" lon="4.11627">
        <ele>1231.11</ele>
        <time>2022-04-14T13:25:11Z</time>
      </trkpt>
      <trkpt lat="45.0318" lon="4.11645">
        <ele>1231.11</ele>
        <time>2022-04-14T13:25:22Z</time>
      </trkpt>
      <trkpt lat="45.0318" lon="4.11657">
        <ele>1231.59</ele>
        <time>2022-04-14T13:25:29Z</time>
      </trkpt>
      <trkpt lat="45.03183" lon="4.11678">
        <ele>1231.11</ele>
        <time>2022-04-14T13:25:43Z</time>
      </trkpt>
      <trkpt lat="45.03185" lon="4.11683">
        <ele>1230.62</ele>
        <time>2022-04-14T13:25:47Z</time>
      </trkpt>
      <trkpt lat="45.03191" lon="4.11691">
        <ele>1230.62</ele>
        <time>2022-04-14T13:25:54Z</time>
      </trkpt>
      <trkpt lat="45.03195" lon="4.11719">
        <ele>1233.99</ele>
        <time>2022-04-14T13:26:10Z</time>
      </trkpt>
      <trkpt lat="45.03195" lon="4.11724">
        <ele>1235.43</ele>
        <time>2022-04-14T13:26:13Z</time>
      </trkpt>
      <trkpt lat="45.03193" lon="4.11749">
        <ele>1238.32</ele>
        <time>2022-04-14T13:26:29Z</time>
      </trkpt>
      <trkpt lat="45.03193" lon="4.11755">
        <ele>1238.8</ele>
        <time>2022-04-14T13:26:32Z</time>
      </trkpt>
      <trkpt lat="45.03193" lon="4.11771">
        <ele>1238.8</ele>
        <time>2022-04-14T13:26:39Z</time>
      </trkpt>
      <trkpt lat="45.03193" lon="4.11785">
        <ele>1240.24</ele>
        <time>2022-04-14T13:26:47Z</time>
      </trkpt>
      <trkpt lat="45.03194" lon="4.11805">
        <ele>1238.8</ele>
        <time>2022-04-14T13:26:57Z</time>
      </trkpt>
      <trkpt lat="45.03206" lon="4.11825">
        <ele>1237.83</ele>
        <time>2022-04-14T13:27:12Z</time>
      </trkpt>
      <trkpt lat="45.03216" lon="4.11854">
        <ele>1234.95</ele>
        <time>2022-04-14T13:27:26Z</time>
      </trkpt>
      <trkpt lat="45.03226" lon="4.11875">
        <ele>1231.59</ele>
        <time>2022-04-14T13:27:41Z</time>
      </trkpt>
      <trkpt lat="45.03232" lon="4.1189">
        <ele>1230.62</ele>
        <time>2022-04-14T13:27:51Z</time>
      </trkpt>
      <trkpt lat="45.0325" lon="4.11906">
        <ele>1234.95</ele>
        <time>2022-04-14T13:28:10Z</time>
      </trkpt>
      <trkpt lat="45.03266" lon="4.11918">
        <ele>1237.83</ele>
        <time>2022-04-14T13:28:26Z</time>
      </trkpt>
      <trkpt lat="45.0328" lon="4.11932">
        <ele>1238.8</ele>
        <time>2022-04-14T13:28:42Z</time>
      </trkpt>
      <trkpt lat="45.03279" lon="4.11935">
        <ele>1238.32</ele>
        <time>2022-04-14T13:28:45Z</time>
      </trkpt>
      <trkpt lat="45.03277" lon="4.11949">
        <ele>1237.35</ele>
        <time>2022-04-14T13:28:59Z</time>
      </trkpt>
      <trkpt lat="45.03272" lon="4.11967">
        <ele>1236.87</ele>
        <time>2022-04-14T13:29:11Z</time>
      </trkpt>
      <trkpt lat="45.03268" lon="4.11985">
        <ele>1236.87</ele>
        <time>2022-04-14T13:29:26Z</time>
      </trkpt>
      <trkpt lat="45.03269" lon="4.12004">
        <ele>1235.43</ele>
        <time>2022-04-14T13:29:38Z</time>
      </trkpt>
      <trkpt lat="45.0328" lon="4.12037">
        <ele>1234.47</ele>
        <time>2022-04-14T13:29:57Z</time>
      </trkpt>
      <trkpt lat="45.03287" lon="4.12057">
        <ele>1234.47</ele>
        <time>2022-04-14T13:30:09Z</time>
      </trkpt>
      <trkpt lat="45.03302" lon="4.12071">
        <ele>1237.35</ele>
        <time>2022-04-14T13:30:25Z</time>
      </trkpt>
      <trkpt lat="45.03303" lon="4.12072">
        <ele>1237.35</ele>
        <time>2022-04-14T13:30:26Z</time>
      </trkpt>
      <trkpt lat="45.0331" lon="4.12096">
        <ele>1236.39</ele>
        <time>2022-04-14T13:30:42Z</time>
      </trkpt>
      <trkpt lat="45.03311" lon="4.12103">
        <ele>1235.91</ele>
        <time>2022-04-14T13:30:56Z</time>
      </trkpt>
      <trkpt lat="45.03311" lon="4.12103">
        <ele>1235.91</ele>
        <time>2022-04-14T13:31:23Z</time>
      </trkpt>
      <trkpt lat="45.03312" lon="4.12102">
        <ele>1235.43</ele>
        <time>2022-04-14T13:31:57Z</time>
      </trkpt>
      <trkpt lat="45.03312" lon="4.12101">
        <ele>1234.95</ele>
        <time>2022-04-14T13:32:27Z</time>
      </trkpt>
      <trkpt lat="45.03312" lon="4.12102">
        <ele>1234.47</ele>
        <time>2022-04-14T13:32:59Z</time>
      </trkpt>
      <trkpt lat="45.03312" lon="4.12101">
        <ele>1234.47</ele>
        <time>2022-04-14T13:33:25Z</time>
      </trkpt>
      <trkpt lat="45.03313" lon="4.12101">
        <ele>1234.95</ele>
        <time>2022-04-14T13:34:00Z</time>
      </trkpt>
      <trkpt lat="45.03312" lon="4.12101">
        <ele>1234.47</ele>
        <time>2022-04-14T13:34:35Z</time>
      </trkpt>
      <trkpt lat="45.03311" lon="4.12101">
        <ele>1234.47</ele>
        <time>2022-04-14T13:34:57Z</time>
      </trkpt>
      <trkpt lat="45.03312" lon="4.12104">
        <ele>1234.47</ele>
        <time>2022-04-14T13:35:07Z</time>
      </trkpt>
      <trkpt lat="45.03313" lon="4.12105">
        <ele>1234.95</ele>
        <time>2022-04-14T13:35:08Z</time>
      </trkpt>
      <trkpt lat="45.03316" lon="4.12112">
        <ele>1234.95</ele>
        <time>2022-04-14T13:35:12Z</time>
      </trkpt>
      <trkpt lat="45.03322" lon="4.12122">
        <ele>1235.43</ele>
        <time>2022-04-14T13:35:21Z</time>
      </trkpt>
      <trkpt lat="45.03334" lon="4.12144">
        <ele>1236.39</ele>
        <time>2022-04-14T13:35:37Z</time>
      </trkpt>
      <trkpt lat="45.03349" lon="4.12163">
        <ele>1234.47</ele>
        <time>2022-04-14T13:35:54Z</time>
      </trkpt>
      <trkpt lat="45.0336" lon="4.12186">
        <ele>1235.43</ele>
        <time>2022-04-14T13:36:09Z</time>
      </trkpt>
      <trkpt lat="45.03371" lon="4.12207">
        <ele>1234.95</ele>
        <time>2022-04-14T13:36:22Z</time>
      </trkpt>
      <trkpt lat="45.0338" lon="4.12221">
        <ele>1237.35</ele>
        <time>2022-04-14T13:36:35Z</time>
      </trkpt>
      <trkpt lat="45.03387" lon="4.12224">
        <ele>1238.32</ele>
        <time>2022-04-14T13:36:42Z</time>
      </trkpt>
      <trkpt lat="45.034" lon="4.1223">
        <ele>1241.68</ele>
        <time>2022-04-14T13:36:55Z</time>
      </trkpt>
      <trkpt lat="45.0341" lon="4.12233">
        <ele>1245.04</ele>
        <time>2022-04-14T13:37:09Z</time>
      </trkpt>
      <trkpt lat="45.03425" lon="4.12237">
        <ele>1248.89</ele>
        <time>2022-04-14T13:37:22Z</time>
      </trkpt>
      <trkpt lat="45.03439" lon="4.12235">
        <ele>1249.85</ele>
        <time>2022-04-14T13:37:34Z</time>
      </trkpt>
      <trkpt lat="45.03443" lon="4.12236">
        <ele>1250.33</ele>
        <time>2022-04-14T13:37:37Z</time>
      </trkpt>
      <trkpt lat="45.03455" lon="4.12239">
        <ele>1250.81</ele>
        <time>2022-04-14T13:37:50Z</time>
      </trkpt>
      <trkpt lat="45.0347" lon="4.12255">
        <ele>1255.14</ele>
        <time>2022-04-14T13:38:02Z</time>
      </trkpt>
      <trkpt lat="45.03477" lon="4.12261">
        <ele>1255.14</ele>
        <time>2022-04-14T13:38:13Z</time>
      </trkpt>
      <trkpt lat="45.03493" lon="4.12279">
        <ele>1255.62</ele>
        <time>2022-04-14T13:38:29Z</time>
      </trkpt>
      <trkpt lat="45.035" lon="4.12286">
        <ele>1258.02</ele>
        <time>2022-04-14T13:38:42Z</time>
      </trkpt>
      <trkpt lat="45.03504" lon="4.1229">
        <ele>1258.98</ele>
        <time>2022-04-14T13:38:46Z</time>
      </trkpt>
      <trkpt lat="45.03513" lon="4.1231">
        <ele>1265.71</ele>
        <time>2022-04-14T13:38:58Z</time>
      </trkpt>
      <trkpt lat="45.03533" lon="4.12341">
        <ele>1266.19</ele>
        <time>2022-04-14T13:39:10Z</time>
      </trkpt>
      <trkpt lat="45.03539" lon="4.12346">
        <ele>1266.67</ele>
        <time>2022-04-14T13:39:16Z</time>
      </trkpt>
      <trkpt lat="45.03558" lon="4.1236">
        <ele>1267.64</ele>
        <time>2022-04-14T13:39:30Z</time>
      </trkpt>
      <trkpt lat="45.03559" lon="4.12361">
        <ele>1268.12</ele>
        <time>2022-04-14T13:39:31Z</time>
      </trkpt>
      <trkpt lat="45.0357" lon="4.12378">
        <ele>1275.81</ele>
        <time>2022-04-14T13:39:45Z</time>
      </trkpt>
      <trkpt lat="45.03583" lon="4.1239">
        <ele>1279.17</ele>
        <time>2022-04-14T13:39:59Z</time>
      </trkpt>
      <trkpt lat="45.036" lon="4.12389">
        <ele>1282.54</ele>
        <time>2022-04-14T13:40:16Z</time>
      </trkpt>
      <trkpt lat="45.03619" lon="4.12391">
        <ele>1283.98</ele>
        <time>2022-04-14T13:40:31Z</time>
      </trkpt>
      <trkpt lat="45.03628" lon="4.12392">
        <ele>1285.42</ele>
        <time>2022-04-14T13:40:44Z</time>
      </trkpt>
      <trkpt lat="45.03635" lon="4.12396">
        <ele>1285.42</ele>
        <time>2022-04-14T13:40:56Z</time>
      </trkpt>
      <trkpt lat="45.03645" lon="4.12399">
        <ele>1289.27</ele>
        <time>2022-04-14T13:41:14Z</time>
      </trkpt>
      <trkpt lat="45.03654" lon="4.12402">
        <ele>1291.67</ele>
        <time>2022-04-14T13:41:29Z</time>
      </trkpt>
      <trkpt lat="45.03662" lon="4.12404">
        <ele>1295.03</ele>
        <time>2022-04-14T13:41:45Z</time>
      </trkpt>
      <trkpt lat="45.03678" lon="4.12411">
        <ele>1296.48</ele>
        <time>2022-04-14T13:42:00Z</time>
      </trkpt>
      <trkpt lat="45.03691" lon="4.12423">
        <ele>1295.51</ele>
        <time>2022-04-14T13:42:13Z</time>
      </trkpt>
      <trkpt lat="45.03711" lon="4.12442">
        <ele>1293.59</ele>
        <time>2022-04-14T13:42:27Z</time>
      </trkpt>
      <trkpt lat="45.03737" lon="4.12465">
        <ele>1287.82</ele>
        <time>2022-04-14T13:42:42Z</time>
      </trkpt>
      <trkpt lat="45.03749" lon="4.12479">
        <ele>1286.38</ele>
        <time>2022-04-14T13:42:54Z</time>
      </trkpt>
      <trkpt lat="45.03751" lon="4.12482">
        <ele>1286.38</ele>
        <time>2022-04-14T13:42:56Z</time>
      </trkpt>
      <trkpt lat="45.03764" lon="4.12492">
        <ele>1284.46</ele>
        <time>2022-04-14T13:43:10Z</time>
      </trkpt>
      <trkpt lat="45.03765" lon="4.12494">
        <ele>1284.46</ele>
        <time>2022-04-14T13:43:25Z</time>
      </trkpt>
      <trkpt lat="45.03767" lon="4.12495">
        <ele>1286.86</ele>
        <time>2022-04-14T13:43:43Z</time>
      </trkpt>
      <trkpt lat="45.03768" lon="4.12501">
        <ele>1285.9</ele>
        <time>2022-04-14T13:43:56Z</time>
      </trkpt>
      <trkpt lat="45.03769" lon="4.12503">
        <ele>1285.9</ele>
        <time>2022-04-14T13:43:58Z</time>
      </trkpt>
      <trkpt lat="45.03769" lon="4.12507">
        <ele>1286.38</ele>
        <time>2022-04-14T13:44:01Z</time>
      </trkpt>
      <trkpt lat="45.03776" lon="4.12522">
        <ele>1286.38</ele>
        <time>2022-04-14T13:44:14Z</time>
      </trkpt>
      <trkpt lat="45.03786" lon="4.12545">
        <ele>1287.82</ele>
        <time>2022-04-14T13:44:29Z</time>
      </trkpt>
      <trkpt lat="45.03794" lon="4.12557">
        <ele>1290.71</ele>
        <time>2022-04-14T13:44:41Z</time>
      </trkpt>
      <trkpt lat="45.03801" lon="4.12573">
        <ele>1294.55</ele>
        <time>2022-04-14T13:44:54Z</time>
      </trkpt>
      <trkpt lat="45.0381" lon="4.12588">
        <ele>1297.44</ele>
        <time>2022-04-14T13:45:06Z</time>
      </trkpt>
      <trkpt lat="45.03813" lon="4.12592">
        <ele>1296.48</ele>
        <time>2022-04-14T13:45:22Z</time>
      </trkpt>
      <trkpt lat="45.03815" lon="4.12595">
        <ele>1295.51</ele>
        <time>2022-04-14T13:45:35Z</time>
      </trkpt>
      <trkpt lat="45.0382" lon="4.12608">
        <ele>1297.92</ele>
        <time>2022-04-14T13:45:49Z</time>
      </trkpt>
      <trkpt lat="45.03822" lon="4.12617">
        <ele>1303.2</ele>
        <time>2022-04-14T13:46:04Z</time>
      </trkpt>
      <trkpt lat="45.03822" lon="4.12621">
        <ele>1306.57</ele>
        <time>2022-04-14T13:46:15Z</time>
      </trkpt>
      <trkpt lat="45.03824" lon="4.1264">
        <ele>1309.93</ele>
        <time>2022-04-14T13:46:27Z</time>
      </trkpt>
      <trkpt lat="45.03824" lon="4.12664">
        <ele>1314.74</ele>
        <time>2022-04-14T13:46:41Z</time>
      </trkpt>
      <trkpt lat="45.03826" lon="4.1269">
        <ele>1319.55</ele>
        <time>2022-04-14T13:46:59Z</time>
      </trkpt>
      <trkpt lat="45.03832" lon="4.12724">
        <ele>1320.03</ele>
        <time>2022-04-14T13:47:15Z</time>
      </trkpt>
      <trkpt lat="45.03834" lon="4.12735">
        <ele>1321.47</ele>
        <time>2022-04-14T13:47:20Z</time>
      </trkpt>
      <trkpt lat="45.03838" lon="4.12757">
        <ele>1320.03</ele>
        <time>2022-04-14T13:47:29Z</time>
      </trkpt>
      <trkpt lat="45.03839" lon="4.12763">
        <ele>1320.51</ele>
        <time>2022-04-14T13:47:31Z</time>
      </trkpt>
      <trkpt lat="45.03851" lon="4.12814">
        <ele>1320.03</ele>
        <time>2022-04-14T13:47:44Z</time>
      </trkpt>
      <trkpt lat="45.03854" lon="4.12826">
        <ele>1319.55</ele>
        <time>2022-04-14T13:47:49Z</time>
      </trkpt>
      <trkpt lat="45.03863" lon="4.12843">
        <ele>1317.14</ele>
        <time>2022-04-14T13:47:59Z</time>
      </trkpt>
      <trkpt lat="45.03878" lon="4.12855">
        <ele>1315.7</ele>
        <time>2022-04-14T13:48:13Z</time>
      </trkpt>
      <trkpt lat="45.03881" lon="4.12865">
        <ele>1317.62</ele>
        <time>2022-04-14T13:48:20Z</time>
      </trkpt>
      <trkpt lat="45.03886" lon="4.1289">
        <ele>1319.55</ele>
        <time>2022-04-14T13:48:33Z</time>
      </trkpt>
      <trkpt lat="45.03889" lon="4.12906">
        <ele>1317.62</ele>
        <time>2022-04-14T13:48:42Z</time>
      </trkpt>
      <trkpt lat="45.03889" lon="4.12933">
        <ele>1316.18</ele>
        <time>2022-04-14T13:48:56Z</time>
      </trkpt>
      <trkpt lat="45.03888" lon="4.12959">
        <ele>1312.34</ele>
        <time>2022-04-14T13:49:10Z</time>
      </trkpt>
      <trkpt lat="45.03888" lon="4.12976">
        <ele>1308.49</ele>
        <time>2022-04-14T13:49:23Z</time>
      </trkpt>
      <trkpt lat="45.03891" lon="4.12981">
        <ele>1308.01</ele>
        <time>2022-04-14T13:49:26Z</time>
      </trkpt>
      <trkpt lat="45.03904" lon="4.12994">
        <ele>1307.05</ele>
        <time>2022-04-14T13:49:41Z</time>
      </trkpt>
      <trkpt lat="45.03923" lon="4.13004">
        <ele>1305.61</ele>
        <time>2022-04-14T13:49:55Z</time>
      </trkpt>
      <trkpt lat="45.03939" lon="4.13006">
        <ele>1302.72</ele>
        <time>2022-04-14T13:50:08Z</time>
      </trkpt>
      <trkpt lat="45.03957" lon="4.13007">
        <ele>1300.8</ele>
        <time>2022-04-14T13:50:21Z</time>
      </trkpt>
      <trkpt lat="45.03977" lon="4.13011">
        <ele>1302.72</ele>
        <time>2022-04-14T13:50:37Z</time>
      </trkpt>
      <trkpt lat="45.03997" lon="4.13001">
        <ele>1305.13</ele>
        <time>2022-04-14T13:50:53Z</time>
      </trkpt>
      <trkpt lat="45.04013" lon="4.12996">
        <ele>1306.09</ele>
        <time>2022-04-14T13:51:10Z</time>
      </trkpt>
      <trkpt lat="45.0403" lon="4.12989">
        <ele>1306.57</ele>
        <time>2022-04-14T13:51:25Z</time>
      </trkpt>
      <trkpt lat="45.04037" lon="4.12987">
        <ele>1307.53</ele>
        <time>2022-04-14T13:51:30Z</time>
      </trkpt>
      <trkpt lat="45.04053" lon="4.12989">
        <ele>1307.53</ele>
        <time>2022-04-14T13:51:45Z</time>
      </trkpt>
      <trkpt lat="45.0407" lon="4.12993">
        <ele>1310.9</ele>
        <time>2022-04-14T13:52:02Z</time>
      </trkpt>
      <trkpt lat="45.04083" lon="4.12995">
        <ele>1315.7</ele>
        <time>2022-04-14T13:52:16Z</time>
      </trkpt>
      <trkpt lat="45.04092" lon="4.13">
        <ele>1317.14</ele>
        <time>2022-04-14T13:52:28Z</time>
      </trkpt>
      <trkpt lat="45.04106" lon="4.13007">
        <ele>1318.1</ele>
        <time>2022-04-14T13:52:42Z</time>
      </trkpt>
      <trkpt lat="45.0412" lon="4.13013">
        <ele>1319.07</ele>
        <time>2022-04-14T13:52:55Z</time>
      </trkpt>
      <trkpt lat="45.04129" lon="4.1302">
        <ele>1321.47</ele>
        <time>2022-04-14T13:53:05Z</time>
      </trkpt>
      <trkpt lat="45.04139" lon="4.13023">
        <ele>1325.31</ele>
        <time>2022-04-14T13:53:20Z</time>
      </trkpt>
      <trkpt lat="45.04145" lon="4.1303">
        <ele>1328.68</ele>
        <time>2022-04-14T13:53:32Z</time>
      </trkpt>
      <trkpt lat="45.04155" lon="4.13038">
        <ele>1332.52</ele>
        <time>2022-04-14T13:53:44Z</time>
      </trkpt>
      <trkpt lat="45.04163" lon="4.13062">
        <ele>1336.85</ele>
        <time>2022-04-14T13:54:02Z</time>
      </trkpt>
      <trkpt lat="45.0417" lon="4.1307">
        <ele>1337.81</ele>
        <time>2022-04-14T13:54:19Z</time>
      </trkpt>
      <trkpt lat="45.04174" lon="4.13073">
        <ele>1339.25</ele>
        <time>2022-04-14T13:54:31Z</time>
      </trkpt>
      <trkpt lat="45.04181" lon="4.1308">
        <ele>1339.73</ele>
        <time>2022-04-14T13:54:49Z</time>
      </trkpt>
      <trkpt lat="45.04184" lon="4.13081">
        <ele>1338.29</ele>
        <time>2022-04-14T13:55:05Z</time>
      </trkpt>
      <trkpt lat="45.04185" lon="4.13082">
        <ele>1337.81</ele>
        <time>2022-04-14T13:55:19Z</time>
      </trkpt>
      <trkpt lat="45.04186" lon="4.13082">
        <ele>1337.81</ele>
        <time>2022-04-14T13:55:37Z</time>
      </trkpt>
      <trkpt lat="45.04186" lon="4.13081">
        <ele>1335.89</ele>
        <time>2022-04-14T13:56:09Z</time>
      </trkpt>
      <trkpt lat="45.04187" lon="4.1308">
        <ele>1336.37</ele>
        <time>2022-04-14T13:56:39Z</time>
      </trkpt>
      <trkpt lat="45.04189" lon="4.13079">
        <ele>1337.33</ele>
        <time>2022-04-14T13:57:12Z</time>
      </trkpt>
      <trkpt lat="45.0419" lon="4.13078">
        <ele>1337.81</ele>
        <time>2022-04-14T13:57:39Z</time>
      </trkpt>
      <trkpt lat="45.04197" lon="4.13066">
        <ele>1336.37</ele>
        <time>2022-04-14T13:57:54Z</time>
      </trkpt>
      <trkpt lat="45.04209" lon="4.13054">
        <ele>1333.01</ele>
        <time>2022-04-14T13:58:08Z</time>
      </trkpt>
      <trkpt lat="45.04221" lon="4.13054">
        <ele>1332.04</ele>
        <time>2022-04-14T13:58:24Z</time>
      </trkpt>
      <trkpt lat="45.04225" lon="4.13054">
        <ele>1332.04</ele>
        <time>2022-04-14T13:58:40Z</time>
      </trkpt>
      <trkpt lat="45.0423" lon="4.13053">
        <ele>1332.04</ele>
        <time>2022-04-14T13:58:58Z</time>
      </trkpt>
      <trkpt lat="45.04235" lon="4.13053">
        <ele>1331.56</ele>
        <time>2022-04-14T13:59:16Z</time>
      </trkpt>
      <trkpt lat="45.04245" lon="4.13055">
        <ele>1332.52</ele>
        <time>2022-04-14T13:59:30Z</time>
      </trkpt>
      <trkpt lat="45.04261" lon="4.13062">
        <ele>1333.49</ele>
        <time>2022-04-14T13:59:47Z</time>
      </trkpt>
      <trkpt lat="45.04272" lon="4.13067">
        <ele>1333.97</ele>
        <time>2022-04-14T13:59:58Z</time>
      </trkpt>
      <trkpt lat="45.04294" lon="4.13072">
        <ele>1335.89</ele>
        <time>2022-04-14T14:00:14Z</time>
      </trkpt>
      <trkpt lat="45.0431" lon="4.13083">
        <ele>1337.33</ele>
        <time>2022-04-14T14:00:32Z</time>
      </trkpt>
      <trkpt lat="45.04336" lon="4.13094">
        <ele>1338.29</ele>
        <time>2022-04-14T14:00:48Z</time>
      </trkpt>
      <trkpt lat="45.0434" lon="4.13095">
        <ele>1338.29</ele>
        <time>2022-04-14T14:00:50Z</time>
      </trkpt>
      <trkpt lat="45.04367" lon="4.13099">
        <ele>1339.25</ele>
        <time>2022-04-14T14:01:05Z</time>
      </trkpt>
      <trkpt lat="45.04382" lon="4.131">
        <ele>1340.22</ele>
        <time>2022-04-14T14:01:21Z</time>
      </trkpt>
      <trkpt lat="45.04386" lon="4.13099">
        <ele>1339.73</ele>
        <time>2022-04-14T14:01:34Z</time>
      </trkpt>
      <trkpt lat="45.04395" lon="4.13096">
        <ele>1338.77</ele>
        <time>2022-04-14T14:01:48Z</time>
      </trkpt>
      <trkpt lat="45.04411" lon="4.13096">
        <ele>1338.77</ele>
        <time>2022-04-14T14:01:57Z</time>
      </trkpt>
      <trkpt lat="45.04434" lon="4.13097">
        <ele>1339.73</ele>
        <time>2022-04-14T14:02:11Z</time>
      </trkpt>
      <trkpt lat="45.04435" lon="4.13097">
        <ele>1339.73</ele>
        <time>2022-04-14T14:02:12Z</time>
      </trkpt>
      <trkpt lat="45.04461" lon="4.13092">
        <ele>1341.18</ele>
        <time>2022-04-14T14:02:27Z</time>
      </trkpt>
      <trkpt lat="45.04483" lon="4.13085">
        <ele>1341.18</ele>
        <time>2022-04-14T14:02:42Z</time>
      </trkpt>
      <trkpt lat="45.04487" lon="4.13086">
        <ele>1341.66</ele>
        <time>2022-04-14T14:02:44Z</time>
      </trkpt>
      <trkpt lat="45.045" lon="4.13104">
        <ele>1343.1</ele>
        <time>2022-04-14T14:02:59Z</time>
      </trkpt>
      <trkpt lat="45.04502" lon="4.13109">
        <ele>1343.1</ele>
        <time>2022-04-14T14:03:16Z</time>
      </trkpt>
      <trkpt lat="45.04506" lon="4.1311">
        <ele>1344.54</ele>
        <time>2022-04-14T14:03:39Z</time>
      </trkpt>
      <trkpt lat="45.04507" lon="4.13112">
        <ele>1344.54</ele>
        <time>2022-04-14T14:03:47Z</time>
      </trkpt>
      <trkpt lat="45.04514" lon="4.13129">
        <ele>1345.5</ele>
        <time>2022-04-14T14:04:02Z</time>
      </trkpt>
      <trkpt lat="45.0452" lon="4.13139">
        <ele>1346.46</ele>
        <time>2022-04-14T14:04:10Z</time>
      </trkpt>
      <trkpt lat="45.04524" lon="4.13145">
        <ele>1347.43</ele>
        <time>2022-04-14T14:04:15Z</time>
      </trkpt>
      <trkpt lat="45.04541" lon="4.13164">
        <ele>1348.39</ele>
        <time>2022-04-14T14:04:31Z</time>
      </trkpt>
      <trkpt lat="45.04547" lon="4.13184">
        <ele>1348.39</ele>
        <time>2022-04-14T14:04:44Z</time>
      </trkpt>
      <trkpt lat="45.04554" lon="4.13203">
        <ele>1349.35</ele>
        <time>2022-04-14T14:04:56Z</time>
      </trkpt>
      <trkpt lat="45.04562" lon="4.13227">
        <ele>1351.27</ele>
        <time>2022-04-14T14:05:10Z</time>
      </trkpt>
      <trkpt lat="45.04567" lon="4.13249">
        <ele>1353.67</ele>
        <time>2022-04-14T14:05:24Z</time>
      </trkpt>
      <trkpt lat="45.04569" lon="4.13274">
        <ele>1358.48</ele>
        <time>2022-04-14T14:05:38Z</time>
      </trkpt>
      <trkpt lat="45.04571" lon="4.13278">
        <ele>1359.44</ele>
        <time>2022-04-14T14:05:41Z</time>
      </trkpt>
      <trkpt lat="45.04572" lon="4.13303">
        <ele>1363.77</ele>
        <time>2022-04-14T14:05:55Z</time>
      </trkpt>
      <trkpt lat="45.04573" lon="4.1331">
        <ele>1365.21</ele>
        <time>2022-04-14T14:05:59Z</time>
      </trkpt>
      <trkpt lat="45.04574" lon="4.13339">
        <ele>1370.5</ele>
        <time>2022-04-14T14:06:14Z</time>
      </trkpt>
      <trkpt lat="45.04575" lon="4.13346">
        <ele>1371.46</ele>
        <time>2022-04-14T14:06:18Z</time>
      </trkpt>
      <trkpt lat="45.04576" lon="4.13369">
        <ele>1371.94</ele>
        <time>2022-04-14T14:06:31Z</time>
      </trkpt>
      <trkpt lat="45.04579" lon="4.13385">
        <ele>1371.46</ele>
        <time>2022-04-14T14:06:40Z</time>
      </trkpt>
      <trkpt lat="45.0458" lon="4.13411">
        <ele>1372.9</ele>
        <time>2022-04-14T14:06:55Z</time>
      </trkpt>
      <trkpt lat="45.0458" lon="4.13415">
        <ele>1372.9</ele>
        <time>2022-04-14T14:06:57Z</time>
      </trkpt>
      <trkpt lat="45.0458" lon="4.1342">
        <ele>1373.38</ele>
        <time>2022-04-14T14:07:00Z</time>
      </trkpt>
      <trkpt lat="45.04581" lon="4.13442">
        <ele>1375.78</ele>
        <time>2022-04-14T14:07:12Z</time>
      </trkpt>
      <trkpt lat="45.04581" lon="4.13444">
        <ele>1375.78</ele>
        <time>2022-04-14T14:07:13Z</time>
      </trkpt>
      <trkpt lat="45.04586" lon="4.13482">
        <ele>1373.38</ele>
        <time>2022-04-14T14:07:30Z</time>
      </trkpt>
      <trkpt lat="45.04587" lon="4.13506">
        <ele>1372.9</ele>
        <time>2022-04-14T14:07:43Z</time>
      </trkpt>
      <trkpt lat="45.04593" lon="4.13539">
        <ele>1372.42</ele>
        <time>2022-04-14T14:08:00Z</time>
      </trkpt>
      <trkpt lat="45.046" lon="4.13567">
        <ele>1372.42</ele>
        <time>2022-04-14T14:08:17Z</time>
      </trkpt>
      <trkpt lat="45.04607" lon="4.13592">
        <ele>1371.46</ele>
        <time>2022-04-14T14:08:29Z</time>
      </trkpt>
      <trkpt lat="45.04608" lon="4.13612">
        <ele>1370.5</ele>
        <time>2022-04-14T14:08:40Z</time>
      </trkpt>
      <trkpt lat="45.04608" lon="4.13641">
        <ele>1370.5</ele>
        <time>2022-04-14T14:08:55Z</time>
      </trkpt>
      <trkpt lat="45.04608" lon="4.13671">
        <ele>1371.94</ele>
        <time>2022-04-14T14:09:11Z</time>
      </trkpt>
      <trkpt lat="45.04611" lon="4.13695">
        <ele>1371.46</ele>
        <time>2022-04-14T14:09:24Z</time>
      </trkpt>
      <trkpt lat="45.04618" lon="4.13721">
        <ele>1368.57</ele>
        <time>2022-04-14T14:09:39Z</time>
      </trkpt>
      <trkpt lat="45.04629" lon="4.13743">
        <ele>1367.61</ele>
        <time>2022-04-14T14:09:53Z</time>
      </trkpt>
      <trkpt lat="45.04644" lon="4.13763">
        <ele>1364.73</ele>
        <time>2022-04-14T14:10:08Z</time>
      </trkpt>
      <trkpt lat="45.04658" lon="4.13788">
        <ele>1361.84</ele>
        <time>2022-04-14T14:10:23Z</time>
      </trkpt>
      <trkpt lat="45.04667" lon="4.13804">
        <ele>1361.36</ele>
        <time>2022-04-14T14:10:34Z</time>
      </trkpt>
      <trkpt lat="45.04669" lon="4.13807">
        <ele>1361.36</ele>
        <time>2022-04-14T14:10:36Z</time>
      </trkpt>
      <trkpt lat="45.04676" lon="4.13819">
        <ele>1359.92</ele>
        <time>2022-04-14T14:10:50Z</time>
      </trkpt>
      <trkpt lat="45.04683" lon="4.13833">
        <ele>1359.92</ele>
        <time>2022-04-14T14:11:00Z</time>
      </trkpt>
      <trkpt lat="45.04685" lon="4.13841">
        <ele>1361.36</ele>
        <time>2022-04-14T14:11:14Z</time>
      </trkpt>
      <trkpt lat="45.04689" lon="4.13852">
        <ele>1360.88</ele>
        <time>2022-04-14T14:11:29Z</time>
      </trkpt>
      <trkpt lat="45.04696" lon="4.13865">
        <ele>1359.44</ele>
        <time>2022-04-14T14:11:42Z</time>
      </trkpt>
      <trkpt lat="45.04702" lon="4.13878">
        <ele>1357.52</ele>
        <time>2022-04-14T14:11:55Z</time>
      </trkpt>
      <trkpt lat="45.04706" lon="4.13885">
        <ele>1357.52</ele>
        <time>2022-04-14T14:12:00Z</time>
      </trkpt>
      <trkpt lat="45.0471" lon="4.13892">
        <ele>1357.04</ele>
        <time>2022-04-14T14:12:04Z</time>
      </trkpt>
      <trkpt lat="45.04722" lon="4.13915">
        <ele>1355.6</ele>
        <time>2022-04-14T14:12:17Z</time>
      </trkpt>
      <trkpt lat="45.04734" lon="4.13937">
        <ele>1358</ele>
        <time>2022-04-14T14:12:32Z</time>
      </trkpt>
      <trkpt lat="45.04743" lon="4.13959">
        <ele>1355.12</ele>
        <time>2022-04-14T14:12:45Z</time>
      </trkpt>
      <trkpt lat="45.04749" lon="4.13976">
        <ele>1354.15</ele>
        <time>2022-04-14T14:12:56Z</time>
      </trkpt>
      <trkpt lat="45.04756" lon="4.13997">
        <ele>1352.71</ele>
        <time>2022-04-14T14:13:09Z</time>
      </trkpt>
      <trkpt lat="45.04761" lon="4.14009">
        <ele>1348.39</ele>
        <time>2022-04-14T14:13:24Z</time>
      </trkpt>
      <trkpt lat="45.04763" lon="4.14013">
        <ele>1343.1</ele>
        <time>2022-04-14T14:13:44Z</time>
      </trkpt>
      <trkpt lat="45.04763" lon="4.14014">
        <ele>1341.66</ele>
        <time>2022-04-14T14:14:05Z</time>
      </trkpt>
      <trkpt lat="45.04769" lon="4.14005">
        <ele>1340.7</ele>
        <time>2022-04-14T14:14:21Z</time>
      </trkpt>
      <trkpt lat="45.04772" lon="4.13999">
        <ele>1341.18</ele>
        <time>2022-04-14T14:14:26Z</time>
      </trkpt>
      <trkpt lat="45.04783" lon="4.13979">
        <ele>1342.14</ele>
        <time>2022-04-14T14:14:43Z</time>
      </trkpt>
      <trkpt lat="45.04794" lon="4.13962">
        <ele>1342.62</ele>
        <time>2022-04-14T14:15:01Z</time>
      </trkpt>
      <trkpt lat="45.04799" lon="4.13954">
        <ele>1342.14</ele>
        <time>2022-04-14T14:15:08Z</time>
      </trkpt>
      <trkpt lat="45.04813" lon="4.13935">
        <ele>1340.7</ele>
        <time>2022-04-14T14:15:25Z</time>
      </trkpt>
      <trkpt lat="45.04823" lon="4.13924">
        <ele>1339.25</ele>
        <time>2022-04-14T14:15:37Z</time>
      </trkpt>
      <trkpt lat="45.04827" lon="4.1392">
        <ele>1339.25</ele>
        <time>2022-04-14T14:15:41Z</time>
      </trkpt>
      <trkpt lat="45.0484" lon="4.13903">
        <ele>1337.33</ele>
        <time>2022-04-14T14:15:57Z</time>
      </trkpt>
      <trkpt lat="45.04851" lon="4.13883">
        <ele>1336.37</ele>
        <time>2022-04-14T14:16:11Z</time>
      </trkpt>
      <trkpt lat="45.04854" lon="4.13866">
        <ele>1337.81</ele>
        <time>2022-04-14T14:16:25Z</time>
      </trkpt>
      <trkpt lat="45.0486" lon="4.13845">
        <ele>1338.77</ele>
        <time>2022-04-14T14:16:40Z</time>
      </trkpt>
      <trkpt lat="45.04864" lon="4.13825">
        <ele>1341.66</ele>
        <time>2022-04-14T14:16:56Z</time>
      </trkpt>
      <trkpt lat="45.04874" lon="4.13801">
        <ele>1342.62</ele>
        <time>2022-04-14T14:17:14Z</time>
      </trkpt>
      <trkpt lat="45.04882" lon="4.13786">
        <ele>1345.98</ele>
        <time>2022-04-14T14:17:26Z</time>
      </trkpt>
      <trkpt lat="45.04894" lon="4.13761">
        <ele>1350.79</ele>
        <time>2022-04-14T14:17:42Z</time>
      </trkpt>
      <trkpt lat="45.04905" lon="4.13745">
        <ele>1354.15</ele>
        <time>2022-04-14T14:17:57Z</time>
      </trkpt>
      <trkpt lat="45.04918" lon="4.13722">
        <ele>1355.12</ele>
        <time>2022-04-14T14:18:15Z</time>
      </trkpt>
      <trkpt lat="45.04932" lon="4.13695">
        <ele>1351.75</ele>
        <time>2022-04-14T14:18:33Z</time>
      </trkpt>
      <trkpt lat="45.04936" lon="4.13688">
        <ele>1350.79</ele>
        <time>2022-04-14T14:18:52Z</time>
      </trkpt>
      <trkpt lat="45.04942" lon="4.13686">
        <ele>1351.27</ele>
        <time>2022-04-14T14:19:08Z</time>
      </trkpt>
      <trkpt lat="45.04956" lon="4.13675">
        <ele>1350.31</ele>
        <time>2022-04-14T14:19:25Z</time>
      </trkpt>
      <trkpt lat="45.04972" lon="4.13661">
        <ele>1354.15</ele>
        <time>2022-04-14T14:19:42Z</time>
      </trkpt>
      <trkpt lat="45.04977" lon="4.13649">
        <ele>1353.67</ele>
        <time>2022-04-14T14:19:57Z</time>
      </trkpt>
      <trkpt lat="45.04982" lon="4.13631">
        <ele>1356.56</ele>
        <time>2022-04-14T14:20:14Z</time>
      </trkpt>
      <trkpt lat="45.0499" lon="4.13612">
        <ele>1356.56</ele>
        <time>2022-04-14T14:20:33Z</time>
      </trkpt>
      <trkpt lat="45.04999" lon="4.13589">
        <ele>1359.92</ele>
        <time>2022-04-14T14:20:48Z</time>
      </trkpt>
      <trkpt lat="45.05009" lon="4.1357">
        <ele>1359.92</ele>
        <time>2022-04-14T14:21:03Z</time>
      </trkpt>
      <trkpt lat="45.0501" lon="4.13563">
        <ele>1360.4</ele>
        <time>2022-04-14T14:21:08Z</time>
      </trkpt>
      <trkpt lat="45.05014" lon="4.13551">
        <ele>1361.84</ele>
        <time>2022-04-14T14:21:22Z</time>
      </trkpt>
      <trkpt lat="45.05015" lon="4.13541">
        <ele>1365.21</ele>
        <time>2022-04-14T14:21:34Z</time>
      </trkpt>
      <trkpt lat="45.05016" lon="4.1353">
        <ele>1371.46</ele>
        <time>2022-04-14T14:21:49Z</time>
      </trkpt>
      <trkpt lat="45.0502" lon="4.13517">
        <ele>1374.34</ele>
        <time>2022-04-14T14:22:03Z</time>
      </trkpt>
      <trkpt lat="45.05027" lon="4.13501">
        <ele>1373.86</ele>
        <time>2022-04-14T14:22:21Z</time>
      </trkpt>
      <trkpt lat="45.05036" lon="4.13489">
        <ele>1372.42</ele>
        <time>2022-04-14T14:22:37Z</time>
      </trkpt>
      <trkpt lat="45.05051" lon="4.13474">
        <ele>1369.54</ele>
        <time>2022-04-14T14:22:55Z</time>
      </trkpt>
      <trkpt lat="45.05065" lon="4.13459">
        <ele>1370.5</ele>
        <time>2022-04-14T14:23:12Z</time>
      </trkpt>
      <trkpt lat="45.05081" lon="4.13442">
        <ele>1368.09</ele>
        <time>2022-04-14T14:23:30Z</time>
      </trkpt>
      <trkpt lat="45.05076" lon="4.13431">
        <ele>1366.65</ele>
        <time>2022-04-14T14:23:48Z</time>
      </trkpt>
      <trkpt lat="45.05076" lon="4.13429">
        <ele>1365.21</ele>
        <time>2022-04-14T14:24:09Z</time>
      </trkpt>
      <trkpt lat="45.05077" lon="4.1343">
        <ele>1367.13</ele>
        <time>2022-04-14T14:24:34Z</time>
      </trkpt>
      <trkpt lat="45.05075" lon="4.1343">
        <ele>1366.65</ele>
        <time>2022-04-14T14:24:58Z</time>
      </trkpt>
      <trkpt lat="45.05077" lon="4.13429">
        <ele>1365.21</ele>
        <time>2022-04-14T14:25:21Z</time>
      </trkpt>
      <trkpt lat="45.05081" lon="4.13426">
        <ele>1364.25</ele>
        <time>2022-04-14T14:25:24Z</time>
      </trkpt>
      <trkpt lat="45.05087" lon="4.13431">
        <ele>1361.84</ele>
        <time>2022-04-14T14:25:32Z</time>
      </trkpt>
      <trkpt lat="45.05105" lon="4.13425">
        <ele>1361.84</ele>
        <time>2022-04-14T14:25:42Z</time>
      </trkpt>
      <trkpt lat="45.05123" lon="4.13416">
        <ele>1361.36</ele>
        <time>2022-04-14T14:25:57Z</time>
      </trkpt>
      <trkpt lat="45.05131" lon="4.13409">
        <ele>1360.4</ele>
        <time>2022-04-14T14:26:05Z</time>
      </trkpt>
      <trkpt lat="45.05146" lon="4.13401">
        <ele>1358.96</ele>
        <time>2022-04-14T14:26:20Z</time>
      </trkpt>
      <trkpt lat="45.05151" lon="4.13402">
        <ele>1359.44</ele>
        <time>2022-04-14T14:26:31Z</time>
      </trkpt>
      <trkpt lat="45.05153" lon="4.13403">
        <ele>1361.36</ele>
        <time>2022-04-14T14:26:45Z</time>
      </trkpt>
      <trkpt lat="45.05155" lon="4.13404">
        <ele>1362.81</ele>
        <time>2022-04-14T14:27:10Z</time>
      </trkpt>
      <trkpt lat="45.05155" lon="4.13402">
        <ele>1361.84</ele>
        <time>2022-04-14T14:27:19Z</time>
      </trkpt>
      <trkpt lat="45.05157" lon="4.13403">
        <ele>1361.36</ele>
        <time>2022-04-14T14:27:31Z</time>
      </trkpt>
      <trkpt lat="45.05158" lon="4.13404">
        <ele>1359.92</ele>
        <time>2022-04-14T14:27:44Z</time>
      </trkpt>
      <trkpt lat="45.05166" lon="4.13404">
        <ele>1358</ele>
        <time>2022-04-14T14:27:57Z</time>
      </trkpt>
      <trkpt lat="45.05169" lon="4.13402">
        <ele>1357.52</ele>
        <time>2022-04-14T14:28:01Z</time>
      </trkpt>
      <trkpt lat="45.05176" lon="4.13396">
        <ele>1358</ele>
        <time>2022-04-14T14:28:08Z</time>
      </trkpt>
      <trkpt lat="45.05184" lon="4.13385">
        <ele>1358.96</ele>
        <time>2022-04-14T14:28:18Z</time>
      </trkpt>
      <trkpt lat="45.05188" lon="4.13384">
        <ele>1359.92</ele>
        <time>2022-04-14T14:28:21Z</time>
      </trkpt>
      <trkpt lat="45.05195" lon="4.13384">
        <ele>1362.33</ele>
        <time>2022-04-14T14:28:27Z</time>
      </trkpt>
      <trkpt lat="45.0521" lon="4.13373">
        <ele>1364.25</ele>
        <time>2022-04-14T14:28:42Z</time>
      </trkpt>
      <trkpt lat="45.0522" lon="4.13361">
        <ele>1364.25</ele>
        <time>2022-04-14T14:28:55Z</time>
      </trkpt>
      <trkpt lat="45.0523" lon="4.13341">
        <ele>1365.21</ele>
        <time>2022-04-14T14:29:11Z</time>
      </trkpt>
      <trkpt lat="45.05236" lon="4.1333">
        <ele>1367.61</ele>
        <time>2022-04-14T14:29:23Z</time>
      </trkpt>
      <trkpt lat="45.0524" lon="4.13323">
        <ele>1367.13</ele>
        <time>2022-04-14T14:29:38Z</time>
      </trkpt>
      <trkpt lat="45.05245" lon="4.13313">
        <ele>1367.13</ele>
        <time>2022-04-14T14:29:52Z</time>
      </trkpt>
      <trkpt lat="45.05247" lon="4.13314">
        <ele>1368.09</ele>
        <time>2022-04-14T14:30:04Z</time>
      </trkpt>
      <trkpt lat="45.05247" lon="4.13315">
        <ele>1368.09</ele>
        <time>2022-04-14T14:30:27Z</time>
      </trkpt>
      <trkpt lat="45.05249" lon="4.13311">
        <ele>1369.05</ele>
        <time>2022-04-14T14:30:39Z</time>
      </trkpt>
      <trkpt lat="45.05257" lon="4.13296">
        <ele>1371.46</ele>
        <time>2022-04-14T14:30:53Z</time>
      </trkpt>
      <trkpt lat="45.05266" lon="4.13284">
        <ele>1372.9</ele>
        <time>2022-04-14T14:31:05Z</time>
      </trkpt>
      <trkpt lat="45.05281" lon="4.13279">
        <ele>1376.75</ele>
        <time>2022-04-14T14:31:22Z</time>
      </trkpt>
      <trkpt lat="45.05297" lon="4.13279">
        <ele>1379.15</ele>
        <time>2022-04-14T14:31:38Z</time>
      </trkpt>
      <trkpt lat="45.05308" lon="4.13279">
        <ele>1379.63</ele>
        <time>2022-04-14T14:31:52Z</time>
      </trkpt>
      <trkpt lat="45.05319" lon="4.13281">
        <ele>1381.07</ele>
        <time>2022-04-14T14:32:05Z</time>
      </trkpt>
      <trkpt lat="45.0533" lon="4.13285">
        <ele>1380.59</ele>
        <time>2022-04-14T14:32:18Z</time>
      </trkpt>
      <trkpt lat="45.05334" lon="4.13287">
        <ele>1380.11</ele>
        <time>2022-04-14T14:32:22Z</time>
      </trkpt>
      <trkpt lat="45.05354" lon="4.13296">
        <ele>1380.11</ele>
        <time>2022-04-14T14:32:39Z</time>
      </trkpt>
      <trkpt lat="45.05377" lon="4.13302">
        <ele>1381.07</ele>
        <time>2022-04-14T14:32:56Z</time>
      </trkpt>
      <trkpt lat="45.05382" lon="4.13302">
        <ele>1381.55</ele>
        <time>2022-04-14T14:33:00Z</time>
      </trkpt>
      <trkpt lat="45.05388" lon="4.13303">
        <ele>1382.03</ele>
        <time>2022-04-14T14:33:05Z</time>
      </trkpt>
      <trkpt lat="45.05395" lon="4.13306">
        <ele>1382.51</ele>
        <time>2022-04-14T14:33:11Z</time>
      </trkpt>
      <trkpt lat="45.05412" lon="4.13308">
        <ele>1385.88</ele>
        <time>2022-04-14T14:33:27Z</time>
      </trkpt>
      <trkpt lat="45.05414" lon="4.13308">
        <ele>1385.88</ele>
        <time>2022-04-14T14:33:28Z</time>
      </trkpt>
      <trkpt lat="45.05425" lon="4.13306">
        <ele>1387.8</ele>
        <time>2022-04-14T14:33:38Z</time>
      </trkpt>
      <trkpt lat="45.05442" lon="4.13302">
        <ele>1390.68</ele>
        <time>2022-04-14T14:33:53Z</time>
      </trkpt>
      <trkpt lat="45.05444" lon="4.13298">
        <ele>1391.17</ele>
        <time>2022-04-14T14:33:58Z</time>
      </trkpt>
      <trkpt lat="45.05447" lon="4.1329">
        <ele>1391.65</ele>
        <time>2022-04-14T14:34:03Z</time>
      </trkpt>
      <trkpt lat="45.05447" lon="4.13288">
        <ele>1391.65</ele>
        <time>2022-04-14T14:34:05Z</time>
      </trkpt>
      <trkpt lat="45.05457" lon="4.13279">
        <ele>1392.61</ele>
        <time>2022-04-14T14:34:17Z</time>
      </trkpt>
      <trkpt lat="45.05468" lon="4.13273">
        <ele>1395.01</ele>
        <time>2022-04-14T14:34:29Z</time>
      </trkpt>
      <trkpt lat="45.05477" lon="4.13261">
        <ele>1397.89</ele>
        <time>2022-04-14T14:34:37Z</time>
      </trkpt>
      <trkpt lat="45.0548" lon="4.13259">
        <ele>1398.37</ele>
        <time>2022-04-14T14:34:39Z</time>
      </trkpt>
      <trkpt lat="45.05482" lon="4.1325">
        <ele>1399.34</ele>
        <time>2022-04-14T14:34:44Z</time>
      </trkpt>
      <trkpt lat="45.05486" lon="4.13239">
        <ele>1400.78</ele>
        <time>2022-04-14T14:34:56Z</time>
      </trkpt>
      <trkpt lat="45.05486" lon="4.13236">
        <ele>1400.78</ele>
        <time>2022-04-14T14:34:59Z</time>
      </trkpt>
      <trkpt lat="45.05483" lon="4.13225">
        <ele>1401.26</ele>
        <time>2022-04-14T14:35:10Z</time>
      </trkpt>
      <trkpt lat="45.05481" lon="4.13213">
        <ele>1401.26</ele>
        <time>2022-04-14T14:35:22Z</time>
      </trkpt>
      <trkpt lat="45.05479" lon="4.132">
        <ele>1403.66</ele>
        <time>2022-04-14T14:35:37Z</time>
      </trkpt>
      <trkpt lat="45.05478" lon="4.13197">
        <ele>1404.14</ele>
        <time>2022-04-14T14:35:39Z</time>
      </trkpt>
      <trkpt lat="45.05474" lon="4.13182">
        <ele>1409.43</ele>
        <time>2022-04-14T14:35:52Z</time>
      </trkpt>
      <trkpt lat="45.05474" lon="4.13175">
        <ele>1409.91</ele>
        <time>2022-04-14T14:35:59Z</time>
      </trkpt>
      <trkpt lat="45.05473" lon="4.1316">
        <ele>1414.72</ele>
        <time>2022-04-14T14:36:13Z</time>
      </trkpt>
      <trkpt lat="45.05475" lon="4.13158">
        <ele>1416.64</ele>
        <time>2022-04-14T14:36:25Z</time>
      </trkpt>
      <trkpt lat="45.05482" lon="4.13153">
        <ele>1420</ele>
        <time>2022-04-14T14:36:38Z</time>
      </trkpt>
      <trkpt lat="45.05487" lon="4.13145">
        <ele>1421.93</ele>
        <time>2022-04-14T14:36:50Z</time>
      </trkpt>
      <trkpt lat="45.05488" lon="4.13138">
        <ele>1422.41</ele>
        <time>2022-04-14T14:36:55Z</time>
      </trkpt>
      <trkpt lat="45.0549" lon="4.13137">
        <ele>1422.89</ele>
        <time>2022-04-14T14:36:57Z</time>
      </trkpt>
      <trkpt lat="45.05497" lon="4.13132">
        <ele>1425.77</ele>
        <time>2022-04-14T14:37:09Z</time>
      </trkpt>
      <trkpt lat="45.055" lon="4.13127">
        <ele>1426.73</ele>
        <time>2022-04-14T14:37:20Z</time>
      </trkpt>
      <trkpt lat="45.055" lon="4.13126">
        <ele>1428.66</ele>
        <time>2022-04-14T14:37:34Z</time>
      </trkpt>
      <trkpt lat="45.05503" lon="4.13118">
        <ele>1430.1</ele>
        <time>2022-04-14T14:37:47Z</time>
      </trkpt>
      <trkpt lat="45.05502" lon="4.1311">
        <ele>1431.54</ele>
        <time>2022-04-14T14:38:00Z</time>
      </trkpt>
      <trkpt lat="45.055" lon="4.13109">
        <ele>1432.5</ele>
        <time>2022-04-14T14:38:05Z</time>
      </trkpt>
      <trkpt lat="45.05497" lon="4.13108">
        <ele>1433.94</ele>
        <time>2022-04-14T14:38:08Z</time>
      </trkpt>
      <trkpt lat="45.05492" lon="4.13092">
        <ele>1436.35</ele>
        <time>2022-04-14T14:38:22Z</time>
      </trkpt>
      <trkpt lat="45.05489" lon="4.13074">
        <ele>1437.79</ele>
        <time>2022-04-14T14:38:36Z</time>
      </trkpt>
      <trkpt lat="45.05485" lon="4.13063">
        <ele>1439.23</ele>
        <time>2022-04-14T14:38:50Z</time>
      </trkpt>
      <trkpt lat="45.05484" lon="4.13062">
        <ele>1438.27</ele>
        <time>2022-04-14T14:39:12Z</time>
      </trkpt>
      <trkpt lat="45.05482" lon="4.13061">
        <ele>1436.35</ele>
        <time>2022-04-14T14:39:43Z</time>
      </trkpt>
      <trkpt lat="45.05482" lon="4.13061">
        <ele>1435.87</ele>
        <time>2022-04-14T14:40:20Z</time>
      </trkpt>
      <trkpt lat="45.05483" lon="4.13061">
        <ele>1436.35</ele>
        <time>2022-04-14T14:40:51Z</time>
      </trkpt>
      <trkpt lat="45.05483" lon="4.13061">
        <ele>1435.39</ele>
        <time>2022-04-14T14:41:35Z</time>
      </trkpt>
      <trkpt lat="45.05483" lon="4.13061">
        <ele>1435.39</ele>
        <time>2022-04-14T14:42:04Z</time>
      </trkpt>
      <trkpt lat="45.05482" lon="4.13061">
        <ele>1434.42</ele>
        <time>2022-04-14T14:42:37Z</time>
      </trkpt>
      <trkpt lat="45.05482" lon="4.1306">
        <ele>1434.91</ele>
        <time>2022-04-14T14:43:06Z</time>
      </trkpt>
      <trkpt lat="45.05482" lon="4.1306">
        <ele>1434.42</ele>
        <time>2022-04-14T14:43:46Z</time>
      </trkpt>
      <trkpt lat="45.05482" lon="4.1306">
        <ele>1434.42</ele>
        <time>2022-04-14T14:44:31Z</time>
      </trkpt>
      <trkpt lat="45.05482" lon="4.13061">
        <ele>1433.46</ele>
        <time>2022-04-14T14:45:10Z</time>
      </trkpt>
      <trkpt lat="45.05482" lon="4.1306">
        <ele>1433.46</ele>
        <time>2022-04-14T14:45:47Z</time>
      </trkpt>
      <trkpt lat="45.05482" lon="4.1306">
        <ele>1432.02</ele>
        <time>2022-04-14T14:46:25Z</time>
      </trkpt>
      <trkpt lat="45.05482" lon="4.1306">
        <ele>1431.06</ele>
        <time>2022-04-14T14:47:02Z</time>
      </trkpt>
      <trkpt lat="45.05482" lon="4.13061">
        <ele>1430.58</ele>
        <time>2022-04-14T14:47:40Z</time>
      </trkpt>
      <trkpt lat="45.05482" lon="4.13059">
        <ele>1430.58</ele>
        <time>2022-04-14T14:48:25Z</time>
      </trkpt>
      <trkpt lat="45.05483" lon="4.13059">
        <ele>1430.58</ele>
        <time>2022-04-14T14:48:59Z</time>
      </trkpt>
      <trkpt lat="45.05482" lon="4.13059">
        <ele>1431.54</ele>
        <time>2022-04-14T14:49:16Z</time>
      </trkpt>
      <trkpt lat="45.05482" lon="4.1306">
        <ele>1432.02</ele>
        <time>2022-04-14T14:49:32Z</time>
      </trkpt>
      <trkpt lat="45.05482" lon="4.13061">
        <ele>1432.5</ele>
        <time>2022-04-14T14:49:45Z</time>
      </trkpt>
      <trkpt lat="45.05485" lon="4.1307">
        <ele>1431.06</ele>
        <time>2022-04-14T14:49:57Z</time>
      </trkpt>
      <trkpt lat="45.05486" lon="4.13075">
        <ele>1431.06</ele>
        <time>2022-04-14T14:50:11Z</time>
      </trkpt>
      <trkpt lat="45.05486" lon="4.13081">
        <ele>1432.02</ele>
        <time>2022-04-14T14:50:25Z</time>
      </trkpt>
      <trkpt lat="45.05486" lon="4.13086">
        <ele>1431.54</ele>
        <time>2022-04-14T14:50:36Z</time>
      </trkpt>
      <trkpt lat="45.05488" lon="4.13088">
        <ele>1431.54</ele>
        <time>2022-04-14T14:50:48Z</time>
      </trkpt>
      <trkpt lat="45.05489" lon="4.13091">
        <ele>1431.06</ele>
        <time>2022-04-14T14:51:01Z</time>
      </trkpt>
      <trkpt lat="45.0549" lon="4.13097">
        <ele>1428.66</ele>
        <time>2022-04-14T14:51:14Z</time>
      </trkpt>
      <trkpt lat="45.05494" lon="4.13108">
        <ele>1427.21</ele>
        <time>2022-04-14T14:51:26Z</time>
      </trkpt>
      <trkpt lat="45.05497" lon="4.13115">
        <ele>1427.21</ele>
        <time>2022-04-14T14:51:38Z</time>
      </trkpt>
      <trkpt lat="45.05501" lon="4.13123">
        <ele>1429.14</ele>
        <time>2022-04-14T14:51:51Z</time>
      </trkpt>
      <trkpt lat="45.05503" lon="4.1313">
        <ele>1429.62</ele>
        <time>2022-04-14T14:52:06Z</time>
      </trkpt>
      <trkpt lat="45.05506" lon="4.13139">
        <ele>1430.1</ele>
        <time>2022-04-14T14:52:20Z</time>
      </trkpt>
      <trkpt lat="45.05507" lon="4.13144">
        <ele>1430.58</ele>
        <time>2022-04-14T14:52:35Z</time>
      </trkpt>
      <trkpt lat="45.05508" lon="4.13148">
        <ele>1430.1</ele>
        <time>2022-04-14T14:52:49Z</time>
      </trkpt>
      <trkpt lat="45.05512" lon="4.13151">
        <ele>1430.1</ele>
        <time>2022-04-14T14:53:03Z</time>
      </trkpt>
      <trkpt lat="45.05513" lon="4.13153">
        <ele>1429.14</ele>
        <time>2022-04-14T14:53:20Z</time>
      </trkpt>
      <trkpt lat="45.05514" lon="4.13155">
        <ele>1429.14</ele>
        <time>2022-04-14T14:53:39Z</time>
      </trkpt>
      <trkpt lat="45.05516" lon="4.13158">
        <ele>1427.7</ele>
        <time>2022-04-14T14:53:54Z</time>
      </trkpt>
      <trkpt lat="45.05518" lon="4.13162">
        <ele>1427.7</ele>
        <time>2022-04-14T14:54:07Z</time>
      </trkpt>
      <trkpt lat="45.05519" lon="4.13164">
        <ele>1427.21</ele>
        <time>2022-04-14T14:54:25Z</time>
      </trkpt>
      <trkpt lat="45.05521" lon="4.13166">
        <ele>1425.77</ele>
        <time>2022-04-14T14:54:41Z</time>
      </trkpt>
      <trkpt lat="45.05523" lon="4.13169">
        <ele>1424.81</ele>
        <time>2022-04-14T14:54:56Z</time>
      </trkpt>
      <trkpt lat="45.05527" lon="4.13175">
        <ele>1422.89</ele>
        <time>2022-04-14T14:55:13Z</time>
      </trkpt>
      <trkpt lat="45.05532" lon="4.13185">
        <ele>1420.97</ele>
        <time>2022-04-14T14:55:24Z</time>
      </trkpt>
      <trkpt lat="45.05534" lon="4.13196">
        <ele>1417.6</ele>
        <time>2022-04-14T14:55:38Z</time>
      </trkpt>
      <trkpt lat="45.05535" lon="4.13215">
        <ele>1415.68</ele>
        <time>2022-04-14T14:55:52Z</time>
      </trkpt>
      <trkpt lat="45.05536" lon="4.1323">
        <ele>1415.2</ele>
        <time>2022-04-14T14:56:05Z</time>
      </trkpt>
      <trkpt lat="45.05539" lon="4.13252">
        <ele>1412.31</ele>
        <time>2022-04-14T14:56:19Z</time>
      </trkpt>
      <trkpt lat="45.05553" lon="4.13277">
        <ele>1414.24</ele>
        <time>2022-04-14T14:56:34Z</time>
      </trkpt>
      <trkpt lat="45.05557" lon="4.13285">
        <ele>1414.24</ele>
        <time>2022-04-14T14:56:48Z</time>
      </trkpt>
      <trkpt lat="45.05557" lon="4.13287">
        <ele>1413.76</ele>
        <time>2022-04-14T14:57:03Z</time>
      </trkpt>
      <trkpt lat="45.05559" lon="4.13288">
        <ele>1413.76</ele>
        <time>2022-04-14T14:57:25Z</time>
      </trkpt>
      <trkpt lat="45.05561" lon="4.1329">
        <ele>1414.72</ele>
        <time>2022-04-14T14:57:40Z</time>
      </trkpt>
      <trkpt lat="45.05561" lon="4.1329">
        <ele>1414.72</ele>
        <time>2022-04-14T14:57:53Z</time>
      </trkpt>
      <trkpt lat="45.05565" lon="4.13292">
        <ele>1414.72</ele>
        <time>2022-04-14T14:58:10Z</time>
      </trkpt>
      <trkpt lat="45.05576" lon="4.13302">
        <ele>1414.72</ele>
        <time>2022-04-14T14:58:25Z</time>
      </trkpt>
      <trkpt lat="45.05591" lon="4.13315">
        <ele>1413.28</ele>
        <time>2022-04-14T14:58:41Z</time>
      </trkpt>
      <trkpt lat="45.05604" lon="4.13319">
        <ele>1410.87</ele>
        <time>2022-04-14T14:58:54Z</time>
      </trkpt>
      <trkpt lat="45.05611" lon="4.13319">
        <ele>1410.87</ele>
        <time>2022-04-14T14:59:00Z</time>
      </trkpt>
      <trkpt lat="45.05631" lon="4.13314">
        <ele>1410.39</ele>
        <time>2022-04-14T14:59:16Z</time>
      </trkpt>
      <trkpt lat="45.05649" lon="4.13314">
        <ele>1405.58</ele>
        <time>2022-04-14T14:59:33Z</time>
      </trkpt>
      <trkpt lat="45.05656" lon="4.13305">
        <ele>1405.1</ele>
        <time>2022-04-14T14:59:47Z</time>
      </trkpt>
      <trkpt lat="45.05665" lon="4.1329">
        <ele>1409.43</ele>
        <time>2022-04-14T15:00:03Z</time>
      </trkpt>
      <trkpt lat="45.05664" lon="4.13277">
        <ele>1411.83</ele>
        <time>2022-04-14T15:00:16Z</time>
      </trkpt>
      <trkpt lat="45.05668" lon="4.13263">
        <ele>1412.31</ele>
        <time>2022-04-14T15:00:28Z</time>
      </trkpt>
      <trkpt lat="45.05668" lon="4.13252">
        <ele>1411.35</ele>
        <time>2022-04-14T15:00:38Z</time>
      </trkpt>
      <trkpt lat="45.05667" lon="4.13237">
        <ele>1409.91</ele>
        <time>2022-04-14T15:00:50Z</time>
      </trkpt>
      <trkpt lat="45.05665" lon="4.13231">
        <ele>1407.99</ele>
        <time>2022-04-14T15:00:56Z</time>
      </trkpt>
      <trkpt lat="45.05664" lon="4.13211">
        <ele>1395.01</ele>
        <time>2022-04-14T15:01:08Z</time>
      </trkpt>
      <trkpt lat="45.0566" lon="4.13196">
        <ele>1388.28</ele>
        <time>2022-04-14T15:01:22Z</time>
      </trkpt>
      <trkpt lat="45.0566" lon="4.13189">
        <ele>1387.8</ele>
        <time>2022-04-14T15:01:28Z</time>
      </trkpt>
      <trkpt lat="45.05662" lon="4.13168">
        <ele>1386.36</ele>
        <time>2022-04-14T15:01:43Z</time>
      </trkpt>
      <trkpt lat="45.05669" lon="4.13151">
        <ele>1386.36</ele>
        <time>2022-04-14T15:01:57Z</time>
      </trkpt>
      <trkpt lat="45.05675" lon="4.13137">
        <ele>1387.8</ele>
        <time>2022-04-14T15:02:09Z</time>
      </trkpt>
      <trkpt lat="45.05675" lon="4.13132">
        <ele>1388.76</ele>
        <time>2022-04-14T15:02:12Z</time>
      </trkpt>
      <trkpt lat="45.05678" lon="4.13108">
        <ele>1391.17</ele>
        <time>2022-04-14T15:02:28Z</time>
      </trkpt>
      <trkpt lat="45.05678" lon="4.13103">
        <ele>1391.65</ele>
        <time>2022-04-14T15:02:31Z</time>
      </trkpt>
      <trkpt lat="45.05683" lon="4.13089">
        <ele>1391.65</ele>
        <time>2022-04-14T15:02:44Z</time>
      </trkpt>
      <trkpt lat="45.05687" lon="4.13071">
        <ele>1390.2</ele>
        <time>2022-04-14T15:02:57Z</time>
      </trkpt>
      <trkpt lat="45.05689" lon="4.13059">
        <ele>1389.24</ele>
        <time>2022-04-14T15:03:05Z</time>
      </trkpt>
      <trkpt lat="45.05693" lon="4.13042">
        <ele>1385.4</ele>
        <time>2022-04-14T15:03:15Z</time>
      </trkpt>
      <trkpt lat="45.05698" lon="4.13031">
        <ele>1384.44</ele>
        <time>2022-04-14T15:03:24Z</time>
      </trkpt>
      <trkpt lat="45.05703" lon="4.1303">
        <ele>1382.99</ele>
        <time>2022-04-14T15:03:29Z</time>
      </trkpt>
      <trkpt lat="45.0571" lon="4.13027">
        <ele>1381.07</ele>
        <time>2022-04-14T15:03:44Z</time>
      </trkpt>
      <trkpt lat="45.0571" lon="4.13028">
        <ele>1379.63</ele>
        <time>2022-04-14T15:03:54Z</time>
      </trkpt>
      <trkpt lat="45.05713" lon="4.13028">
        <ele>1371.46</ele>
        <time>2022-04-14T15:04:10Z</time>
      </trkpt>
      <trkpt lat="45.05714" lon="4.13026">
        <ele>1362.33</ele>
        <time>2022-04-14T15:04:25Z</time>
      </trkpt>
      <trkpt lat="45.05715" lon="4.1303">
        <ele>1358.96</ele>
        <time>2022-04-14T15:04:40Z</time>
      </trkpt>
      <trkpt lat="45.0572" lon="4.13037">
        <ele>1358.48</ele>
        <time>2022-04-14T15:04:54Z</time>
      </trkpt>
      <trkpt lat="45.05722" lon="4.13037">
        <ele>1358.96</ele>
        <time>2022-04-14T15:05:25Z</time>
      </trkpt>
      <trkpt lat="45.05722" lon="4.13037">
        <ele>1357.52</ele>
        <time>2022-04-14T15:05:51Z</time>
      </trkpt>
      <trkpt lat="45.05721" lon="4.13038">
        <ele>1355.6</ele>
        <time>2022-04-14T15:06:21Z</time>
      </trkpt>
      <trkpt lat="45.05722" lon="4.1304">
        <ele>1356.08</ele>
        <time>2022-04-14T15:06:35Z</time>
      </trkpt>
      <trkpt lat="45.05724" lon="4.13042">
        <ele>1356.56</ele>
        <time>2022-04-14T15:06:50Z</time>
      </trkpt>
      <trkpt lat="45.05727" lon="4.13048">
        <ele>1356.08</ele>
        <time>2022-04-14T15:06:56Z</time>
      </trkpt>
      <trkpt lat="45.05732" lon="4.13059">
        <ele>1356.56</ele>
        <time>2022-04-14T15:07:05Z</time>
      </trkpt>
      <trkpt lat="45.05746" lon="4.1308">
        <ele>1357.04</ele>
        <time>2022-04-14T15:07:22Z</time>
      </trkpt>
      <trkpt lat="45.05759" lon="4.13099">
        <ele>1356.56</ele>
        <time>2022-04-14T15:07:37Z</time>
      </trkpt>
      <trkpt lat="45.05761" lon="4.13102">
        <ele>1356.08</ele>
        <time>2022-04-14T15:07:40Z</time>
      </trkpt>
      <trkpt lat="45.05763" lon="4.13107">
        <ele>1355.12</ele>
        <time>2022-04-14T15:07:43Z</time>
      </trkpt>
      <trkpt lat="45.05777" lon="4.13125">
        <ele>1352.71</ele>
        <time>2022-04-14T15:07:57Z</time>
      </trkpt>
      <trkpt lat="45.05788" lon="4.13137">
        <ele>1352.71</ele>
        <time>2022-04-14T15:08:10Z</time>
      </trkpt>
      <trkpt lat="45.058" lon="4.1315">
        <ele>1352.23</ele>
        <time>2022-04-14T15:08:23Z</time>
      </trkpt>
      <trkpt lat="45.05816" lon="4.13168">
        <ele>1346.94</ele>
        <time>2022-04-14T15:08:39Z</time>
      </trkpt>
      <trkpt lat="45.05831" lon="4.13182">
        <ele>1345.02</ele>
        <time>2022-04-14T15:08:54Z</time>
      </trkpt>
      <trkpt lat="45.05843" lon="4.13191">
        <ele>1343.58</ele>
        <time>2022-04-14T15:09:07Z</time>
      </trkpt>
      <trkpt lat="45.05853" lon="4.13194">
        <ele>1343.1</ele>
        <time>2022-04-14T15:09:18Z</time>
      </trkpt>
      <trkpt lat="45.05869" lon="4.13201">
        <ele>1341.66</ele>
        <time>2022-04-14T15:09:33Z</time>
      </trkpt>
      <trkpt lat="45.05885" lon="4.13205">
        <ele>1341.66</ele>
        <time>2022-04-14T15:09:49Z</time>
      </trkpt>
      <trkpt lat="45.05898" lon="4.13207">
        <ele>1343.58</ele>
        <time>2022-04-14T15:10:04Z</time>
      </trkpt>
      <trkpt lat="45.05916" lon="4.13214">
        <ele>1343.58</ele>
        <time>2022-04-14T15:10:18Z</time>
      </trkpt>
      <trkpt lat="45.05934" lon="4.13221">
        <ele>1342.14</ele>
        <time>2022-04-14T15:10:37Z</time>
      </trkpt>
      <trkpt lat="45.05952" lon="4.13236">
        <ele>1338.77</ele>
        <time>2022-04-14T15:10:48Z</time>
      </trkpt>
      <trkpt lat="45.05971" lon="4.13251">
        <ele>1334.45</ele>
        <time>2022-04-14T15:11:03Z</time>
      </trkpt>
      <trkpt lat="45.05987" lon="4.13267">
        <ele>1331.08</ele>
        <time>2022-04-14T15:11:19Z</time>
      </trkpt>
      <trkpt lat="45.06001" lon="4.13275">
        <ele>1328.68</ele>
        <time>2022-04-14T15:11:33Z</time>
      </trkpt>
      <trkpt lat="45.06013" lon="4.13284">
        <ele>1327.24</ele>
        <time>2022-04-14T15:11:48Z</time>
      </trkpt>
      <trkpt lat="45.06026" lon="4.13295">
        <ele>1328.68</ele>
        <time>2022-04-14T15:12:03Z</time>
      </trkpt>
      <trkpt lat="45.06039" lon="4.13309">
        <ele>1329.64</ele>
        <time>2022-04-14T15:12:18Z</time>
      </trkpt>
      <trkpt lat="45.06048" lon="4.13338">
        <ele>1326.28</ele>
        <time>2022-04-14T15:12:34Z</time>
      </trkpt>
      <trkpt lat="45.06064" lon="4.13344">
        <ele>1328.2</ele>
        <time>2022-04-14T15:12:48Z</time>
      </trkpt>
      <trkpt lat="45.06072" lon="4.13346">
        <ele>1328.68</ele>
        <time>2022-04-14T15:13:02Z</time>
      </trkpt>
      <trkpt lat="45.06074" lon="4.13345">
        <ele>1329.16</ele>
        <time>2022-04-14T15:13:16Z</time>
      </trkpt>
      <trkpt lat="45.06074" lon="4.13342">
        <ele>1329.64</ele>
        <time>2022-04-14T15:13:34Z</time>
      </trkpt>
      <trkpt lat="45.06075" lon="4.13341">
        <ele>1329.16</ele>
        <time>2022-04-14T15:13:59Z</time>
      </trkpt>
      <trkpt lat="45.06096" lon="4.13338">
        <ele>1323.39</ele>
        <time>2022-04-14T15:14:15Z</time>
      </trkpt>
      <trkpt lat="45.06102" lon="4.13333">
        <ele>1321.95</ele>
        <time>2022-04-14T15:14:25Z</time>
      </trkpt>
      <trkpt lat="45.06118" lon="4.13327">
        <ele>1322.43</ele>
        <time>2022-04-14T15:14:43Z</time>
      </trkpt>
      <trkpt lat="45.06138" lon="4.13318">
        <ele>1322.43</ele>
        <time>2022-04-14T15:14:59Z</time>
      </trkpt>
      <trkpt lat="45.0615" lon="4.13316">
        <ele>1322.43</ele>
        <time>2022-04-14T15:15:14Z</time>
      </trkpt>
      <trkpt lat="45.06167" lon="4.13309">
        <ele>1325.31</ele>
        <time>2022-04-14T15:15:29Z</time>
      </trkpt>
      <trkpt lat="45.0618" lon="4.133">
        <ele>1324.35</ele>
        <time>2022-04-14T15:15:37Z</time>
      </trkpt>
      <trkpt lat="45.06197" lon="4.13295">
        <ele>1322.91</ele>
        <time>2022-04-14T15:15:51Z</time>
      </trkpt>
      <trkpt lat="45.0621" lon="4.1329">
        <ele>1325.8</ele>
        <time>2022-04-14T15:16:04Z</time>
      </trkpt>
      <trkpt lat="45.06226" lon="4.13285">
        <ele>1327.72</ele>
        <time>2022-04-14T15:16:18Z</time>
      </trkpt>
      <trkpt lat="45.06241" lon="4.13276">
        <ele>1328.68</ele>
        <time>2022-04-14T15:16:29Z</time>
      </trkpt>
      <trkpt lat="45.06249" lon="4.13273">
        <ele>1327.72</ele>
        <time>2022-04-14T15:16:37Z</time>
      </trkpt>
      <trkpt lat="45.06267" lon="4.1327">
        <ele>1331.08</ele>
        <time>2022-04-14T15:16:52Z</time>
      </trkpt>
      <trkpt lat="45.06285" lon="4.13263">
        <ele>1335.41</ele>
        <time>2022-04-14T15:17:07Z</time>
      </trkpt>
      <trkpt lat="45.06314" lon="4.13246">
        <ele>1328.2</ele>
        <time>2022-04-14T15:17:22Z</time>
      </trkpt>
      <trkpt lat="45.06331" lon="4.13231">
        <ele>1322.91</ele>
        <time>2022-04-14T15:17:36Z</time>
      </trkpt>
      <trkpt lat="45.06349" lon="4.13223">
        <ele>1322.91</ele>
        <time>2022-04-14T15:17:51Z</time>
      </trkpt>
      <trkpt lat="45.06361" lon="4.1322">
        <ele>1325.8</ele>
        <time>2022-04-14T15:18:03Z</time>
      </trkpt>
      <trkpt lat="45.06377" lon="4.13216">
        <ele>1331.56</ele>
        <time>2022-04-14T15:18:17Z</time>
      </trkpt>
      <trkpt lat="45.06396" lon="4.13209">
        <ele>1334.45</ele>
        <time>2022-04-14T15:18:32Z</time>
      </trkpt>
      <trkpt lat="45.06412" lon="4.13195">
        <ele>1328.68</ele>
        <time>2022-04-14T15:18:44Z</time>
      </trkpt>
      <trkpt lat="45.06432" lon="4.13186">
        <ele>1327.72</ele>
        <time>2022-04-14T15:19:01Z</time>
      </trkpt>
      <trkpt lat="45.06454" lon="4.13182">
        <ele>1325.8</ele>
        <time>2022-04-14T15:19:17Z</time>
      </trkpt>
      <trkpt lat="45.06458" lon="4.1318">
        <ele>1325.8</ele>
        <time>2022-04-14T15:19:20Z</time>
      </trkpt>
      <trkpt lat="45.06471" lon="4.13175">
        <ele>1330.12</ele>
        <time>2022-04-14T15:19:33Z</time>
      </trkpt>
      <trkpt lat="45.06485" lon="4.13166">
        <ele>1329.64</ele>
        <time>2022-04-14T15:19:44Z</time>
      </trkpt>
      <trkpt lat="45.06505" lon="4.13152">
        <ele>1321.47</ele>
        <time>2022-04-14T15:19:59Z</time>
      </trkpt>
      <trkpt lat="45.06529" lon="4.13141">
        <ele>1319.07</ele>
        <time>2022-04-14T15:20:17Z</time>
      </trkpt>
      <trkpt lat="45.06546" lon="4.13134">
        <ele>1322.43</ele>
        <time>2022-04-14T15:20:32Z</time>
      </trkpt>
      <trkpt lat="45.06566" lon="4.13129">
        <ele>1327.72</ele>
        <time>2022-04-14T15:20:48Z</time>
      </trkpt>
      <trkpt lat="45.06597" lon="4.13114">
        <ele>1335.89</ele>
        <time>2022-04-14T15:21:09Z</time>
      </trkpt>
      <trkpt lat="45.06613" lon="4.13105">
        <ele>1340.22</ele>
        <time>2022-04-14T15:21:24Z</time>
      </trkpt>
      <trkpt lat="45.06628" lon="4.13103">
        <ele>1343.1</ele>
        <time>2022-04-14T15:21:38Z</time>
      </trkpt>
      <trkpt lat="45.0664" lon="4.13095">
        <ele>1340.7</ele>
        <time>2022-04-14T15:21:49Z</time>
      </trkpt>
      <trkpt lat="45.06663" lon="4.13084">
        <ele>1339.25</ele>
        <time>2022-04-14T15:22:04Z</time>
      </trkpt>
      <trkpt lat="45.0668" lon="4.13078">
        <ele>1340.7</ele>
        <time>2022-04-14T15:22:18Z</time>
      </trkpt>
      <trkpt lat="45.06694" lon="4.1307">
        <ele>1343.58</ele>
        <time>2022-04-14T15:22:28Z</time>
      </trkpt>
      <trkpt lat="45.06699" lon="4.13067">
        <ele>1345.02</ele>
        <time>2022-04-14T15:22:32Z</time>
      </trkpt>
      <trkpt lat="45.06717" lon="4.13052">
        <ele>1343.58</ele>
        <time>2022-04-14T15:22:46Z</time>
      </trkpt>
      <trkpt lat="45.06722" lon="4.1305">
        <ele>1343.58</ele>
        <time>2022-04-14T15:22:51Z</time>
      </trkpt>
      <trkpt lat="45.0674" lon="4.13049">
        <ele>1338.29</ele>
        <time>2022-04-14T15:23:06Z</time>
      </trkpt>
      <trkpt lat="45.06747" lon="4.13046">
        <ele>1333.97</ele>
        <time>2022-04-14T15:23:11Z</time>
      </trkpt>
      <trkpt lat="45.06762" lon="4.1304">
        <ele>1332.52</ele>
        <time>2022-04-14T15:23:24Z</time>
      </trkpt>
      <trkpt lat="45.06785" lon="4.13031">
        <ele>1327.72</ele>
        <time>2022-04-14T15:23:39Z</time>
      </trkpt>
      <trkpt lat="45.06797" lon="4.13029">
        <ele>1332.04</ele>
        <time>2022-04-14T15:23:52Z</time>
      </trkpt>
      <trkpt lat="45.0682" lon="4.13016">
        <ele>1324.83</ele>
        <time>2022-04-14T15:24:05Z</time>
      </trkpt>
      <trkpt lat="45.06822" lon="4.13015">
        <ele>1325.8</ele>
        <time>2022-04-14T15:24:07Z</time>
      </trkpt>
      <trkpt lat="45.06839" lon="4.13002">
        <ele>1325.8</ele>
        <time>2022-04-14T15:24:22Z</time>
      </trkpt>
      <trkpt lat="45.06853" lon="4.1299">
        <ele>1319.55</ele>
        <time>2022-04-14T15:24:37Z</time>
      </trkpt>
      <trkpt lat="45.06872" lon="4.12982">
        <ele>1314.74</ele>
        <time>2022-04-14T15:24:49Z</time>
      </trkpt>
      <trkpt lat="45.0689" lon="4.12965">
        <ele>1311.86</ele>
        <time>2022-04-14T15:25:05Z</time>
      </trkpt>
      <trkpt lat="45.06909" lon="4.12949">
        <ele>1305.13</ele>
        <time>2022-04-14T15:25:21Z</time>
      </trkpt>
      <trkpt lat="45.06931" lon="4.12948">
        <ele>1304.17</ele>
        <time>2022-04-14T15:25:35Z</time>
      </trkpt>
      <trkpt lat="45.0694" lon="4.12945">
        <ele>1302.72</ele>
        <time>2022-04-14T15:25:43Z</time>
      </trkpt>
      <trkpt lat="45.06947" lon="4.12946">
        <ele>1302.72</ele>
        <time>2022-04-14T15:25:48Z</time>
      </trkpt>
      <trkpt lat="45.0697" lon="4.12944">
        <ele>1300.8</ele>
        <time>2022-04-14T15:26:03Z</time>
      </trkpt>
      <trkpt lat="45.06989" lon="4.12941">
        <ele>1297.44</ele>
        <time>2022-04-14T15:26:16Z</time>
      </trkpt>
      <trkpt lat="45.06996" lon="4.12939">
        <ele>1298.4</ele>
        <time>2022-04-14T15:26:21Z</time>
      </trkpt>
      <trkpt lat="45.07023" lon="4.12941">
        <ele>1293.59</ele>
        <time>2022-04-14T15:26:39Z</time>
      </trkpt>
      <trkpt lat="45.07028" lon="4.12941">
        <ele>1293.59</ele>
        <time>2022-04-14T15:26:43Z</time>
      </trkpt>
      <trkpt lat="45.07038" lon="4.12942">
        <ele>1295.99</ele>
        <time>2022-04-14T15:26:52Z</time>
      </trkpt>
      <trkpt lat="45.07047" lon="4.12945">
        <ele>1297.44</ele>
        <time>2022-04-14T15:26:58Z</time>
      </trkpt>
      <trkpt lat="45.07065" lon="4.12938">
        <ele>1296.96</ele>
        <time>2022-04-14T15:27:11Z</time>
      </trkpt>
      <trkpt lat="45.0708" lon="4.1294">
        <ele>1302.72</ele>
        <time>2022-04-14T15:27:25Z</time>
      </trkpt>
      <trkpt lat="45.07095" lon="4.12939">
        <ele>1307.53</ele>
        <time>2022-04-14T15:27:39Z</time>
      </trkpt>
      <trkpt lat="45.07106" lon="4.1294">
        <ele>1310.41</ele>
        <time>2022-04-14T15:27:52Z</time>
      </trkpt>
      <trkpt lat="45.07121" lon="4.12936">
        <ele>1312.82</ele>
        <time>2022-04-14T15:28:06Z</time>
      </trkpt>
      <trkpt lat="45.07123" lon="4.12934">
        <ele>1313.3</ele>
        <time>2022-04-14T15:28:08Z</time>
      </trkpt>
      <trkpt lat="45.07141" lon="4.12924">
        <ele>1308.01</ele>
        <time>2022-04-14T15:28:21Z</time>
      </trkpt>
      <trkpt lat="45.07163" lon="4.12917">
        <ele>1297.92</ele>
        <time>2022-04-14T15:28:36Z</time>
      </trkpt>
      <trkpt lat="45.07176" lon="4.12891">
        <ele>1293.59</ele>
        <time>2022-04-14T15:28:53Z</time>
      </trkpt>
      <trkpt lat="45.07177" lon="4.12882">
        <ele>1296.48</ele>
        <time>2022-04-14T15:29:06Z</time>
      </trkpt>
      <trkpt lat="45.07179" lon="4.12868">
        <ele>1295.99</ele>
        <time>2022-04-14T15:29:16Z</time>
      </trkpt>
      <trkpt lat="45.07176" lon="4.12854">
        <ele>1283.5</ele>
        <time>2022-04-14T15:29:29Z</time>
      </trkpt>
    </trkseg>
  </trk>
</gpx>